Wetterdaten: aktuell Mittwoch, 27.09.2023 18:07
Datum Zeit Temp. I. Temp. 2m Temp. Gh Feuchte I. Feuchte 2m Feuchte Gh Luftdruck Regen Wind Richtung Richtung ET Taupunkt Windchill Windben Empfang
27.09.2023 18:07 24,0 C 23,4 C 26,1 C 54 % 67 % 44 % 1018,9 hPa 0,0 l/m 3,2 km/h (1 Bft) NO 45 0,000 mm 16,9 C 23,4 C 4,8 km/h (1 Bft) 100,00 %
27.09.2023 18:06 24,1 C 23,4 C 26,1 C 54 % 67 % 45 % 1018,8 hPa 0,0 l/m 4,8 km/h (1 Bft) NO 45 0,000 mm 16,9 C 23,4 C 6,4 km/h (2 Bft) 91,30 %
27.09.2023 18:05 24,1 C 23,5 C 26,1 C 54 % 67 % 44 % 1018,8 hPa 0,0 l/m 3,2 km/h (1 Bft) O 90 0,000 mm 17,0 C 23,5 C 4,8 km/h (1 Bft) 95,65 %
27.09.2023 18:04 24,1 C 23,5 C 26,1 C 54 % 67 % 44 % 1018,9 hPa 0,0 l/m 3,2 km/h (1 Bft) O 90 0,000 mm 17,0 C 23,5 C 4,8 km/h (1 Bft) 95,65 %
27.09.2023 18:03 24,1 C 23,5 C 26,1 C 54 % 67 % 43 % 1019,0 hPa 0,0 l/m 1,6 km/h (1 Bft) O 90 0,000 mm 17,0 C 23,5 C 3,2 km/h (1 Bft) 95,65 %
27.09.2023 18:02 24,1 C 23,6 C 26,1 C 54 % 66 % 43 % 1018,9 hPa 0,0 l/m 3,2 km/h (1 Bft) O 90 0,000 mm 16,9 C 23,6 C 4,8 km/h (1 Bft) 95,65 %
27.09.2023 18:01 24,1 C 23,6 C 26,1 C 54 % 66 % 43 % 1019,1 hPa 0,0 l/m 4,8 km/h (1 Bft) O-NO 67 0,000 mm 16,9 C 23,6 C 6,4 km/h (2 Bft) 95,65 %
27.09.2023 18:00 24,1 C 23,7 C 26,1 C 54 % 66 % 43 % 1018,9 hPa 0,0 l/m 4,8 km/h (1 Bft) NO 45 0,000 mm 17,0 C 23,7 C 6,4 km/h (2 Bft) 95,65 %
27.09.2023 17:59 24,1 C 23,7 C 26,7 C 54 % 66 % 43 % 1019,0 hPa 0,0 l/m 1,6 km/h (1 Bft) NO 45 0,000 mm 17,0 C 23,7 C 3,2 km/h (1 Bft) 100,00 %
27.09.2023 17:58 24,1 C 23,7 C 26,7 C 54 % 65 % 43 % 1018,9 hPa 0,0 l/m 1,6 km/h (1 Bft) NO 45 0,000 mm 16,7 C 23,7 C 3,2 km/h (1 Bft) 86,96 %
27.09.2023 17:57 24,1 C 23,7 C 26,7 C 54 % 65 % 42 % 1018,9 hPa 0,0 l/m 3,2 km/h (1 Bft) NO 45 0,000 mm 16,7 C 23,7 C 4,8 km/h (1 Bft) 100,00 %
27.09.2023 17:56 24,1 C 23,7 C 26,7 C 54 % 65 % 42 % 1019,0 hPa 0,0 l/m 4,8 km/h (1 Bft) NO 45 0,000 mm 16,7 C 23,7 C 6,4 km/h (2 Bft) 91,30 %
27.09.2023 17:55 24,1 C 23,7 C 26,7 C 54 % 65 % 41 % 1019,1 hPa 0,0 l/m 3,2 km/h (1 Bft) O 90 0,000 mm 16,7 C 23,7 C 4,8 km/h (1 Bft) 95,65 %
27.09.2023 17:54 24,1 C 23,8 C 26,7 C 54 % 65 % 41 % 1019,0 hPa 0,0 l/m 1,6 km/h (1 Bft) O-NO 67 0,000 mm 16,8 C 23,8 C 4,8 km/h (1 Bft) 95,65 %
27.09.2023 17:53 24,1 C 23,8 C 26,7 C 54 % 65 % 41 % 1019,1 hPa 0,0 l/m 1,6 km/h (1 Bft) O-NO 67 0,000 mm 16,8 C 23,8 C 3,2 km/h (1 Bft) 95,65 %
27.09.2023 17:52 24,1 C 23,8 C 26,7 C 54 % 65 % 40 % 1019,1 hPa 0,0 l/m 4,8 km/h (1 Bft) NO 45 0,000 mm 16,8 C 23,8 C 6,4 km/h (2 Bft) 100,00 %
27.09.2023 17:51 24,1 C 23,8 C 26,7 C 54 % 65 % 41 % 1019,1 hPa 0,0 l/m 4,8 km/h (1 Bft) NO 45 0,000 mm 16,8 C 23,8 C 8,0 km/h (2 Bft) 91,30 %
27.09.2023 17:50 24,1 C 23,8 C 26,7 C 54 % 65 % 40 % 1019,1 hPa 0,0 l/m 4,8 km/h (1 Bft) NO 45 0,000 mm 16,8 C 23,8 C 6,4 km/h (2 Bft) 100,00 %
27.09.2023 17:49 24,1 C 23,8 C 27,2 C 54 % 65 % 40 % 1019,1 hPa 0,0 l/m 3,2 km/h (1 Bft) NO 45 0,000 mm 16,8 C 23,8 C 4,8 km/h (1 Bft) 95,65 %
27.09.2023 17:48 24,2 C 23,8 C 27,2 C 54 % 65 % 40 % 1019,2 hPa 0,0 l/m 3,2 km/h (1 Bft) O-NO 67 0,000 mm 16,8 C 23,8 C 4,8 km/h (1 Bft) 100,00 %
27.09.2023 17:47 24,2 C 23,8 C 27,2 C 54 % 65 % 40 % 1019,2 hPa 0,0 l/m 3,2 km/h (1 Bft) NO 45 0,000 mm 16,8 C 23,8 C 6,4 km/h (2 Bft) 95,65 %
27.09.2023 17:46 24,2 C 23,8 C 27,2 C 54 % 64 % 40 % 1019,1 hPa 0,0 l/m 4,8 km/h (1 Bft) NO 45 0,000 mm 16,6 C 23,8 C 6,4 km/h (2 Bft) 95,65 %
27.09.2023 17:45 24,2 C 23,8 C 27,2 C 54 % 64 % 40 % 1019,1 hPa 0,0 l/m 6,4 km/h (2 Bft) NO 45 0,000 mm 16,6 C 23,8 C 8,0 km/h (2 Bft) 95,65 %
27.09.2023 17:44 24,2 C 23,8 C 27,2 C 54 % 65 % 39 % 1019,1 hPa 0,0 l/m 3,2 km/h (1 Bft) NO 45 0,000 mm 16,8 C 23,8 C 3,2 km/h (1 Bft) 95,65 %
27.09.2023 17:43 24,2 C 23,8 C 27,2 C 54 % 65 % 39 % 1019,3 hPa 0,0 l/m 3,2 km/h (1 Bft) NO 45 0,000 mm 16,8 C 23,8 C 4,8 km/h (1 Bft) 91,30 %
27.09.2023 17:42 24,2 C 23,9 C 27,2 C 54 % 64 % 39 % 1019,2 hPa 0,0 l/m 3,2 km/h (1 Bft) NO 45 0,000 mm 16,7 C 23,9 C 4,8 km/h (1 Bft) 100,00 %
27.09.2023 17:41 24,2 C 23,9 C 27,2 C 54 % 64 % 38 % 1019,2 hPa 0,0 l/m 6,4 km/h (2 Bft) NO 45 0,000 mm 16,7 C 23,9 C 8,0 km/h (2 Bft) 95,65 %
27.09.2023 17:40 24,2 C 24,0 C 27,2 C 54 % 65 % 38 % 1019,2 hPa 0,0 l/m 3,2 km/h (1 Bft) NO 45 0,000 mm 17,0 C 24,0 C 6,4 km/h (2 Bft) 95,65 %
27.09.2023 17:39 24,2 C 24,1 C 27,8 C 54 % 63 % 38 % 1019,2 hPa 0,0 l/m 3,2 km/h (1 Bft) NO 45 0,000 mm 16,6 C 24,1 C 4,8 km/h (1 Bft) 100,00 %
27.09.2023 17:38 24,2 C 24,2 C 27,8 C 54 % 63 % 38 % 1019,3 hPa 0,0 l/m 4,8 km/h (1 Bft) O-NO 67 0,000 mm 16,7 C 24,2 C 6,4 km/h (2 Bft) 95,65 %
27.09.2023 17:37 24,2 C 24,2 C 27,8 C 54 % 63 % 38 % 1019,2 hPa 0,0 l/m 6,4 km/h (2 Bft) NO 45 0,000 mm 16,7 C 24,2 C 8,0 km/h (2 Bft) 95,65 %
27.09.2023 17:36 24,2 C 24,3 C 27,8 C 54 % 63 % 38 % 1019,3 hPa 0,0 l/m 3,2 km/h (1 Bft) NO 45 0,000 mm 16,8 C 24,3 C 6,4 km/h (2 Bft) 95,65 %
27.09.2023 17:35 24,2 C 24,3 C 27,8 C 54 % 63 % 38 % 1019,3 hPa 0,0 l/m 4,8 km/h (1 Bft) O-NO 67 0,000 mm 16,8 C 24,3 C 6,4 km/h (2 Bft) 100,00 %
27.09.2023 17:34 24,2 C 24,3 C 27,8 C 53 % 62 % 37 % 1019,4 hPa 0,0 l/m 3,2 km/h (1 Bft) NO 45 0,000 mm 16,5 C 24,3 C 6,4 km/h (2 Bft) 95,65 %
27.09.2023 17:33 24,2 C 24,3 C 27,8 C 53 % 63 % 37 % 1019,3 hPa 0,0 l/m 4,8 km/h (1 Bft) NO 45 0,000 mm 16,8 C 24,3 C 9,7 km/h (2 Bft) 100,00 %
27.09.2023 17:32 24,2 C 24,4 C 27,8 C 53 % 62 % 38 % 1019,4 hPa 0,0 l/m 3,2 km/h (1 Bft) NO 45 0,000 mm 16,6 C 24,4 C 6,4 km/h (2 Bft) 95,65 %
27.09.2023 17:31 24,2 C 24,4 C 27,8 C 53 % 62 % 37 % 1019,4 hPa 0,0 l/m 3,2 km/h (1 Bft) NO 45 0,000 mm 16,6 C 24,4 C 6,4 km/h (2 Bft) 100,00 %
27.09.2023 17:30 24,2 C 24,4 C 27,8 C 53 % 62 % 37 % 1019,4 hPa 0,0 l/m 6,4 km/h (2 Bft) O-NO 67 0,000 mm 16,6 C 24,4 C 14,5 km/h (3 Bft) 91,30 %
27.09.2023 17:29 24,2 C 24,4 C 27,8 C 53 % 62 % 37 % 1019,3 hPa 0,0 l/m 3,2 km/h (1 Bft) O 90 0,000 mm 16,6 C 24,4 C 4,8 km/h (1 Bft) 100,00 %
27.09.2023 17:28 24,3 C 24,4 C 28,3 C 53 % 62 % 37 % 1019,4 hPa 0,0 l/m 3,2 km/h (1 Bft) O-NO 67 0,000 mm 16,6 C 24,4 C 4,8 km/h (1 Bft) 95,65 %
27.09.2023 17:27 24,3 C 24,4 C 28,3 C 53 % 62 % 37 % 1019,4 hPa 0,0 l/m 3,2 km/h (1 Bft) NO 45 0,000 mm 16,6 C 24,4 C 4,8 km/h (1 Bft) 100,00 %
27.09.2023 17:26 24,3 C 24,4 C 28,3 C 53 % 62 % 36 % 1019,4 hPa 0,0 l/m 1,6 km/h (1 Bft) NO 45 0,000 mm 16,6 C 24,4 C 3,2 km/h (1 Bft) 95,65 %
27.09.2023 17:25 24,3 C 24,4 C 28,3 C 53 % 61 % 36 % 1019,4 hPa 0,0 l/m 4,8 km/h (1 Bft) O-NO 67 0,000 mm 16,4 C 24,4 C 6,4 km/h (2 Bft) 100,00 %
27.09.2023 17:24 24,3 C 24,3 C 28,3 C 53 % 61 % 36 % 1019,5 hPa 0,0 l/m 4,8 km/h (1 Bft) NO 45 0,000 mm 16,3 C 24,3 C 6,4 km/h (2 Bft) 95,65 %
27.09.2023 17:23 24,3 C 24,3 C 28,3 C 53 % 61 % 36 % 1019,5 hPa 0,0 l/m 4,8 km/h (1 Bft) N-NO 22 0,000 mm 16,3 C 24,3 C 6,4 km/h (2 Bft) 91,30 %
27.09.2023 17:22 24,3 C 24,3 C 28,3 C 53 % 62 % 36 % 1019,4 hPa 0,0 l/m 4,8 km/h (1 Bft) O-NO 67 0,000 mm 16,5 C 24,3 C 9,7 km/h (2 Bft) 95,65 %
27.09.2023 17:21 24,3 C 24,3 C 28,3 C 53 % 62 % 36 % 1019,5 hPa 0,0 l/m 4,8 km/h (1 Bft) NO 45 0,000 mm 16,5 C 24,3 C 8,0 km/h (2 Bft) 91,30 %
27.09.2023 17:20 24,3 C 24,3 C 28,3 C 53 % 61 % 36 % 1019,4 hPa 0,0 l/m 4,8 km/h (1 Bft) NO 45 0,000 mm 16,3 C 24,3 C 8,0 km/h (2 Bft) 100,00 %
27.09.2023 17:19 24,3 C 24,3 C 28,3 C 53 % 62 % 35 % 1019,5 hPa 0,0 l/m 6,4 km/h (2 Bft) O-NO 67 0,000 mm 16,5 C 24,3 C 12,9 km/h (3 Bft) 91,30 %
27.09.2023 17:18 24,3 C 24,3 C 28,3 C 53 % 61 % 35 % 1019,5 hPa 0,0 l/m 3,2 km/h (1 Bft) O-NO 67 0,000 mm 16,3 C 24,3 C 8,0 km/h (2 Bft) 100,00 %
27.09.2023 17:17 24,3 C 24,3 C 28,3 C 53 % 61 % 35 % 1019,6 hPa 0,0 l/m 3,2 km/h (1 Bft) NO 45 0,000 mm 16,3 C 24,3 C 4,8 km/h (1 Bft) 95,65 %
27.09.2023 17:16 24,3 C 24,3 C 28,3 C 53 % 61 % 35 % 1019,5 hPa 0,0 l/m 4,8 km/h (1 Bft) NO 45 0,000 mm 16,3 C 24,3 C 9,7 km/h (2 Bft) 100,00 %
27.09.2023 17:15 24,3 C 24,4 C 28,9 C 53 % 61 % 35 % 1019,6 hPa 0,0 l/m 8,0 km/h (2 Bft) NO 45 0,000 mm 16,4 C 24,4 C 11,3 km/h (2 Bft) 91,30 %
27.09.2023 17:14 24,3 C 24,5 C 28,9 C 53 % 60 % 36 % 1019,6 hPa 0,0 l/m 6,4 km/h (2 Bft) NO 45 0,000 mm 16,2 C 24,5 C 9,7 km/h (2 Bft) 100,00 %
27.09.2023 17:13 24,3 C 24,6 C 28,9 C 53 % 60 % 36 % 1019,6 hPa 0,0 l/m 6,4 km/h (2 Bft) O-NO 67 0,000 mm 16,3 C 24,6 C 12,9 km/h (3 Bft) 95,65 %
27.09.2023 17:12 24,3 C 24,6 C 28,9 C 53 % 60 % 36 % 1019,6 hPa 0,0 l/m 4,8 km/h (1 Bft) NO 45 0,000 mm 16,3 C 24,6 C 6,4 km/h (2 Bft) 100,00 %
27.09.2023 17:11 24,3 C 24,6 C 28,9 C 53 % 61 % 36 % 1019,6 hPa 0,0 l/m 3,2 km/h (1 Bft) O-NO 67 0,000 mm 16,6 C 24,6 C 8,0 km/h (2 Bft) 95,65 %
27.09.2023 17:10 24,3 C 24,6 C 28,9 C 53 % 60 % 35 % 1019,6 hPa 0,0 l/m 3,2 km/h (1 Bft) O-NO 67 0,000 mm 16,3 C 24,6 C 4,8 km/h (1 Bft) 100,00 %
27.09.2023 17:09 24,4 C 24,6 C 28,9 C 53 % 60 % 34 % 1019,6 hPa 0,0 l/m 4,8 km/h (1 Bft) O-NO 67 0,000 mm 16,3 C 24,6 C 6,4 km/h (2 Bft) 91,30 %
27.09.2023 17:08 24,4 C 24,6 C 28,9 C 53 % 60 % 34 % 1019,7 hPa 0,0 l/m 6,4 km/h (2 Bft) O-NO 67 0,000 mm 16,3 C 24,6 C 8,0 km/h (2 Bft) 91,30 %
27.09.2023 17:07 24,4 C 24,7 C 28,9 C 53 % 59 % 34 % 1019,6 hPa 0,0 l/m 4,8 km/h (1 Bft) NO 45 0,000 mm 16,1 C 24,7 C 8,0 km/h (2 Bft) 26,09 %
27.09.2023 17:06 24,4 C 24,7 C 28,9 C 53 % 59 % 35 % 1019,6 hPa 0,0 l/m 11,3 km/h (2 Bft) O-NO 67 0,000 mm 16,1 C 24,7 C 14,5 km/h (3 Bft) 30,43 %
27.09.2023 17:05 24,4 C 24,7 C 28,9 C 53 % 59 % 35 % 1019,8 hPa 0,0 l/m 6,4 km/h (2 Bft) O-NO 67 0,000 mm 16,1 C 24,7 C 14,5 km/h (3 Bft) 95,65 %
27.09.2023 17:04 24,4 C 24,8 C 28,9 C 53 % 58 % 33 % 1019,6 hPa 0,0 l/m 3,2 km/h (1 Bft) NO 45 0,000 mm 16,0 C 24,8 C 6,4 km/h (2 Bft) 95,65 %
27.09.2023 17:03 24,4 C 24,8 C 28,9 C 53 % 58 % 34 % 1019,7 hPa 0,0 l/m 4,8 km/h (1 Bft) O-NO 67 0,000 mm 16,0 C 24,8 C 8,0 km/h (2 Bft) 100,00 %
27.09.2023 17:02 24,4 C 24,9 C 28,9 C 53 % 59 % 34 % 1019,7 hPa 0,0 l/m 8,0 km/h (2 Bft) O-NO 67 0,000 mm 16,3 C 24,9 C 16,1 km/h (3 Bft) 95,65 %
27.09.2023 17:01 24,4 C 25,0 C 28,9 C 53 % 59 % 34 % 1019,6 hPa 0,0 l/m 8,0 km/h (2 Bft) NO 45 0,000 mm 16,4 C 25,0 C 12,9 km/h (3 Bft) 91,30 %
27.09.2023 17:00 24,4 C 25,1 C 28,9 C 53 % 59 % 34 % 1019,7 hPa 0,0 l/m 6,4 km/h (2 Bft) O-NO 67 0,000 mm 16,5 C 25,1 C 11,3 km/h (2 Bft) 95,65 %
27.09.2023 16:59 24,4 C 25,1 C 28,9 C 53 % 59 % 33 % 1019,7 hPa 0,0 l/m 8,0 km/h (2 Bft) O-NO 67 0,000 mm 16,5 C 25,1 C 12,9 km/h (3 Bft) 100,00 %
27.09.2023 16:58 24,4 C 25,1 C 28,9 C 53 % 58 % 33 % 1019,8 hPa 0,0 l/m 8,0 km/h (2 Bft) O-NO 67 0,000 mm 16,2 C 25,1 C 16,1 km/h (3 Bft) 91,30 %
27.09.2023 16:57 24,4 C 25,1 C 29,4 C 53 % 59 % 34 % 1019,8 hPa 0,0 l/m 6,4 km/h (2 Bft) NO 45 0,000 mm 16,5 C 25,1 C 12,9 km/h (3 Bft) 100,00 %
27.09.2023 16:56 24,4 C 25,1 C 29,4 C 53 % 58 % 33 % 1019,8 hPa 0,0 l/m 6,4 km/h (2 Bft) NO 45 0,000 mm 16,2 C 25,1 C 9,7 km/h (2 Bft) 91,30 %
27.09.2023 16:55 24,4 C 25,1 C 29,4 C 53 % 59 % 33 % 1019,8 hPa 0,0 l/m 4,8 km/h (1 Bft) NO 45 0,000 mm 16,5 C 25,1 C 6,4 km/h (2 Bft) 95,65 %
27.09.2023 16:54 24,4 C 25,1 C 29,4 C 53 % 59 % 34 % 1019,8 hPa 0,0 l/m 6,4 km/h (2 Bft) NO 45 0,000 mm 16,5 C 25,1 C 12,9 km/h (3 Bft) 91,30 %
27.09.2023 16:53 24,4 C 25,0 C 29,4 C 53 % 58 % 34 % 1019,8 hPa 0,0 l/m 4,8 km/h (1 Bft) O-NO 67 0,000 mm 16,1 C 25,0 C 8,0 km/h (2 Bft) 100,00 %
27.09.2023 16:52 24,5 C 25,0 C 29,4 C 53 % 58 % 33 % 1019,7 hPa 0,0 l/m 8,0 km/h (2 Bft) O-NO 67 0,000 mm 16,1 C 25,0 C 12,9 km/h (3 Bft) 91,30 %
27.09.2023 16:51 24,4 C 25,0 C 29,4 C 53 % 59 % 33 % 1019,8 hPa 0,0 l/m 8,0 km/h (2 Bft) NO 45 0,000 mm 16,4 C 25,0 C 14,5 km/h (3 Bft) 91,30 %
27.09.2023 16:50 24,5 C 25,0 C 29,4 C 53 % 58 % 34 % 1019,8 hPa 0,0 l/m 6,4 km/h (2 Bft) O 90 0,000 mm 16,1 C 25,0 C 9,7 km/h (2 Bft) 100,00 %
27.09.2023 16:49 24,5 C 25,0 C 29,4 C 53 % 59 % 33 % 1019,8 hPa 0,0 l/m 6,4 km/h (2 Bft) O 90 0,000 mm 16,4 C 25,0 C 11,3 km/h (2 Bft) 91,30 %
27.09.2023 16:48 24,5 C 24,9 C 29,4 C 53 % 57 % 34 % 1019,8 hPa 0,0 l/m 4,8 km/h (1 Bft) O-SO 112 0,000 mm 15,8 C 24,9 C 9,7 km/h (2 Bft) 100,00 %
27.09.2023 16:47 24,5 C 24,9 C 29,4 C 53 % 58 % 33 % 1019,8 hPa 0,0 l/m 6,4 km/h (2 Bft) NO 45 0,000 mm 16,1 C 24,9 C 12,9 km/h (3 Bft) 82,61 %
27.09.2023 16:46 24,5 C 25,0 C 29,4 C 53 % 57 % 33 % 1019,8 hPa 0,0 l/m 4,8 km/h (1 Bft) NO 45 0,000 mm 15,9 C 25,0 C 9,7 km/h (2 Bft) 100,00 %
27.09.2023 16:45 24,5 C 25,0 C 29,4 C 53 % 57 % 33 % 1019,9 hPa 0,0 l/m 8,0 km/h (2 Bft) NO 45 0,000 mm 15,9 C 25,0 C 14,5 km/h (3 Bft) 91,30 %
27.09.2023 16:44 24,6 C 25,0 C 29,4 C 53 % 58 % 33 % 1019,9 hPa 0,0 l/m 6,4 km/h (2 Bft) O-NO 67 0,000 mm 16,1 C 25,0 C 11,3 km/h (2 Bft) 100,00 %
27.09.2023 16:43 24,6 C 25,0 C 29,4 C 53 % 57 % 33 % 1019,9 hPa 0,0 l/m 6,4 km/h (2 Bft) NO 45 0,000 mm 15,9 C 25,0 C 12,9 km/h (3 Bft) 95,65 %
27.09.2023 16:42 24,6 C 25,1 C 29,4 C 53 % 59 % 33 % 1019,8 hPa 0,0 l/m 9,7 km/h (2 Bft) O-NO 67 0,000 mm 16,5 C 25,1 C 14,5 km/h (3 Bft) 95,65 %
27.09.2023 16:41 24,6 C 25,1 C 29,4 C 53 % 59 % 33 % 1019,8 hPa 0,0 l/m 12,9 km/h (3 Bft) NO 45 0,000 mm 16,5 C 25,1 C 16,1 km/h (3 Bft) 100,00 %
27.09.2023 16:40 24,6 C 25,1 C 29,4 C 53 % 57 % 32 % 1019,9 hPa 0,0 l/m 8,0 km/h (2 Bft) O-NO 67 0,000 mm 16,0 C 25,1 C 12,9 km/h (3 Bft) 91,30 %
27.09.2023 16:39 24,6 C 25,1 C 30,0 C 53 % 58 % 32 % 1019,8 hPa 0,0 l/m 9,7 km/h (2 Bft) O-NO 67 0,000 mm 16,2 C 25,1 C 19,3 km/h (3 Bft) 100,00 %
27.09.2023 16:38 24,6 C 25,2 C 30,0 C 53 % 58 % 33 % 1019,9 hPa 0,0 l/m 12,9 km/h (3 Bft) NO 45 0,000 mm 16,3 C 25,2 C 19,3 km/h (3 Bft) 95,65 %
27.09.2023 16:37 24,6 C 25,2 C 30,0 C 53 % 58 % 34 % 1019,9 hPa 0,0 l/m 8,0 km/h (2 Bft) NO 45 0,000 mm 16,3 C 25,2 C 12,9 km/h (3 Bft) 100,00 %
27.09.2023 16:36 24,6 C 25,2 C 30,0 C 53 % 57 % 33 % 1019,8 hPa 0,0 l/m 8,0 km/h (2 Bft) O-NO 67 0,000 mm 16,1 C 25,2 C 12,9 km/h (3 Bft) 95,65 %
27.09.2023 16:35 24,6 C 25,2 C 30,0 C 53 % 59 % 33 % 1019,8 hPa 0,0 l/m 4,8 km/h (1 Bft) NO 45 0,000 mm 16,6 C 25,2 C 9,7 km/h (2 Bft) 91,30 %
27.09.2023 16:34 24,6 C 25,2 C 30,0 C 53 % 58 % 34 % 1019,9 hPa 0,0 l/m 3,2 km/h (1 Bft) O-NO 67 0,000 mm 16,3 C 25,2 C 4,8 km/h (1 Bft) 100,00 %
27.09.2023 16:33 24,6 C 25,2 C 30,0 C 53 % 59 % 34 % 1019,9 hPa 0,0 l/m 6,4 km/h (2 Bft) O-NO 67 0,000 mm 16,6 C 25,2 C 11,3 km/h (2 Bft) 86,96 %
27.09.2023 16:32 24,6 C 25,2 C 30,0 C 53 % 60 % 35 % 1020,0 hPa 0,0 l/m 9,7 km/h (2 Bft) O-NO 67 0,000 mm 16,9 C 25,2 C 14,5 km/h (3 Bft) 100,00 %
27.09.2023 16:31 24,6 C 25,2 C 30,0 C 53 % 60 % 35 % 1020,0 hPa 0,0 l/m 6,4 km/h (2 Bft) O-NO 67 0,000 mm 16,9 C 25,2 C 11,3 km/h (2 Bft) 91,30 %
27.09.2023 16:30 24,6 C 25,2 C 30,0 C 53 % 59 % 34 % 1020,0 hPa 0,0 l/m 3,2 km/h (1 Bft) O-NO 67 0,000 mm 16,6 C 25,2 C 6,4 km/h (2 Bft) 100,00 %
27.09.2023 16:29 24,6 C 25,2 C 30,0 C 53 % 59 % 33 % 1020,0 hPa 0,0 l/m 4,8 km/h (1 Bft) O-SO 112 0,000 mm 16,6 C 25,2 C 8,0 km/h (2 Bft) 95,65 %
27.09.2023 16:28 24,7 C 25,2 C 30,0 C 53 % 60 % 33 % 1020,0 hPa 0,0 l/m 4,8 km/h (1 Bft) NO 45 0,000 mm 16,9 C 25,2 C 8,0 km/h (2 Bft) 100,00 %
27.09.2023 16:27 24,7 C 25,2 C 30,0 C 53 % 60 % 33 % 1020,0 hPa 0,0 l/m 9,7 km/h (2 Bft) O-NO 67 0,000 mm 16,9 C 25,2 C 14,5 km/h (3 Bft) 95,65 %
27.09.2023 16:26 24,7 C 25,1 C 30,0 C 53 % 59 % 33 % 1020,0 hPa 0,0 l/m 9,7 km/h (2 Bft) NO 45 0,000 mm 16,5 C 25,1 C 17,7 km/h (3 Bft) 91,30 %
27.09.2023 16:25 24,7 C 25,2 C 30,0 C 53 % 60 % 34 % 1020,0 hPa 0,0 l/m 11,3 km/h (2 Bft) NO 45 0,000 mm 16,9 C 25,2 C 17,7 km/h (3 Bft) 100,00 %
27.09.2023 16:24 24,7 C 25,1 C 30,0 C 53 % 60 % 34 % 1020,0 hPa 0,0 l/m 8,0 km/h (2 Bft) O-NO 67 0,000 mm 16,8 C 25,1 C 14,5 km/h (3 Bft) 91,30 %
27.09.2023 16:23 24,7 C 25,1 C 30,0 C 53 % 60 % 34 % 1020,0 hPa 0,0 l/m 6,4 km/h (2 Bft) O-NO 67 0,000 mm 16,8 C 25,1 C 9,7 km/h (2 Bft) 100,00 %
27.09.2023 16:22 24,7 C 25,1 C 30,0 C 53 % 60 % 34 % 1020,1 hPa 0,0 l/m 3,2 km/h (1 Bft) NO 45 0,000 mm 16,8 C 25,1 C 6,4 km/h (2 Bft) 95,65 %
27.09.2023 16:21 24,7 C 25,2 C 30,0 C 53 % 62 % 35 % 1020,1 hPa 0,0 l/m 9,7 km/h (2 Bft) NO 45 0,000 mm 17,4 C 25,2 C 14,5 km/h (3 Bft) 95,65 %
27.09.2023 16:20 24,7 C 25,2 C 30,0 C 53 % 61 % 34 % 1020,1 hPa 0,0 l/m 8,0 km/h (2 Bft) O-NO 67 0,000 mm 17,1 C 25,2 C 14,5 km/h (3 Bft) 100,00 %
27.09.2023 16:19 24,7 C 25,3 C 30,0 C 53 % 60 % 34 % 1020,1 hPa 0,0 l/m 8,0 km/h (2 Bft) O-NO 67 0,000 mm 17,0 C 25,3 C 9,7 km/h (2 Bft) 95,65 %
27.09.2023 16:18 24,7 C 25,2 C 30,0 C 53 % 61 % 35 % 1020,1 hPa 0,0 l/m 11,3 km/h (2 Bft) O-NO 67 0,000 mm 17,1 C 25,2 C 14,5 km/h (3 Bft) 100,00 %
27.09.2023 16:17 24,7 C 25,3 C 30,0 C 53 % 60 % 34 % 1020,1 hPa 0,0 l/m 9,7 km/h (2 Bft) NO 45 0,000 mm 17,0 C 25,3 C 14,5 km/h (3 Bft) 100,00 %
27.09.2023 16:16 24,7 C 25,3 C 30,0 C 53 % 62 % 35 % 1020,1 hPa 0,0 l/m 9,7 km/h (2 Bft) O-NO 67 0,000 mm 17,5 C 25,3 C 14,5 km/h (3 Bft) 95,65 %
27.09.2023 16:15 24,7 C 25,3 C 30,0 C 53 % 62 % 35 % 1020,1 hPa 0,0 l/m 8,0 km/h (2 Bft) O 90 0,000 mm 17,5 C 25,3 C 11,3 km/h (2 Bft) 100,00 %
27.09.2023 16:14 24,8 C 25,3 C 30,0 C 53 % 62 % 35 % 1020,1 hPa 0,0 l/m 8,0 km/h (2 Bft) NO 45 0,000 mm 17,5 C 25,3 C 12,9 km/h (3 Bft) 95,65 %
27.09.2023 16:13 24,8 C 25,2 C 30,0 C 53 % 63 % 35 % 1020,1 hPa 0,0 l/m 4,8 km/h (1 Bft) NO 45 0,000 mm 17,6 C 25,2 C 8,0 km/h (2 Bft) 95,65 %
27.09.2023 16:12 24,8 C 25,2 C 30,0 C 52 % 63 % 35 % 1020,2 hPa 0,0 l/m 6,4 km/h (2 Bft) NO 45 0,000 mm 17,6 C 25,2 C 8,0 km/h (2 Bft) 95,65 %
27.09.2023 16:11 24,8 C 25,2 C 30,0 C 52 % 62 % 35 % 1020,1 hPa 0,0 l/m 3,2 km/h (1 Bft) NO 45 0,000 mm 17,4 C 25,2 C 6,4 km/h (2 Bft) 100,00 %
27.09.2023 16:10 24,8 C 25,1 C 30,0 C 52 % 62 % 35 % 1020,2 hPa 0,0 l/m 6,4 km/h (2 Bft) NO 45 0,000 mm 17,3 C 25,1 C 8,0 km/h (2 Bft) 95,65 %
27.09.2023 16:09 24,8 C 25,1 C 30,0 C 52 % 62 % 35 % 1020,3 hPa 0,0 l/m 9,7 km/h (2 Bft) NO 45 0,000 mm 17,3 C 25,1 C 16,1 km/h (3 Bft) 100,00 %
27.09.2023 16:08 24,8 C 25,1 C 30,0 C 52 % 62 % 36 % 1020,2 hPa 0,0 l/m 8,0 km/h (2 Bft) O-NO 67 0,000 mm 17,3 C 25,1 C 14,5 km/h (3 Bft) 95,65 %
27.09.2023 16:07 24,8 C 25,2 C 30,0 C 52 % 63 % 35 % 1020,1 hPa 0,0 l/m 6,4 km/h (2 Bft) NO 45 0,000 mm 17,6 C 25,2 C 9,7 km/h (2 Bft) 100,00 %
27.09.2023 16:06 24,8 C 25,2 C 30,0 C 52 % 62 % 36 % 1020,2 hPa 0,0 l/m 6,4 km/h (2 Bft) N-NO 22 0,000 mm 17,4 C 25,2 C 9,7 km/h (2 Bft) 91,30 %
27.09.2023 16:05 24,8 C 25,2 C 30,0 C 52 % 63 % 36 % 1020,3 hPa 0,0 l/m 6,4 km/h (2 Bft) O-NO 67 0,000 mm 17,6 C 25,2 C 12,9 km/h (3 Bft) 95,65 %
27.09.2023 16:04 24,8 C 25,3 C 30,0 C 52 % 63 % 36 % 1020,2 hPa 0,0 l/m 8,0 km/h (2 Bft) NO 45 0,000 mm 17,7 C 25,3 C 11,3 km/h (2 Bft) 100,00 %
27.09.2023 16:03 24,8 C 25,3 C 30,0 C 52 % 63 % 36 % 1020,2 hPa 0,0 l/m 9,7 km/h (2 Bft) NO 45 0,000 mm 17,7 C 25,3 C 16,1 km/h (3 Bft) 100,00 %
27.09.2023 16:02 24,8 C 25,4 C 30,0 C 52 % 64 % 36 % 1020,3 hPa 0,0 l/m 4,8 km/h (1 Bft) NO 45 0,000 mm 18,1 C 25,4 C 8,0 km/h (2 Bft) 100,00 %
27.09.2023 16:01 24,9 C 25,4 C 30,0 C 52 % 65 % 36 % 1020,2 hPa 0,0 l/m 6,4 km/h (2 Bft) O-NO 67 0,000 mm 18,3 C 25,4 C 9,7 km/h (2 Bft) 100,00 %
27.09.2023 16:00 24,9 C 25,3 C 30,0 C 52 % 64 % 37 % 1020,3 hPa 0,0 l/m 4,8 km/h (1 Bft) N-NO 22 0,000 mm 18,0 C 25,3 C 9,7 km/h (2 Bft) 100,00 %
27.09.2023 15:59 24,9 C 25,2 C 30,0 C 52 % 64 % 36 % 1020,3 hPa 0,0 l/m 6,4 km/h (2 Bft) NO 45 0,000 mm 17,9 C 25,2 C 14,5 km/h (3 Bft) 100,00 %
27.09.2023 15:58 24,9 C 25,2 C 30,0 C 52 % 63 % 36 % 1020,4 hPa 0,0 l/m 6,4 km/h (2 Bft) NO 45 0,000 mm 17,6 C 25,2 C 9,7 km/h (2 Bft) 95,65 %
27.09.2023 15:57 24,9 C 25,2 C 30,0 C 52 % 64 % 37 % 1020,4 hPa 0,0 l/m 3,2 km/h (1 Bft) NO 45 0,000 mm 17,9 C 25,2 C 4,8 km/h (1 Bft) 100,00 %
27.09.2023 15:56 24,9 C 25,3 C 30,0 C 52 % 63 % 37 % 1020,4 hPa 0,0 l/m 3,2 km/h (1 Bft) O-SO 112 0,000 mm 17,7 C 25,3 C 4,8 km/h (1 Bft) 100,00 %
27.09.2023 15:55 24,9 C 25,3 C 30,0 C 52 % 64 % 37 % 1020,5 hPa 0,0 l/m 4,8 km/h (1 Bft) O-NO 67 0,000 mm 18,0 C 25,3 C 9,7 km/h (2 Bft) 100,00 %
27.09.2023 15:54 24,9 C 25,4 C 30,0 C 52 % 63 % 37 % 1020,4 hPa 0,0 l/m 4,8 km/h (1 Bft) NO 45 0,000 mm 17,8 C 25,4 C 8,0 km/h (2 Bft) 100,00 %
27.09.2023 15:53 24,9 C 25,4 C 30,0 C 52 % 64 % 37 % 1020,4 hPa 0,0 l/m 6,4 km/h (2 Bft) NO 45 0,000 mm 18,1 C 25,4 C 11,3 km/h (2 Bft) 100,00 %
27.09.2023 15:52 24,9 C 25,4 C 30,0 C 52 % 65 % 37 % 1020,4 hPa 0,0 l/m 6,4 km/h (2 Bft) O-NO 67 0,000 mm 18,3 C 25,4 C 9,7 km/h (2 Bft) 100,00 %
27.09.2023 15:51 25,0 C 25,3 C 30,0 C 52 % 65 % 37 % 1020,4 hPa 0,0 l/m 4,8 km/h (1 Bft) O-NO 67 0,000 mm 18,2 C 25,3 C 8,0 km/h (2 Bft) 95,65 %
27.09.2023 15:50 25,0 C 25,2 C 30,0 C 52 % 64 % 37 % 1020,4 hPa 0,0 l/m 3,2 km/h (1 Bft) O-NO 67 0,000 mm 17,9 C 25,2 C 4,8 km/h (1 Bft) 95,65 %
27.09.2023 15:49 25,0 C 25,1 C 30,0 C 52 % 64 % 37 % 1020,5 hPa 0,0 l/m 1,6 km/h (1 Bft) O 90 0,000 mm 17,8 C 25,1 C 3,2 km/h (1 Bft) 100,00 %
27.09.2023 15:48 25,0 C 25,1 C 30,0 C 52 % 63 % 37 % 1020,5 hPa 0,0 l/m 3,2 km/h (1 Bft) O-SO 112 0,000 mm 17,5 C 25,1 C 4,8 km/h (1 Bft) 95,65 %
27.09.2023 15:47 25,0 C 25,1 C 30,0 C 52 % 64 % 37 % 1020,6 hPa 0,0 l/m 3,2 km/h (1 Bft) S-SO 157 0,000 mm 17,8 C 25,1 C 6,4 km/h (2 Bft) 100,00 %
27.09.2023 15:46 25,0 C 25,1 C 30,0 C 52 % 63 % 37 % 1020,6 hPa 0,0 l/m 6,4 km/h (2 Bft) O-NO 67 0,000 mm 17,5 C 25,1 C 9,7 km/h (2 Bft) 100,00 %
27.09.2023 15:45 25,1 C 25,1 C 30,0 C 52 % 65 % 37 % 1020,6 hPa 0,0 l/m 9,7 km/h (2 Bft) O 90 0,000 mm 18,0 C 25,1 C 14,5 km/h (3 Bft) 100,00 %
27.09.2023 15:44 25,1 C 25,1 C 30,0 C 52 % 64 % 37 % 1020,5 hPa 0,0 l/m 8,0 km/h (2 Bft) NO 45 0,000 mm 17,8 C 25,1 C 14,5 km/h (3 Bft) 95,65 %
27.09.2023 15:43 25,1 C 25,0 C 30,0 C 52 % 65 % 37 % 1020,5 hPa 0,0 l/m 4,8 km/h (1 Bft) NO 45 0,000 mm 17,9 C 25,0 C 8,0 km/h (2 Bft) 100,00 %
27.09.2023 15:42 25,1 C 24,9 C 30,0 C 52 % 64 % 37 % 1020,6 hPa 0,0 l/m 6,4 km/h (2 Bft) N 360 0,000 mm 17,6 C 24,9 C 8,0 km/h (2 Bft) 100,00 %
27.09.2023 15:41 25,1 C 24,8 C 30,0 C 52 % 63 % 37 % 1020,7 hPa 0,0 l/m 3,2 km/h (1 Bft) O-NO 67 0,000 mm 17,3 C 24,8 C 8,0 km/h (2 Bft) 100,00 %
27.09.2023 15:40 25,1 C 24,9 C 30,0 C 52 % 63 % 37 % 1020,6 hPa 0,0 l/m 1,6 km/h (1 Bft) N-NO 22 0,000 mm 17,4 C 24,9 C 4,8 km/h (1 Bft) 100,00 %
27.09.2023 15:39 25,1 C 24,9 C 30,0 C 52 % 62 % 37 % 1020,7 hPa 0,0 l/m 0,0 km/h (0 Bft) N-NO 22 0,000 mm 17,1 C 24,9 C 1,6 km/h (1 Bft) 100,00 %
27.09.2023 15:38 25,1 C 24,9 C 30,0 C 52 % 62 % 37 % 1021,0 hPa 0,0 l/m 0,0 km/h (0 Bft) N-NO 22 0,000 mm 17,1 C 24,9 C 1,6 km/h (1 Bft) 95,65 %
27.09.2023 15:37 25,1 C 24,9 C 30,0 C 52 % 63 % 36 % 1020,8 hPa 0,0 l/m 1,6 km/h (1 Bft) N-NO 22 0,000 mm 17,4 C 24,9 C 6,4 km/h (2 Bft) 95,65 %
27.09.2023 15:36 25,1 C 24,9 C 30,0 C 52 % 64 % 36 % 1020,8 hPa 0,0 l/m 4,8 km/h (1 Bft) N-NO 22 0,000 mm 17,6 C 24,9 C 6,4 km/h (2 Bft) 95,65 %
27.09.2023 15:35 25,1 C 24,9 C 30,0 C 52 % 63 % 36 % 1020,8 hPa 0,0 l/m 4,8 km/h (1 Bft) O-NO 67 0,000 mm 17,4 C 24,9 C 6,4 km/h (2 Bft) 100,00 %
27.09.2023 15:34 25,2 C 24,9 C 30,0 C 52 % 63 % 36 % 1020,9 hPa 0,0 l/m 1,6 km/h (1 Bft) NO 45 0,000 mm 17,4 C 24,9 C 4,8 km/h (1 Bft) 100,00 %
27.09.2023 15:33 25,2 C 25,0 C 30,0 C 52 % 65 % 36 % 1020,9 hPa 0,0 l/m 3,2 km/h (1 Bft) NO 45 0,000 mm 17,9 C 25,0 C 8,0 km/h (2 Bft) 100,00 %
27.09.2023 15:32 25,2 C 24,9 C 30,0 C 52 % 63 % 36 % 1020,9 hPa 0,0 l/m 6,4 km/h (2 Bft) NO 45 0,000 mm 17,4 C 24,9 C 8,0 km/h (2 Bft) 100,00 %
27.09.2023 15:31 25,2 C 24,9 C 30,0 C 52 % 63 % 36 % 1020,8 hPa 0,0 l/m 6,4 km/h (2 Bft) O-NO 67 0,000 mm 17,4 C 24,9 C 9,7 km/h (2 Bft) 100,00 %
27.09.2023 15:30 25,2 C 24,9 C 30,0 C 52 % 63 % 36 % 1020,9 hPa 0,0 l/m 8,0 km/h (2 Bft) NO 45 0,000 mm 17,4 C 24,9 C 9,7 km/h (2 Bft) 95,65 %
27.09.2023 15:29 25,2 C 25,0 C 30,0 C 52 % 62 % 36 % 1020,8 hPa 0,0 l/m 6,4 km/h (2 Bft) O-NO 67 0,000 mm 17,2 C 25,0 C 9,7 km/h (2 Bft) 100,00 %
27.09.2023 15:28 25,3 C 25,0 C 30,0 C 52 % 64 % 36 % 1020,9 hPa 0,0 l/m 6,4 km/h (2 Bft) N-NO 22 0,000 mm 17,7 C 25,0 C 8,0 km/h (2 Bft) 100,00 %
27.09.2023 15:27 25,3 C 25,1 C 30,0 C 52 % 63 % 36 % 1020,9 hPa 0,0 l/m 8,0 km/h (2 Bft) NO 45 0,000 mm 17,5 C 25,1 C 14,5 km/h (3 Bft) 100,00 %
27.09.2023 15:26 25,3 C 25,1 C 30,0 C 52 % 63 % 37 % 1021,0 hPa 0,0 l/m 4,8 km/h (1 Bft) O-NO 67 0,000 mm 17,5 C 25,1 C 11,3 km/h (2 Bft) 100,00 %
27.09.2023 15:25 25,3 C 25,0 C 30,0 C 52 % 63 % 36 % 1021,0 hPa 0,0 l/m 4,8 km/h (1 Bft) O-NO 67 0,000 mm 17,5 C 25,0 C 6,4 km/h (2 Bft) 91,30 %
27.09.2023 15:24 25,3 C 25,1 C 30,0 C 52 % 63 % 36 % 1021,0 hPa 0,0 l/m 3,2 km/h (1 Bft) N-NO 22 0,000 mm 17,5 C 25,1 C 4,8 km/h (1 Bft) 100,00 %
27.09.2023 15:23 25,3 C 25,1 C 30,0 C 51 % 64 % 37 % 1021,0 hPa 0,0 l/m 4,8 km/h (1 Bft) N 360 0,000 mm 17,8 C 25,1 C 6,4 km/h (2 Bft) 86,96 %
27.09.2023 15:22 25,3 C 25,1 C 29,4 C 51 % 65 % 37 % 1021,1 hPa 0,0 l/m 4,8 km/h (1 Bft) O-NO 67 0,000 mm 18,0 C 25,1 C 8,0 km/h (2 Bft) 100,00 %
27.09.2023 15:21 25,3 C 25,0 C 29,4 C 51 % 65 % 37 % 1021,1 hPa 0,0 l/m 6,4 km/h (2 Bft) NO 45 0,000 mm 17,9 C 25,0 C 9,7 km/h (2 Bft) 100,00 %
27.09.2023 15:20 25,3 C 24,9 C 29,4 C 51 % 64 % 37 % 1021,0 hPa 0,0 l/m 4,8 km/h (1 Bft) NO 45 0,000 mm 17,6 C 24,9 C 9,7 km/h (2 Bft) 100,00 %
27.09.2023 15:19 25,3 C 24,9 C 29,4 C 51 % 64 % 37 % 1021,0 hPa 0,0 l/m 4,8 km/h (1 Bft) NO 45 0,000 mm 17,6 C 24,9 C 8,0 km/h (2 Bft) 91,30 %
27.09.2023 15:18 25,4 C 24,9 C 29,4 C 51 % 65 % 37 % 1021,1 hPa 0,0 l/m 6,4 km/h (2 Bft) NO 45 0,000 mm 17,9 C 24,9 C 11,3 km/h (2 Bft) 100,00 %
27.09.2023 15:17 25,4 C 24,9 C 29,4 C 51 % 65 % 37 % 1021,0 hPa 0,0 l/m 8,0 km/h (2 Bft) O-NO 67 0,000 mm 17,9 C 24,9 C 14,5 km/h (3 Bft) 100,00 %
27.09.2023 15:16 25,4 C 24,9 C 29,4 C 51 % 64 % 37 % 1021,1 hPa 0,0 l/m 3,2 km/h (1 Bft) NO 45 0,000 mm 17,6 C 24,9 C 6,4 km/h (2 Bft) 95,65 %
27.09.2023 15:15 25,4 C 24,9 C 29,4 C 51 % 65 % 37 % 1021,2 hPa 0,0 l/m 3,2 km/h (1 Bft) N-NO 22 0,000 mm 17,9 C 24,9 C 6,4 km/h (2 Bft) 100,00 %
27.09.2023 15:14 25,4 C 24,8 C 29,4 C 51 % 64 % 37 % 1021,2 hPa 0,0 l/m 1,6 km/h (1 Bft) SO 135 0,000 mm 17,5 C 24,8 C 4,8 km/h (1 Bft) 91,30 %
27.09.2023 15:13 25,4 C 24,8 C 29,4 C 51 % 64 % 37 % 1021,1 hPa 0,0 l/m 6,4 km/h (2 Bft) O 90 0,000 mm 17,5 C 24,8 C 11,3 km/h (2 Bft) 100,00 %
27.09.2023 15:12 25,5 C 24,8 C 29,4 C 51 % 65 % 38 % 1021,2 hPa 0,0 l/m 4,8 km/h (1 Bft) N-NO 22 0,000 mm 17,8 C 24,8 C 6,4 km/h (2 Bft) 95,65 %
27.09.2023 15:11 25,5 C 24,8 C 29,4 C 51 % 64 % 39 % 1021,2 hPa 0,0 l/m 3,2 km/h (1 Bft) O-SO 112 0,000 mm 17,5 C 24,8 C 6,4 km/h (2 Bft) 100,00 %
27.09.2023 15:10 25,5 C 24,7 C 29,4 C 51 % 64 % 38 % 1021,2 hPa 0,0 l/m 3,2 km/h (1 Bft) SO 135 0,000 mm 17,4 C 24,7 C 6,4 km/h (2 Bft) 95,65 %
27.09.2023 15:09 25,5 C 24,8 C 29,4 C 51 % 64 % 38 % 1021,2 hPa 0,0 l/m 1,6 km/h (1 Bft) O-NO 67 0,000 mm 17,5 C 24,8 C 1,6 km/h (1 Bft) 100,00 %
27.09.2023 15:08 25,6 C 24,8 C 29,4 C 51 % 64 % 38 % 1021,3 hPa 0,0 l/m 1,6 km/h (1 Bft) O-NO 67 0,000 mm 17,5 C 24,8 C 3,2 km/h (1 Bft) 91,30 %
27.09.2023 15:07 25,6 C 24,8 C 29,4 C 51 % 66 % 38 % 1021,2 hPa 0,0 l/m 4,8 km/h (1 Bft) O-NO 67 0,000 mm 18,0 C 24,8 C 8,0 km/h (2 Bft) 91,30 %
27.09.2023 15:06 25,6 C 24,7 C 29,4 C 51 % 66 % 38 % 1021,2 hPa 0,0 l/m 6,4 km/h (2 Bft) NO 45 0,000 mm 17,9 C 24,7 C 12,9 km/h (3 Bft) 100,00 %
27.09.2023 15:05 25,6 C 24,6 C 29,4 C 51 % 66 % 38 % 1021,3 hPa 0,0 l/m 9,7 km/h (2 Bft) NO 45 0,000 mm 17,8 C 24,6 C 14,5 km/h (3 Bft) 95,65 %
27.09.2023 15:04 25,7 C 24,6 C 29,4 C 51 % 64 % 38 % 1021,2 hPa 0,0 l/m 4,8 km/h (1 Bft) N 360 0,000 mm 17,3 C 24,6 C 16,1 km/h (3 Bft) 100,00 %
27.09.2023 15:03 25,7 C 24,6 C 29,4 C 51 % 64 % 38 % 1021,3 hPa 0,0 l/m 6,4 km/h (2 Bft) O-NO 67 0,000 mm 17,3 C 24,6 C 8,0 km/h (2 Bft) 91,30 %
27.09.2023 15:02 25,7 C 24,6 C 29,4 C 51 % 66 % 40 % 1021,3 hPa 0,0 l/m 8,0 km/h (2 Bft) O-NO 67 0,000 mm 17,8 C 24,6 C 12,9 km/h (3 Bft) 100,00 %
27.09.2023 15:01 25,7 C 24,6 C 29,4 C 51 % 65 % 40 % 1021,3 hPa 0,0 l/m 8,0 km/h (2 Bft) O 90 0,000 mm 17,6 C 24,6 C 12,9 km/h (3 Bft) 91,30 %
27.09.2023 15:00 25,7 C 24,5 C 29,4 C 51 % 65 % 40 % 1021,2 hPa 0,0 l/m 8,0 km/h (2 Bft) O-SO 112 0,000 mm 17,5 C 24,5 C 14,5 km/h (3 Bft) 100,00 %
27.09.2023 14:59 25,7 C 24,4 C 29,4 C 51 % 65 % 40 % 1021,3 hPa 0,0 l/m 4,8 km/h (1 Bft) NO 45 0,000 mm 17,4 C 24,4 C 11,3 km/h (2 Bft) 91,30 %
27.09.2023 14:58 25,7 C 24,5 C 29,4 C 51 % 65 % 40 % 1021,3 hPa 0,0 l/m 4,8 km/h (1 Bft) NO 45 0,000 mm 17,5 C 24,5 C 8,0 km/h (2 Bft) 95,65 %
27.09.2023 14:57 25,8 C 24,4 C 29,4 C 51 % 65 % 39 % 1021,3 hPa 0,0 l/m 6,4 km/h (2 Bft) O-NO 67 0,000 mm 17,4 C 24,4 C 8,0 km/h (2 Bft) 100,00 %
27.09.2023 14:56 25,7 C 24,5 C 28,9 C 51 % 65 % 38 % 1021,4 hPa 0,0 l/m 4,8 km/h (1 Bft) O 90 0,000 mm 17,5 C 24,5 C 8,0 km/h (2 Bft) 95,65 %
27.09.2023 14:55 25,8 C 24,5 C 28,9 C 51 % 66 % 39 % 1021,3 hPa 0,0 l/m 4,8 km/h (1 Bft) NO 45 0,000 mm 17,7 C 24,5 C 9,7 km/h (2 Bft) 100,00 %
27.09.2023 14:54 25,8 C 24,5 C 28,9 C 51 % 64 % 38 % 1021,4 hPa 0,0 l/m 6,4 km/h (2 Bft) O-NO 67 0,000 mm 17,2 C 24,5 C 9,7 km/h (2 Bft) 91,30 %
27.09.2023 14:53 25,8 C 24,6 C 28,9 C 51 % 65 % 38 % 1021,5 hPa 0,0 l/m 1,6 km/h (1 Bft) O-NO 67 0,000 mm 17,6 C 24,6 C 4,8 km/h (1 Bft) 95,65 %
27.09.2023 14:52 25,8 C 24,6 C 28,9 C 51 % 64 % 39 % 1021,4 hPa 0,0 l/m 6,4 km/h (2 Bft) O-NO 67 0,000 mm 17,3 C 24,6 C 9,7 km/h (2 Bft) 95,65 %
27.09.2023 14:51 25,8 C 24,7 C 28,9 C 51 % 66 % 39 % 1021,4 hPa 0,0 l/m 9,7 km/h (2 Bft) O-NO 67 0,000 mm 17,9 C 24,7 C 14,5 km/h (3 Bft) 100,00 %
27.09.2023 14:50 25,8 C 24,7 C 28,9 C 51 % 64 % 39 % 1021,4 hPa 0,0 l/m 4,8 km/h (1 Bft) O-NO 67 0,000 mm 17,4 C 24,7 C 11,3 km/h (2 Bft) 95,65 %
27.09.2023 14:49 25,8 C 24,8 C 28,9 C 51 % 65 % 39 % 1021,4 hPa 0,0 l/m 6,4 km/h (2 Bft) NO 45 0,000 mm 17,8 C 24,8 C 9,7 km/h (2 Bft) 91,30 %
27.09.2023 14:48 25,9 C 24,8 C 28,9 C 51 % 65 % 39 % 1021,5 hPa 0,0 l/m 8,0 km/h (2 Bft) O-NO 67 0,000 mm 17,8 C 24,8 C 11,3 km/h (2 Bft) 100,00 %
27.09.2023 14:47 25,9 C 24,8 C 28,9 C 51 % 66 % 39 % 1021,5 hPa 0,0 l/m 6,4 km/h (2 Bft) O-NO 67 0,000 mm 18,0 C 24,8 C 11,3 km/h (2 Bft) 86,96 %
27.09.2023 14:46 25,9 C 24,8 C 28,9 C 50 % 65 % 39 % 1021,5 hPa 0,0 l/m 4,8 km/h (1 Bft) O-NO 67 0,000 mm 17,8 C 24,8 C 8,0 km/h (2 Bft) 100,00 %
27.09.2023 14:45 25,9 C 24,7 C 28,9 C 50 % 68 % 39 % 1021,5 hPa 0,0 l/m 4,8 km/h (1 Bft) O-NO 67 0,000 mm 18,4 C 24,7 C 8,0 km/h (2 Bft) 91,30 %
27.09.2023 14:44 25,9 C 24,6 C 28,9 C 50 % 67 % 39 % 1021,6 hPa 0,0 l/m 4,8 km/h (1 Bft) O-NO 67 0,000 mm 18,1 C 24,6 C 6,4 km/h (2 Bft) 100,00 %
27.09.2023 14:43 26,0 C 24,4 C 28,9 C 50 % 66 % 39 % 1021,6 hPa 0,0 l/m 8,0 km/h (2 Bft) NO 45 0,000 mm 17,6 C 24,4 C 12,9 km/h (3 Bft) 100,00 %
27.09.2023 14:42 26,0 C 24,3 C 28,9 C 50 % 65 % 39 % 1021,6 hPa 0,0 l/m 6,4 km/h (2 Bft) NO 45 0,000 mm 17,3 C 24,3 C 9,7 km/h (2 Bft) 100,00 %
27.09.2023 14:41 26,0 C 24,3 C 28,9 C 50 % 63 % 40 % 1021,6 hPa 0,0 l/m 6,4 km/h (2 Bft) O-NO 67 0,000 mm 16,8 C 24,3 C 11,3 km/h (2 Bft) 100,00 %
27.09.2023 14:40 26,1 C 24,3 C 28,9 C 50 % 63 % 40 % 1021,6 hPa 0,0 l/m 8,0 km/h (2 Bft) O 90 0,000 mm 16,8 C 24,3 C 12,9 km/h (3 Bft) 95,65 %
27.09.2023 14:39 26,1 C 24,4 C 28,9 C 50 % 64 % 39 % 1021,7 hPa 0,0 l/m 1,6 km/h (1 Bft) SO 135 0,000 mm 17,1 C 24,4 C 4,8 km/h (1 Bft) 100,00 %
27.09.2023 14:38 26,1 C 24,5 C 28,9 C 50 % 64 % 39 % 1021,6 hPa 0,0 l/m 1,6 km/h (1 Bft) N-NO 22 0,000 mm 17,2 C 24,5 C 3,2 km/h (1 Bft) 100,00 %
27.09.2023 14:37 26,1 C 24,6 C 28,9 C 50 % 64 % 40 % 1021,7 hPa 0,0 l/m 1,6 km/h (1 Bft) N-NO 22 0,000 mm 17,3 C 24,6 C 3,2 km/h (1 Bft) 100,00 %
27.09.2023 14:36 26,1 C 24,7 C 28,9 C 50 % 66 % 40 % 1021,7 hPa 0,0 l/m 3,2 km/h (1 Bft) N-NO 22 0,000 mm 17,9 C 24,7 C 4,8 km/h (1 Bft) 100,00 %
27.09.2023 14:35 26,1 C 24,7 C 28,9 C 50 % 66 % 40 % 1021,8 hPa 0,0 l/m 4,8 km/h (1 Bft) N-NO 22 0,000 mm 17,9 C 24,7 C 6,4 km/h (2 Bft) 100,00 %
27.09.2023 14:34 26,1 C 24,7 C 28,9 C 50 % 67 % 40 % 1021,8 hPa 0,0 l/m 4,8 km/h (1 Bft) N-NO 22 0,000 mm 18,1 C 24,7 C 8,0 km/h (2 Bft) 100,00 %
27.09.2023 14:33 26,2 C 24,6 C 28,9 C 50 % 68 % 40 % 1021,8 hPa 0,0 l/m 9,7 km/h (2 Bft) N-NO 22 0,000 mm 18,3 C 24,6 C 14,5 km/h (3 Bft) 95,65 %
27.09.2023 14:32 26,2 C 24,4 C 28,9 C 50 % 67 % 40 % 1021,8 hPa 0,0 l/m 6,4 km/h (2 Bft) N-NO 22 0,000 mm 17,9 C 24,4 C 14,5 km/h (3 Bft) 95,65 %
27.09.2023 14:31 26,2 C 24,3 C 28,3 C 50 % 67 % 41 % 1021,9 hPa 0,0 l/m 8,0 km/h (2 Bft) N-NO 22 0,000 mm 17,8 C 24,3 C 14,5 km/h (3 Bft) 100,00 %
27.09.2023 14:30 26,2 C 24,3 C 28,3 C 50 % 66 % 41 % 1021,9 hPa 0,0 l/m 3,2 km/h (1 Bft) NO 45 0,000 mm 17,5 C 24,3 C 4,8 km/h (1 Bft) 95,65 %
27.09.2023 14:29 26,2 C 24,3 C 28,3 C 50 % 66 % 41 % 1021,9 hPa 0,0 l/m 3,2 km/h (1 Bft) NO 45 0,000 mm 17,5 C 24,3 C 6,4 km/h (2 Bft) 100,00 %
27.09.2023 14:28 26,2 C 24,2 C 28,3 C 50 % 66 % 40 % 1021,9 hPa 0,0 l/m 4,8 km/h (1 Bft) S-SO 157 0,000 mm 17,4 C 24,2 C 8,0 km/h (2 Bft) 95,65 %
27.09.2023 14:27 26,3 C 24,2 C 28,3 C 50 % 66 % 41 % 1022,0 hPa 0,0 l/m 6,4 km/h (2 Bft) O-NO 67 0,000 mm 17,4 C 24,2 C 9,7 km/h (2 Bft) 100,00 %
27.09.2023 14:26 26,3 C 24,1 C 28,3 C 50 % 66 % 42 % 1021,9 hPa 0,0 l/m 3,2 km/h (1 Bft) S-SO 157 0,000 mm 17,3 C 24,1 C 6,4 km/h (2 Bft) 95,65 %
27.09.2023 14:25 26,3 C 23,9 C 28,3 C 50 % 66 % 41 % 1022,0 hPa 0,0 l/m 3,2 km/h (1 Bft) O-SO 112 0,000 mm 17,1 C 23,9 C 4,8 km/h (1 Bft) 100,00 %
27.09.2023 14:24 26,3 C 23,9 C 28,3 C 50 % 65 % 42 % 1022,0 hPa 0,0 l/m 1,6 km/h (1 Bft) O-SO 112 0,000 mm 16,9 C 23,9 C 3,2 km/h (1 Bft) 100,00 %
27.09.2023 14:23 26,3 C 23,9 C 28,3 C 50 % 64 % 41 % 1022,0 hPa 0,0 l/m 3,2 km/h (1 Bft) O 90 0,000 mm 16,7 C 23,9 C 4,8 km/h (1 Bft) 100,00 %
27.09.2023 14:22 26,3 C 24,0 C 28,3 C 50 % 66 % 41 % 1022,1 hPa 0,0 l/m 4,8 km/h (1 Bft) O 90 0,000 mm 17,2 C 24,0 C 8,0 km/h (2 Bft) 100,00 %
27.09.2023 14:21 26,3 C 24,1 C 28,3 C 50 % 68 % 41 % 1022,1 hPa 0,0 l/m 3,2 km/h (1 Bft) O 90 0,000 mm 17,8 C 24,1 C 4,8 km/h (1 Bft) 100,00 %
27.09.2023 14:20 26,4 C 24,0 C 28,3 C 50 % 68 % 43 % 1022,1 hPa 0,0 l/m 8,0 km/h (2 Bft) NO 45 0,000 mm 17,7 C 24,0 C 9,7 km/h (2 Bft) 100,00 %
27.09.2023 14:19 26,3 C 23,8 C 28,3 C 50 % 68 % 43 % 1022,0 hPa 0,0 l/m 4,8 km/h (1 Bft) O-NO 67 0,000 mm 17,5 C 23,8 C 9,7 km/h (2 Bft) 95,65 %
27.09.2023 14:18 26,4 C 23,8 C 28,3 C 50 % 67 % 43 % 1022,0 hPa 0,0 l/m 4,8 km/h (1 Bft) SO 135 0,000 mm 17,3 C 23,8 C 8,0 km/h (2 Bft) 95,65 %
27.09.2023 14:17 26,4 C 23,8 C 28,3 C 50 % 66 % 42 % 1022,1 hPa 0,0 l/m 8,0 km/h (2 Bft) O-SO 112 0,000 mm 17,1 C 23,8 C 11,3 km/h (2 Bft) 100,00 %
27.09.2023 14:16 26,4 C 23,9 C 28,3 C 50 % 66 % 43 % 1022,2 hPa 0,0 l/m 9,7 km/h (2 Bft) SO 135 0,000 mm 17,1 C 23,9 C 12,9 km/h (3 Bft) 100,00 %
27.09.2023 14:15 26,4 C 24,1 C 28,3 C 50 % 66 % 43 % 1022,1 hPa 0,0 l/m 8,0 km/h (2 Bft) SO 135 0,000 mm 17,3 C 24,1 C 11,3 km/h (2 Bft) 100,00 %
27.09.2023 14:14 26,4 C 24,3 C 28,3 C 50 % 66 % 42 % 1022,2 hPa 0,0 l/m 6,4 km/h (2 Bft) SO 135 0,000 mm 17,5 C 24,3 C 11,3 km/h (2 Bft) 100,00 %
27.09.2023 14:13 26,5 C 24,3 C 28,3 C 50 % 67 % 42 % 1022,2 hPa 0,0 l/m 4,8 km/h (1 Bft) NO 45 0,000 mm 17,8 C 24,3 C 6,4 km/h (2 Bft) 100,00 %
27.09.2023 14:12 26,5 C 24,3 C 28,3 C 50 % 67 % 43 % 1022,2 hPa 0,0 l/m 4,8 km/h (1 Bft) O 90 0,000 mm 17,8 C 24,3 C 6,4 km/h (2 Bft) 95,65 %
27.09.2023 14:11 26,5 C 24,3 C 27,8 C 50 % 66 % 42 % 1022,2 hPa 0,0 l/m 6,4 km/h (2 Bft) O-NO 67 0,000 mm 17,5 C 24,3 C 12,9 km/h (3 Bft) 100,00 %
27.09.2023 14:10 26,5 C 24,3 C 27,8 C 50 % 65 % 43 % 1022,3 hPa 0,0 l/m 8,0 km/h (2 Bft) SO 135 0,000 mm 17,3 C 24,3 C 11,3 km/h (2 Bft) 100,00 %
27.09.2023 14:09 26,6 C 24,3 C 27,8 C 50 % 65 % 43 % 1022,3 hPa 0,0 l/m 6,4 km/h (2 Bft) O 90 0,000 mm 17,3 C 24,3 C 8,0 km/h (2 Bft) 100,00 %
27.09.2023 14:08 26,6 C 24,2 C 27,8 C 50 % 68 % 43 % 1022,2 hPa 0,0 l/m 4,8 km/h (1 Bft) O-NO 67 0,000 mm 17,9 C 24,2 C 9,7 km/h (2 Bft) 100,00 %
27.09.2023 14:07 26,6 C 24,1 C 27,8 C 49 % 66 % 44 % 1022,3 hPa 0,0 l/m 6,4 km/h (2 Bft) O-SO 112 0,000 mm 17,3 C 24,1 C 9,7 km/h (2 Bft) 100,00 %
27.09.2023 14:06 26,6 C 23,9 C 27,8 C 49 % 67 % 43 % 1022,4 hPa 0,0 l/m 4,8 km/h (1 Bft) O-SO 112 0,000 mm 17,4 C 23,9 C 6,4 km/h (2 Bft) 95,65 %
27.09.2023 14:05 26,6 C 23,9 C 27,8 C 49 % 67 % 44 % 1022,3 hPa 0,0 l/m 3,2 km/h (1 Bft) SO 135 0,000 mm 17,4 C 23,9 C 4,8 km/h (1 Bft) 91,30 %
27.09.2023 14:04 26,6 C 23,9 C 27,8 C 49 % 66 % 44 % 1022,4 hPa 0,0 l/m 6,4 km/h (2 Bft) SO 135 0,000 mm 17,1 C 23,9 C 8,0 km/h (2 Bft) 100,00 %
27.09.2023 14:03 26,7 C 23,9 C 27,8 C 49 % 66 % 43 % 1022,4 hPa 0,0 l/m 3,2 km/h (1 Bft) SO 135 0,000 mm 17,1 C 23,9 C 4,8 km/h (1 Bft) 100,00 %
27.09.2023 14:02 26,7 C 24,1 C 27,8 C 49 % 67 % 42 % 1022,4 hPa 0,0 l/m 4,8 km/h (1 Bft) O 90 0,000 mm 17,6 C 24,1 C 6,4 km/h (2 Bft) 100,00 %
27.09.2023 14:01 26,7 C 24,2 C 27,8 C 49 % 67 % 43 % 1022,4 hPa 0,0 l/m 6,4 km/h (2 Bft) O-NO 67 0,000 mm 17,7 C 24,2 C 11,3 km/h (2 Bft) 95,65 %
27.09.2023 14:00 26,7 C 24,1 C 27,8 C 49 % 67 % 43 % 1022,5 hPa 0,0 l/m 8,0 km/h (2 Bft) O-NO 67 0,000 mm 17,6 C 24,1 C 12,9 km/h (3 Bft) 95,65 %
27.09.2023 13:59 26,7 C 24,2 C 27,8 C 49 % 67 % 43 % 1022,4 hPa 0,0 l/m 3,2 km/h (1 Bft) NO 45 0,000 mm 17,7 C 24,2 C 4,8 km/h (1 Bft) 100,00 %
27.09.2023 13:58 26,7 C 24,2 C 27,8 C 49 % 68 % 43 % 1022,4 hPa 0,0 l/m 3,2 km/h (1 Bft) NO 45 0,000 mm 17,9 C 24,2 C 6,4 km/h (2 Bft) 95,65 %
27.09.2023 13:57 26,7 C 24,2 C 27,8 C 49 % 69 % 44 % 1022,5 hPa 0,0 l/m 4,8 km/h (1 Bft) NO 45 0,000 mm 18,1 C 24,2 C 4,8 km/h (1 Bft) 100,00 %
27.09.2023 13:56 26,7 C 24,1 C 27,8 C 49 % 71 % 44 % 1022,4 hPa 0,0 l/m 4,8 km/h (1 Bft) O-NO 67 0,000 mm 18,5 C 24,1 C 6,4 km/h (2 Bft) 95,65 %
27.09.2023 13:55 26,7 C 24,0 C 27,8 C 49 % 69 % 44 % 1022,6 hPa 0,0 l/m 0,0 km/h (0 Bft) O-SO 112 0,000 mm 18,0 C 24,0 C 1,6 km/h (1 Bft) 100,00 %
27.09.2023 13:54 26,7 C 23,9 C 27,8 C 49 % 69 % 43 % 1022,5 hPa 0,0 l/m 0,0 km/h (0 Bft) O-SO 112 0,000 mm 17,9 C 23,9 C 1,6 km/h (1 Bft) 100,00 %
27.09.2023 13:53 26,7 C 23,8 C 27,8 C 49 % 69 % 43 % 1022,5 hPa 0,0 l/m 3,2 km/h (1 Bft) NO 45 0,000 mm 17,8 C 23,8 C 6,4 km/h (2 Bft) 100,00 %
27.09.2023 13:52 26,8 C 23,8 C 27,8 C 49 % 67 % 43 % 1022,5 hPa 0,0 l/m 3,2 km/h (1 Bft) N-NO 22 0,000 mm 17,3 C 23,8 C 8,0 km/h (2 Bft) 100,00 %
27.09.2023 13:51 26,8 C 23,9 C 27,2 C 49 % 67 % 43 % 1022,5 hPa 0,0 l/m 1,6 km/h (1 Bft) NO 45 0,000 mm 17,4 C 23,9 C 4,8 km/h (1 Bft) 95,65 %
27.09.2023 13:50 26,8 C 23,9 C 27,2 C 49 % 68 % 43 % 1022,5 hPa 0,0 l/m 6,4 km/h (2 Bft) O-NO 67 0,000 mm 17,6 C 23,9 C 9,7 km/h (2 Bft) 100,00 %
27.09.2023 13:49 26,8 C 24,0 C 27,2 C 49 % 70 % 44 % 1022,6 hPa 0,0 l/m 6,4 km/h (2 Bft) NO 45 0,000 mm 18,2 C 24,0 C 16,1 km/h (3 Bft) 100,00 %
27.09.2023 13:48 26,8 C 23,9 C 27,2 C 49 % 69 % 45 % 1022,6 hPa 0,0 l/m 11,3 km/h (2 Bft) NO 45 0,000 mm 17,9 C 23,9 C 16,1 km/h (3 Bft) 95,65 %
27.09.2023 13:47 26,8 C 23,8 C 27,2 C 49 % 70 % 45 % 1022,6 hPa 0,0 l/m 8,0 km/h (2 Bft) NO 45 0,000 mm 18,0 C 23,8 C 12,9 km/h (3 Bft) 100,00 %
27.09.2023 13:46 26,8 C 23,8 C 27,2 C 49 % 68 % 45 % 1022,5 hPa 0,0 l/m 4,8 km/h (1 Bft) O-SO 112 0,000 mm 17,5 C 23,8 C 6,4 km/h (2 Bft) 95,65 %
27.09.2023 13:45 26,8 C 23,8 C 27,2 C 49 % 69 % 45 % 1022,6 hPa 0,0 l/m 4,8 km/h (1 Bft) O-SO 112 0,000 mm 17,8 C 23,8 C 6,4 km/h (2 Bft) 100,00 %
27.09.2023 13:44 26,8 C 23,9 C 27,2 C 49 % 70 % 44 % 1022,6 hPa 0,0 l/m 6,4 km/h (2 Bft) O-SO 112 0,000 mm 18,1 C 23,9 C 11,3 km/h (2 Bft) 91,30 %
27.09.2023 13:43 26,8 C 23,8 C 27,2 C 49 % 69 % 44 % 1022,6 hPa 0,0 l/m 4,8 km/h (1 Bft) N-NO 22 0,000 mm 17,8 C 23,8 C 9,7 km/h (2 Bft) 100,00 %
27.09.2023 13:42 26,8 C 23,7 C 27,2 C 49 % 70 % 45 % 1022,7 hPa 0,0 l/m 3,2 km/h (1 Bft) N-NO 22 0,000 mm 17,9 C 23,7 C 8,0 km/h (2 Bft) 95,65 %
27.09.2023 13:41 26,8 C 23,7 C 27,2 C 49 % 69 % 46 % 1022,7 hPa 0,0 l/m 4,8 km/h (1 Bft) NO 45 0,000 mm 17,7 C 23,7 C 6,4 km/h (2 Bft) 100,00 %
27.09.2023 13:40 26,8 C 23,6 C 27,2 C 49 % 68 % 46 % 1022,7 hPa 0,0 l/m 4,8 km/h (1 Bft) O 90 0,000 mm 17,3 C 23,6 C 8,0 km/h (2 Bft) 100,00 %
27.09.2023 13:39 26,8 C 23,7 C 27,2 C 49 % 69 % 46 % 1022,7 hPa 0,0 l/m 6,4 km/h (2 Bft) S-SO 157 0,000 mm 17,7 C 23,7 C 9,7 km/h (2 Bft) 95,65 %
27.09.2023 13:38 26,8 C 23,6 C 27,2 C 49 % 69 % 45 % 1022,8 hPa 0,0 l/m 6,4 km/h (2 Bft) SO 135 0,000 mm 17,6 C 23,6 C 8,0 km/h (2 Bft) 100,00 %
27.09.2023 13:37 26,8 C 23,5 C 27,2 C 49 % 70 % 46 % 1022,7 hPa 0,0 l/m 3,2 km/h (1 Bft) O-NO 67 0,000 mm 17,7 C 23,5 C 6,4 km/h (2 Bft) 91,30 %
27.09.2023 13:36 26,8 C 23,4 C 27,2 C 49 % 68 % 47 % 1022,8 hPa 0,0 l/m 6,4 km/h (2 Bft) O 90 0,000 mm 17,1 C 23,4 C 9,7 km/h (2 Bft) 95,65 %
27.09.2023 13:35 26,8 C 23,5 C 26,7 C 49 % 70 % 47 % 1022,7 hPa 0,0 l/m 8,0 km/h (2 Bft) SO 135 0,000 mm 17,7 C 23,5 C 11,3 km/h (2 Bft) 95,65 %
27.09.2023 13:34 26,8 C 23,5 C 26,7 C 49 % 69 % 46 % 1022,7 hPa 0,0 l/m 4,8 km/h (1 Bft) SO 135 0,000 mm 17,5 C 23,5 C 6,4 km/h (2 Bft) 100,00 %
27.09.2023 13:33 26,8 C 23,5 C 26,7 C 49 % 70 % 46 % 1022,8 hPa 0,0 l/m 4,8 km/h (1 Bft) O 90 0,000 mm 17,7 C 23,5 C 6,4 km/h (2 Bft) 95,65 %
27.09.2023 13:32 26,8 C 23,6 C 26,7 C 49 % 70 % 45 % 1022,8 hPa 0,0 l/m 6,4 km/h (2 Bft) O-NO 67 0,000 mm 17,8 C 23,6 C 9,7 km/h (2 Bft) 100,00 %
27.09.2023 13:31 26,8 C 23,4 C 26,7 C 49 % 71 % 46 % 1022,8 hPa 0,0 l/m 6,4 km/h (2 Bft) NO 45 0,000 mm 17,8 C 23,4 C 9,7 km/h (2 Bft) 95,65 %
27.09.2023 13:30 26,8 C 23,4 C 26,7 C 49 % 71 % 47 % 1022,9 hPa 0,0 l/m 6,4 km/h (2 Bft) O-NO 67 0,000 mm 17,8 C 23,4 C 9,7 km/h (2 Bft) 86,96 %
27.09.2023 13:29 26,8 C 23,3 C 26,7 C 49 % 71 % 46 % 1022,8 hPa 0,0 l/m 6,4 km/h (2 Bft) SO 135 0,000 mm 17,7 C 23,3 C 11,3 km/h (2 Bft) 91,30 %
27.09.2023 13:28 26,8 C 23,3 C 26,7 C 49 % 70 % 46 % 1022,8 hPa 0,0 l/m 4,8 km/h (1 Bft) O-SO 112 0,000 mm 17,5 C 23,3 C 6,4 km/h (2 Bft) 86,96 %
27.09.2023 13:27 26,8 C 23,3 C 26,7 C 49 % 71 % 46 % 1022,8 hPa 0,0 l/m 6,4 km/h (2 Bft) O 90 0,000 mm 17,7 C 23,3 C 9,7 km/h (2 Bft) 100,00 %
27.09.2023 13:26 26,8 C 23,2 C 26,7 C 49 % 71 % 46 % 1022,9 hPa 0,0 l/m 6,4 km/h (2 Bft) NO 45 0,000 mm 17,6 C 23,2 C 12,9 km/h (3 Bft) 91,30 %
27.09.2023 13:25 26,8 C 23,3 C 26,7 C 49 % 72 % 47 % 1022,9 hPa 0,0 l/m 3,2 km/h (1 Bft) NO 45 0,000 mm 18,0 C 23,3 C 6,4 km/h (2 Bft) 100,00 %
27.09.2023 13:24 26,8 C 23,2 C 26,7 C 49 % 72 % 46 % 1022,9 hPa 0,0 l/m 8,0 km/h (2 Bft) O-NO 67 0,000 mm 17,9 C 23,2 C 14,5 km/h (3 Bft) 95,65 %
27.09.2023 13:23 26,9 C 23,1 C 26,7 C 49 % 72 % 47 % 1023,0 hPa 0,0 l/m 8,0 km/h (2 Bft) O-NO 67 0,000 mm 17,8 C 23,1 C 12,9 km/h (3 Bft) 95,65 %
27.09.2023 13:22 26,8 C 23,0 C 26,7 C 49 % 70 % 48 % 1023,0 hPa 0,0 l/m 6,4 km/h (2 Bft) O-SO 112 0,000 mm 17,2 C 23,0 C 14,5 km/h (3 Bft) 95,65 %
27.09.2023 13:21 26,8 C 23,2 C 26,1 C 49 % 70 % 47 % 1023,1 hPa 0,0 l/m 6,4 km/h (2 Bft) O-SO 112 0,000 mm 17,4 C 23,2 C 11,3 km/h (2 Bft) 95,65 %
27.09.2023 13:20 26,8 C 23,3 C 26,1 C 49 % 71 % 47 % 1023,1 hPa 0,0 l/m 6,4 km/h (2 Bft) O-SO 112 0,000 mm 17,7 C 23,3 C 11,3 km/h (2 Bft) 95,65 %
27.09.2023 13:19 26,8 C 23,2 C 26,1 C 49 % 71 % 47 % 1023,1 hPa 0,0 l/m 1,6 km/h (1 Bft) S 180 0,000 mm 17,6 C 23,2 C 6,4 km/h (2 Bft) 91,30 %
27.09.2023 13:18 26,8 C 23,2 C 26,1 C 49 % 72 % 47 % 1023,0 hPa 0,0 l/m 3,2 km/h (1 Bft) S 180 0,000 mm 17,9 C 23,2 C 6,4 km/h (2 Bft) 100,00 %
27.09.2023 13:17 26,8 C 23,0 C 26,1 C 49 % 72 % 47 % 1023,1 hPa 0,0 l/m 4,8 km/h (1 Bft) S-SO 157 0,000 mm 17,7 C 23,0 C 8,0 km/h (2 Bft) 91,30 %
27.09.2023 13:16 26,8 C 22,9 C 26,1 C 49 % 70 % 47 % 1023,1 hPa 0,0 l/m 3,2 km/h (1 Bft) S-SO 157 0,000 mm 17,1 C 22,9 C 4,8 km/h (1 Bft) 91,30 %
27.09.2023 13:15 26,8 C 22,9 C 26,1 C 49 % 70 % 47 % 1023,1 hPa 0,0 l/m 3,2 km/h (1 Bft) S-SO 157 0,000 mm 17,1 C 22,9 C 4,8 km/h (1 Bft) 95,65 %
27.09.2023 13:14 26,8 C 23,0 C 26,1 C 49 % 70 % 48 % 1023,1 hPa 0,0 l/m 3,2 km/h (1 Bft) S-SO 157 0,000 mm 17,2 C 23,0 C 4,8 km/h (1 Bft) 95,65 %
27.09.2023 13:13 26,8 C 23,1 C 26,1 C 49 % 70 % 47 % 1023,1 hPa 0,0 l/m 4,8 km/h (1 Bft) S-SO 157 0,000 mm 17,3 C 23,1 C 9,7 km/h (2 Bft) 100,00 %
27.09.2023 13:12 26,8 C 23,2 C 26,1 C 49 % 71 % 47 % 1023,2 hPa 0,0 l/m 3,2 km/h (1 Bft) S-SO 157 0,000 mm 17,6 C 23,2 C 6,4 km/h (2 Bft) 95,65 %
27.09.2023 13:11 26,8 C 23,2 C 26,1 C 49 % 73 % 47 % 1023,2 hPa 0,0 l/m 3,2 km/h (1 Bft) O-NO 67 0,000 mm 18,1 C 23,2 C 6,4 km/h (2 Bft) 91,30 %
27.09.2023 13:10 26,8 C 23,1 C 26,1 C 49 % 74 % 48 % 1023,1 hPa 0,0 l/m 4,8 km/h (1 Bft) NO 45 0,000 mm 18,2 C 23,1 C 6,4 km/h (2 Bft) 95,65 %
27.09.2023 13:09 26,8 C 22,9 C 25,6 C 49 % 71 % 48 % 1023,1 hPa 0,0 l/m 1,6 km/h (1 Bft) O-SO 112 0,000 mm 17,4 C 22,9 C 9,7 km/h (2 Bft) 95,65 %
27.09.2023 13:08 26,8 C 22,8 C 25,6 C 49 % 73 % 48 % 1023,2 hPa 0,0 l/m 6,4 km/h (2 Bft) O 90 0,000 mm 17,7 C 22,8 C 6,4 km/h (2 Bft) 95,65 %
27.09.2023 13:07 26,8 C 22,8 C 25,6 C 49 % 73 % 48 % 1023,2 hPa 0,0 l/m 6,4 km/h (2 Bft) O-NO 67 0,000 mm 17,7 C 22,8 C 9,7 km/h (2 Bft) 95,65 %
27.09.2023 13:06 26,8 C 22,7 C 25,6 C 49 % 75 % 49 % 1023,3 hPa 0,0 l/m 4,8 km/h (1 Bft) NO 45 0,000 mm 18,0 C 22,7 C 8,0 km/h (2 Bft) 95,65 %
27.09.2023 13:05 26,8 C 22,5 C 25,6 C 49 % 73 % 48 % 1023,2 hPa 0,0 l/m 3,2 km/h (1 Bft) O-SO 112 0,000 mm 17,4 C 22,5 C 8,0 km/h (2 Bft) 95,65 %
27.09.2023 13:04 26,8 C 22,4 C 25,6 C 49 % 73 % 49 % 1023,2 hPa 0,0 l/m 3,2 km/h (1 Bft) O 90 0,000 mm 17,3 C 22,4 C 3,2 km/h (1 Bft) 100,00 %
27.09.2023 13:03 26,8 C 22,3 C 25,6 C 49 % 73 % 49 % 1023,2 hPa 0,0 l/m 3,2 km/h (1 Bft) N-NW 337 0,000 mm 17,2 C 22,3 C 6,4 km/h (2 Bft) 95,65 %
27.09.2023 13:02 26,8 C 22,3 C 25,6 C 49 % 73 % 49 % 1023,2 hPa 0,0 l/m 0,0 km/h (0 Bft) N-NW 337 0,000 mm 17,2 C 22,3 C 1,6 km/h (1 Bft) 95,65 %
27.09.2023 13:01 26,8 C 22,3 C 25,6 C 49 % 72 % 50 % 1023,2 hPa 0,0 l/m 1,6 km/h (1 Bft) N-NW 337 0,000 mm 17,0 C 22,3 C 4,8 km/h (1 Bft) 91,30 %
27.09.2023 13:00 26,8 C 22,2 C 25,6 C 49 % 72 % 48 % 1023,3 hPa 0,0 l/m 3,2 km/h (1 Bft) O-SO 112 0,000 mm 16,9 C 22,2 C 4,8 km/h (1 Bft) 100,00 %
27.09.2023 12:59 26,8 C 22,2 C 25,6 C 49 % 73 % 48 % 1023,3 hPa 0,0 l/m 3,2 km/h (1 Bft) NO 45 0,000 mm 17,1 C 22,2 C 4,8 km/h (1 Bft) 95,65 %
27.09.2023 12:58 26,8 C 22,1 C 25,6 C 49 % 72 % 48 % 1023,3 hPa 0,0 l/m 1,6 km/h (1 Bft) N-NO 22 0,000 mm 16,8 C 22,1 C 4,8 km/h (1 Bft) 100,00 %
27.09.2023 12:57 26,8 C 22,1 C 25,0 C 49 % 73 % 49 % 1023,3 hPa 0,0 l/m 3,2 km/h (1 Bft) NO 45 0,000 mm 17,0 C 22,1 C 4,8 km/h (1 Bft) 95,65 %
27.09.2023 12:56 26,8 C 22,0 C 25,0 C 49 % 73 % 49 % 1023,4 hPa 0,0 l/m 3,2 km/h (1 Bft) NO 45 0,000 mm 16,9 C 22,0 C 4,8 km/h (1 Bft) 91,30 %
27.09.2023 12:55 26,8 C 22,1 C 25,0 C 49 % 73 % 49 % 1023,4 hPa 0,0 l/m 4,8 km/h (1 Bft) O-NO 67 0,000 mm 17,0 C 22,1 C 6,4 km/h (2 Bft) 95,65 %
27.09.2023 12:54 26,8 C 22,0 C 25,0 C 49 % 74 % 49 % 1023,4 hPa 0,0 l/m 3,2 km/h (1 Bft) N-NW 337 0,000 mm 17,1 C 22,0 C 4,8 km/h (1 Bft) 82,61 %
27.09.2023 12:53 26,8 C 21,9 C 25,0 C 49 % 74 % 50 % 1023,3 hPa 0,0 l/m 4,8 km/h (1 Bft) NW 315 0,000 mm 17,0 C 21,9 C 6,4 km/h (2 Bft) 100,00 %
27.09.2023 12:52 26,8 C 21,8 C 25,0 C 49 % 74 % 51 % 1023,3 hPa 0,0 l/m 3,2 km/h (1 Bft) N-NO 22 0,000 mm 17,0 C 21,8 C 6,4 km/h (2 Bft) 95,65 %
27.09.2023 12:51 26,7 C 21,8 C 25,0 C 49 % 75 % 52 % 1023,4 hPa 0,0 l/m 1,6 km/h (1 Bft) N-NO 22 0,000 mm 17,2 C 21,8 C 4,8 km/h (1 Bft) 100,00 %
27.09.2023 12:50 26,7 C 21,6 C 25,0 C 49 % 75 % 52 % 1023,4 hPa 0,0 l/m 1,6 km/h (1 Bft) N-NO 22 0,000 mm 17,0 C 21,6 C 3,2 km/h (1 Bft) 95,65 %
27.09.2023 12:49 26,7 C 21,5 C 25,0 C 49 % 75 % 52 % 1023,4 hPa 0,0 l/m 1,6 km/h (1 Bft) N-NO 22 0,000 mm 16,9 C 21,5 C 6,4 km/h (2 Bft) 91,30 %
27.09.2023 12:48 26,7 C 21,5 C 25,0 C 49 % 75 % 53 % 1023,4 hPa 0,0 l/m 1,6 km/h (1 Bft) W 270 0,000 mm 16,9 C 21,5 C 4,8 km/h (1 Bft) 91,30 %
27.09.2023 12:47 26,7 C 21,5 C 25,0 C 49 % 74 % 52 % 1023,5 hPa 0,0 l/m 1,6 km/h (1 Bft) W 270 0,000 mm 16,7 C 21,5 C 3,2 km/h (1 Bft) 91,30 %
27.09.2023 12:46 26,7 C 21,7 C 24,4 C 49 % 73 % 51 % 1023,4 hPa 0,0 l/m 3,2 km/h (1 Bft) W 270 0,000 mm 16,6 C 21,7 C 3,2 km/h (1 Bft) 95,65 %
27.09.2023 12:45 26,7 C 21,9 C 24,4 C 49 % 73 % 51 % 1023,5 hPa 0,0 l/m 1,6 km/h (1 Bft) NW 315 0,000 mm 16,8 C 21,9 C 3,2 km/h (1 Bft) 100,00 %
27.09.2023 12:44 26,7 C 21,9 C 24,4 C 49 % 74 % 51 % 1023,5 hPa 0,0 l/m 1,6 km/h (1 Bft) NW 315 0,000 mm 17,0 C 21,9 C 3,2 km/h (1 Bft) 95,65 %
27.09.2023 12:43 26,7 C 21,9 C 24,4 C 49 % 74 % 52 % 1023,5 hPa 0,0 l/m 1,6 km/h (1 Bft) NW 315 0,000 mm 17,0 C 21,9 C 4,8 km/h (1 Bft) 100,00 %
27.09.2023 12:42 26,7 C 21,8 C 24,4 C 49 % 75 % 52 % 1023,6 hPa 0,0 l/m 3,2 km/h (1 Bft) NW 315 0,000 mm 17,2 C 21,8 C 4,8 km/h (1 Bft) 95,65 %
27.09.2023 12:41 26,7 C 21,7 C 24,4 C 49 % 75 % 52 % 1023,6 hPa 0,0 l/m 3,2 km/h (1 Bft) NW 315 0,000 mm 17,1 C 21,7 C 4,8 km/h (1 Bft) 100,00 %
27.09.2023 12:40 26,7 C 21,6 C 24,4 C 49 % 75 % 51 % 1023,6 hPa 0,0 l/m 3,2 km/h (1 Bft) NW 315 0,000 mm 17,0 C 21,6 C 6,4 km/h (2 Bft) 91,30 %
27.09.2023 12:39 26,7 C 21,5 C 24,4 C 50 % 75 % 51 % 1023,6 hPa 0,0 l/m 3,2 km/h (1 Bft) N-NO 22 0,000 mm 16,9 C 21,5 C 4,8 km/h (1 Bft) 95,65 %
27.09.2023 12:38 26,6 C 21,4 C 24,4 C 50 % 75 % 51 % 1023,6 hPa 0,0 l/m 3,2 km/h (1 Bft) NO 45 0,000 mm 16,8 C 21,4 C 4,8 km/h (1 Bft) 100,00 %
27.09.2023 12:37 26,6 C 21,4 C 24,4 C 50 % 76 % 51 % 1023,6 hPa 0,0 l/m 3,2 km/h (1 Bft) NO 45 0,000 mm 17,0 C 21,4 C 3,2 km/h (1 Bft) 95,65 %
27.09.2023 12:36 26,6 C 21,4 C 24,4 C 50 % 75 % 51 % 1023,7 hPa 0,0 l/m 1,6 km/h (1 Bft) NO 45 0,000 mm 16,8 C 21,4 C 4,8 km/h (1 Bft) 100,00 %
27.09.2023 12:35 26,6 C 21,4 C 23,9 C 50 % 75 % 51 % 1023,6 hPa 0,0 l/m 1,6 km/h (1 Bft) NO 45 0,000 mm 16,8 C 21,4 C 1,6 km/h (1 Bft) 95,65 %
27.09.2023 12:34 26,6 C 21,4 C 23,9 C 50 % 75 % 51 % 1023,7 hPa 0,0 l/m 1,6 km/h (1 Bft) NO 45 0,000 mm 16,8 C 21,4 C 3,2 km/h (1 Bft) 100,00 %
27.09.2023 12:33 26,6 C 21,4 C 23,9 C 50 % 78 % 51 % 1023,7 hPa 0,0 l/m 3,2 km/h (1 Bft) NO 45 0,000 mm 17,4 C 21,4 C 4,8 km/h (1 Bft) 91,30 %
27.09.2023 12:32 26,6 C 21,2 C 23,9 C 50 % 78 % 52 % 1023,7 hPa 0,0 l/m 1,6 km/h (1 Bft) NO 45 0,000 mm 17,2 C 21,2 C 3,2 km/h (1 Bft) 100,00 %
27.09.2023 12:31 26,6 C 20,9 C 23,9 C 50 % 79 % 52 % 1023,8 hPa 0,0 l/m 3,2 km/h (1 Bft) NO 45 0,000 mm 17,1 C 20,9 C 4,8 km/h (1 Bft) 95,65 %
27.09.2023 12:30 26,6 C 20,8 C 23,9 C 50 % 78 % 52 % 1023,7 hPa 0,0 l/m 3,2 km/h (1 Bft) O-NO 67 0,000 mm 16,8 C 20,8 C 6,4 km/h (2 Bft) 95,65 %
27.09.2023 12:29 26,5 C 20,7 C 23,9 C 50 % 77 % 52 % 1023,7 hPa 0,0 l/m 1,6 km/h (1 Bft) O-NO 67 0,000 mm 16,5 C 20,7 C 3,2 km/h (1 Bft) 95,65 %
27.09.2023 12:28 26,5 C 20,7 C 23,9 C 50 % 76 % 52 % 1023,7 hPa 0,0 l/m 3,2 km/h (1 Bft) O-NO 67 0,000 mm 16,3 C 20,7 C 4,8 km/h (1 Bft) 95,65 %
27.09.2023 12:27 26,5 C 20,9 C 23,9 C 50 % 76 % 52 % 1023,7 hPa 0,0 l/m 3,2 km/h (1 Bft) N-NW 337 0,000 mm 16,5 C 20,9 C 4,8 km/h (1 Bft) 95,65 %
27.09.2023 12:26 26,5 C 20,9 C 23,9 C 50 % 76 % 52 % 1023,7 hPa 0,0 l/m 1,6 km/h (1 Bft) N-NW 337 0,000 mm 16,5 C 20,9 C 4,8 km/h (1 Bft) 91,30 %
27.09.2023 12:25 26,5 C 20,9 C 23,9 C 50 % 76 % 53 % 1023,7 hPa 0,0 l/m 1,6 km/h (1 Bft) N-NW 337 0,000 mm 16,5 C 20,9 C 3,2 km/h (1 Bft) 95,65 %
27.09.2023 12:24 26,4 C 20,9 C 23,9 C 50 % 76 % 53 % 1023,7 hPa 0,0 l/m 3,2 km/h (1 Bft) N-NW 337 0,000 mm 16,5 C 20,9 C 4,8 km/h (1 Bft) 95,65 %
27.09.2023 12:23 26,4 C 20,9 C 23,3 C 50 % 76 % 53 % 1023,7 hPa 0,0 l/m 4,8 km/h (1 Bft) N-NW 337 0,000 mm 16,5 C 20,9 C 6,4 km/h (2 Bft) 100,00 %
27.09.2023 12:22 26,4 C 20,9 C 23,3 C 50 % 77 % 53 % 1023,7 hPa 0,0 l/m 3,2 km/h (1 Bft) NW 315 0,000 mm 16,7 C 20,9 C 4,8 km/h (1 Bft) 95,65 %
27.09.2023 12:21 26,4 C 20,8 C 23,3 C 50 % 78 % 53 % 1023,7 hPa 0,0 l/m 3,2 km/h (1 Bft) W-NW 292 0,000 mm 16,8 C 20,8 C 6,4 km/h (2 Bft) 100,00 %
27.09.2023 12:20 26,4 C 20,7 C 23,3 C 50 % 78 % 53 % 1023,7 hPa 0,0 l/m 4,8 km/h (1 Bft) NW 315 0,000 mm 16,7 C 20,7 C 6,4 km/h (2 Bft) 95,65 %
27.09.2023 12:19 26,4 C 20,7 C 23,3 C 50 % 77 % 53 % 1023,7 hPa 0,0 l/m 4,8 km/h (1 Bft) NW 315 0,000 mm 16,5 C 20,7 C 6,4 km/h (2 Bft) 95,65 %
27.09.2023 12:18 26,4 C 20,6 C 23,3 C 50 % 77 % 54 % 1023,8 hPa 0,0 l/m 3,2 km/h (1 Bft) NW 315 0,000 mm 16,4 C 20,6 C 6,4 km/h (2 Bft) 95,65 %
27.09.2023 12:17 26,4 C 20,6 C 23,3 C 50 % 77 % 54 % 1023,7 hPa 0,0 l/m 1,6 km/h (1 Bft) N-NW 337 0,000 mm 16,4 C 20,6 C 3,2 km/h (1 Bft) 95,65 %
27.09.2023 12:16 26,4 C 20,5 C 23,3 C 50 % 77 % 54 % 1023,7 hPa 0,0 l/m 3,2 km/h (1 Bft) N-NW 337 0,000 mm 16,3 C 20,5 C 4,8 km/h (1 Bft) 95,65 %
27.09.2023 12:15 26,3 C 20,5 C 23,3 C 50 % 79 % 55 % 1023,7 hPa 0,0 l/m 1,6 km/h (1 Bft) NO 45 0,000 mm 16,7 C 20,5 C 3,2 km/h (1 Bft) 100,00 %
27.09.2023 12:14 26,3 C 20,4 C 23,3 C 50 % 79 % 55 % 1023,7 hPa 0,0 l/m 1,6 km/h (1 Bft) NO 45 0,000 mm 16,6 C 20,4 C 3,2 km/h (1 Bft) 91,30 %
27.09.2023 12:13 26,3 C 20,2 C 23,3 C 50 % 78 % 55 % 1023,7 hPa 0,0 l/m 1,6 km/h (1 Bft) NO 45 0,000 mm 16,2 C 20,2 C 3,2 km/h (1 Bft) 100,00 %
27.09.2023 12:12 26,3 C 20,2 C 23,3 C 50 % 79 % 55 % 1023,8 hPa 0,0 l/m 4,8 km/h (1 Bft) NO 45 0,000 mm 16,4 C 20,2 C 6,4 km/h (2 Bft) 91,30 %
27.09.2023 12:11 26,3 C 20,2 C 22,8 C 50 % 79 % 55 % 1023,7 hPa 0,0 l/m 3,2 km/h (1 Bft) N-NO 22 0,000 mm 16,4 C 20,2 C 4,8 km/h (1 Bft) 95,65 %
27.09.2023 12:10 26,3 C 20,1 C 22,8 C 50 % 78 % 55 % 1023,8 hPa 0,0 l/m 1,6 km/h (1 Bft) N-NO 22 0,000 mm 16,1 C 20,1 C 3,2 km/h (1 Bft) 95,65 %
27.09.2023 12:09 26,3 C 20,2 C 22,8 C 50 % 81 % 56 % 1023,7 hPa 0,0 l/m 4,8 km/h (1 Bft) N 360 0,000 mm 16,8 C 20,2 C 6,4 km/h (2 Bft) 95,65 %
27.09.2023 12:08 26,2 C 20,1 C 22,8 C 50 % 80 % 57 % 1023,8 hPa 0,0 l/m 3,2 km/h (1 Bft) W-SW 247 0,000 mm 16,5 C 20,1 C 3,2 km/h (1 Bft) 95,65 %
27.09.2023 12:07 26,3 C 19,9 C 22,8 C 50 % 79 % 57 % 1023,8 hPa 0,0 l/m 1,6 km/h (1 Bft) W-SW 247 0,000 mm 16,1 C 19,9 C 3,2 km/h (1 Bft) 91,30 %
27.09.2023 12:06 26,2 C 20,1 C 22,8 C 50 % 79 % 57 % 1023,8 hPa 0,0 l/m 3,2 km/h (1 Bft) W-SW 247 0,000 mm 16,3 C 20,1 C 4,8 km/h (1 Bft) 95,65 %
27.09.2023 12:05 26,2 C 20,2 C 22,8 C 50 % 80 % 56 % 1023,8 hPa 0,0 l/m 3,2 km/h (1 Bft) W 270 0,000 mm 16,6 C 20,2 C 4,8 km/h (1 Bft) 91,30 %
27.09.2023 12:04 26,2 C 20,2 C 22,8 C 50 % 81 % 56 % 1024,0 hPa 0,0 l/m 3,2 km/h (1 Bft) W 270 0,000 mm 16,8 C 20,2 C 6,4 km/h (2 Bft) 100,00 %
27.09.2023 12:03 26,2 C 20,2 C 22,8 C 50 % 82 % 57 % 1023,9 hPa 0,0 l/m 3,2 km/h (1 Bft) N 360 0,000 mm 17,0 C 20,2 C 4,8 km/h (1 Bft) 95,65 %
27.09.2023 12:02 26,2 C 20,0 C 22,8 C 50 % 81 % 57 % 1023,9 hPa 0,0 l/m 1,6 km/h (1 Bft) N 360 0,000 mm 16,6 C 20,0 C 3,2 km/h (1 Bft) 100,00 %
27.09.2023 12:01 26,2 C 20,0 C 22,8 C 50 % 80 % 57 % 1023,9 hPa 0,0 l/m 1,6 km/h (1 Bft) N 360 0,000 mm 16,4 C 20,0 C 3,2 km/h (1 Bft) 95,65 %
27.09.2023 12:00 26,2 C 20,1 C 22,8 C 50 % 81 % 57 % 1024,0 hPa 0,0 l/m 3,2 km/h (1 Bft) N 360 0,000 mm 16,7 C 20,1 C 4,8 km/h (1 Bft) 95,65 %
27.09.2023 11:59 26,2 C 20,1 C 22,8 C 50 % 82 % 58 % 1024,0 hPa 0,0 l/m 4,8 km/h (1 Bft) N 360 0,000 mm 16,9 C 20,1 C 6,4 km/h (2 Bft) 91,30 %
27.09.2023 11:58 26,2 C 19,9 C 22,2 C 50 % 83 % 58 % 1024,0 hPa 0,0 l/m 4,8 km/h (1 Bft) N 360 0,000 mm 16,9 C 19,9 C 6,4 km/h (2 Bft) 95,65 %
27.09.2023 11:57 26,1 C 19,8 C 22,2 C 50 % 83 % 58 % 1024,0 hPa 0,0 l/m 3,2 km/h (1 Bft) W-NW 292 0,000 mm 16,8 C 19,8 C 3,2 km/h (1 Bft) 95,65 %
27.09.2023 11:56 26,1 C 19,8 C 22,2 C 50 % 84 % 59 % 1024,0 hPa 0,0 l/m 3,2 km/h (1 Bft) W-NW 292 0,000 mm 17,0 C 19,8 C 4,8 km/h (1 Bft) 100,00 %
27.09.2023 11:55 26,1 C 19,7 C 22,2 C 50 % 83 % 59 % 1024,1 hPa 0,0 l/m 1,6 km/h (1 Bft) W-NW 292 0,000 mm 16,7 C 19,7 C 4,8 km/h (1 Bft) 91,30 %
27.09.2023 11:54 26,1 C 19,7 C 22,2 C 50 % 83 % 59 % 1024,2 hPa 0,0 l/m 3,2 km/h (1 Bft) NW 315 0,000 mm 16,7 C 19,7 C 3,2 km/h (1 Bft) 100,00 %
27.09.2023 11:53 26,1 C 19,6 C 22,2 C 50 % 83 % 58 % 1024,2 hPa 0,0 l/m 3,2 km/h (1 Bft) NW 315 0,000 mm 16,6 C 19,6 C 4,8 km/h (1 Bft) 95,65 %
27.09.2023 11:52 26,1 C 19,7 C 22,2 C 50 % 83 % 58 % 1024,1 hPa 0,0 l/m 3,2 km/h (1 Bft) NW 315 0,000 mm 16,7 C 19,7 C 4,8 km/h (1 Bft) 95,65 %
27.09.2023 11:51 26,1 C 19,6 C 22,2 C 50 % 84 % 58 % 1024,1 hPa 0,0 l/m 1,6 km/h (1 Bft) NW 315 0,000 mm 16,8 C 19,6 C 3,2 km/h (1 Bft) 95,65 %
27.09.2023 11:50 26,0 C 19,5 C 22,2 C 51 % 83 % 58 % 1024,1 hPa 0,0 l/m 1,6 km/h (1 Bft) NW 315 0,000 mm 16,5 C 19,5 C 4,8 km/h (1 Bft) 95,65 %
27.09.2023 11:49 26,0 C 19,5 C 22,2 C 51 % 83 % 57 % 1024,1 hPa 0,0 l/m 3,2 km/h (1 Bft) NW 315 0,000 mm 16,5 C 19,5 C 4,8 km/h (1 Bft) 95,65 %
27.09.2023 11:48 26,0 C 19,5 C 22,2 C 51 % 84 % 58 % 1024,2 hPa 0,0 l/m 4,8 km/h (1 Bft) NW 315 0,000 mm 16,7 C 19,5 C 4,8 km/h (1 Bft) 91,30 %
27.09.2023 11:47 25,9 C 19,5 C 22,2 C 51 % 84 % 58 % 1024,1 hPa 0,0 l/m 4,8 km/h (1 Bft) NW 315 0,000 mm 16,7 C 19,5 C 6,4 km/h (2 Bft) 95,65 %
27.09.2023 11:46 25,9 C 19,6 C 22,2 C 51 % 84 % 59 % 1024,1 hPa 0,0 l/m 3,2 km/h (1 Bft) NW 315 0,000 mm 16,8 C 19,6 C 4,8 km/h (1 Bft) 95,65 %
27.09.2023 11:45 25,9 C 19,6 C 22,2 C 51 % 84 % 59 % 1024,1 hPa 0,0 l/m 4,8 km/h (1 Bft) NW 315 0,000 mm 16,8 C 19,6 C 6,4 km/h (2 Bft) 100,00 %
27.09.2023 11:44 25,9 C 19,4 C 21,7 C 51 % 84 % 59 % 1024,0 hPa 0,0 l/m 1,6 km/h (1 Bft) NW 315 0,000 mm 16,6 C 19,4 C 4,8 km/h (1 Bft) 91,30 %
27.09.2023 11:43 25,9 C 19,4 C 21,7 C 51 % 85 % 58 % 1024,2 hPa 0,0 l/m 1,6 km/h (1 Bft) NW 315 0,000 mm 16,8 C 19,4 C 3,2 km/h (1 Bft) 100,00 %
27.09.2023 11:42 25,9 C 19,4 C 21,7 C 51 % 85 % 59 % 1024,2 hPa 0,0 l/m 0,0 km/h (0 Bft) NW 315 0,000 mm 16,8 C 19,4 C 3,2 km/h (1 Bft) 91,30 %
27.09.2023 11:41 25,8 C 19,2 C 21,7 C 51 % 85 % 58 % 1024,2 hPa 0,0 l/m 1,6 km/h (1 Bft) NW 315 0,000 mm 16,6 C 19,2 C 3,2 km/h (1 Bft) 100,00 %
27.09.2023 11:40 25,8 C 19,1 C 21,7 C 51 % 85 % 58 % 1024,1 hPa 0,0 l/m 1,6 km/h (1 Bft) N 360 0,000 mm 16,5 C 19,1 C 4,8 km/h (1 Bft) 91,30 %
27.09.2023 11:39 25,8 C 19,1 C 21,7 C 51 % 85 % 59 % 1024,1 hPa 0,0 l/m 3,2 km/h (1 Bft) N 360 0,000 mm 16,5 C 19,1 C 4,8 km/h (1 Bft) 100,00 %
27.09.2023 11:38 25,8 C 19,0 C 21,7 C 51 % 85 % 58 % 1024,2 hPa 0,0 l/m 3,2 km/h (1 Bft) N 360 0,000 mm 16,4 C 19,0 C 6,4 km/h (2 Bft) 91,30 %
27.09.2023 11:37 25,8 C 18,8 C 21,7 C 51 % 85 % 58 % 1024,1 hPa 0,0 l/m 4,8 km/h (1 Bft) N 360 0,000 mm 16,2 C 18,8 C 4,8 km/h (1 Bft) 91,30 %
27.09.2023 11:36 25,8 C 18,8 C 21,7 C 51 % 85 % 58 % 1024,1 hPa 0,0 l/m 3,2 km/h (1 Bft) N 360 0,000 mm 16,2 C 18,8 C 4,8 km/h (1 Bft) 95,65 %
27.09.2023 11:35 25,8 C 18,7 C 21,7 C 51 % 85 % 58 % 1024,2 hPa 0,0 l/m 3,2 km/h (1 Bft) N 360 0,000 mm 16,1 C 18,7 C 4,8 km/h (1 Bft) 86,96 %
27.09.2023 11:34 25,7 C 18,7 C 21,7 C 51 % 85 % 59 % 1024,2 hPa 0,0 l/m 3,2 km/h (1 Bft) N 360 0,000 mm 16,1 C 18,7 C 4,8 km/h (1 Bft) 100,00 %
27.09.2023 11:33 25,7 C 18,6 C 21,7 C 51 % 86 % 59 % 1024,1 hPa 0,0 l/m 3,2 km/h (1 Bft) N-NW 337 0,000 mm 16,2 C 18,6 C 4,8 km/h (1 Bft) 91,30 %
27.09.2023 11:32 25,7 C 18,7 C 21,7 C 51 % 86 % 59 % 1024,2 hPa 0,0 l/m 4,8 km/h (1 Bft) N-NW 337 0,000 mm 16,3 C 18,7 C 6,4 km/h (2 Bft) 100,00 %
27.09.2023 11:31 25,7 C 18,6 C 21,7 C 51 % 86 % 59 % 1024,1 hPa 0,0 l/m 4,8 km/h (1 Bft) N-NW 337 0,000 mm 16,2 C 18,6 C 6,4 km/h (2 Bft) 91,30 %
27.09.2023 11:30 25,7 C 18,6 C 21,7 C 51 % 86 % 59 % 1024,2 hPa 0,0 l/m 3,2 km/h (1 Bft) NW 315 0,000 mm 16,2 C 18,6 C 4,8 km/h (1 Bft) 95,65 %
27.09.2023 11:29 25,6 C 18,4 C 21,7 C 51 % 86 % 59 % 1024,2 hPa 0,0 l/m 4,8 km/h (1 Bft) W-NW 292 0,000 mm 16,0 C 18,4 C 9,7 km/h (2 Bft) 86,96 %
27.09.2023 11:28 25,6 C 18,3 C 21,1 C 51 % 86 % 59 % 1024,3 hPa 0,0 l/m 1,6 km/h (1 Bft) N-NO 22 0,000 mm 15,9 C 18,3 C 4,8 km/h (1 Bft) 95,65 %
27.09.2023 11:27 25,6 C 18,3 C 21,1 C 51 % 86 % 59 % 1024,2 hPa 0,0 l/m 4,8 km/h (1 Bft) N-NO 22 0,000 mm 15,9 C 18,3 C 6,4 km/h (2 Bft) 95,65 %
27.09.2023 11:26 25,6 C 18,2 C 21,1 C 51 % 86 % 59 % 1024,1 hPa 0,0 l/m 4,8 km/h (1 Bft) N-NO 22 0,000 mm 15,8 C 18,2 C 6,4 km/h (2 Bft) 91,30 %
27.09.2023 11:25 25,6 C 18,2 C 21,1 C 51 % 86 % 59 % 1024,2 hPa 0,0 l/m 4,8 km/h (1 Bft) N-NO 22 0,000 mm 15,8 C 18,2 C 6,4 km/h (2 Bft) 91,30 %
27.09.2023 11:24 25,5 C 18,2 C 21,1 C 51 % 86 % 60 % 1024,2 hPa 0,0 l/m 1,6 km/h (1 Bft) NW 315 0,000 mm 15,8 C 18,2 C 6,4 km/h (2 Bft) 95,65 %
27.09.2023 11:23 25,5 C 18,2 C 21,1 C 51 % 86 % 60 % 1024,2 hPa 0,0 l/m 3,2 km/h (1 Bft) NW 315 0,000 mm 15,8 C 18,2 C 4,8 km/h (1 Bft) 86,96 %
27.09.2023 11:22 25,4 C 18,2 C 21,1 C 51 % 86 % 60 % 1024,2 hPa 0,0 l/m 3,2 km/h (1 Bft) NW 315 0,000 mm 15,8 C 18,2 C 6,4 km/h (2 Bft) 95,65 %
27.09.2023 11:21 25,4 C 18,1 C 21,1 C 51 % 86 % 60 % 1024,3 hPa 0,0 l/m 3,2 km/h (1 Bft) NW 315 0,000 mm 15,7 C 18,1 C 6,4 km/h (2 Bft) 91,30 %
27.09.2023 11:20 25,4 C 18,2 C 21,1 C 52 % 86 % 59 % 1024,2 hPa 0,0 l/m 6,4 km/h (2 Bft) W-NW 292 0,000 mm 15,8 C 18,2 C 8,0 km/h (2 Bft) 91,30 %
27.09.2023 11:19 25,4 C 18,1 C 21,1 C 52 % 86 % 59 % 1024,3 hPa 0,0 l/m 4,8 km/h (1 Bft) NW 315 0,000 mm 15,7 C 18,1 C 8,0 km/h (2 Bft) 95,65 %
27.09.2023 11:18 25,4 C 18,1 C 21,1 C 52 % 86 % 60 % 1024,2 hPa 0,0 l/m 4,8 km/h (1 Bft) NW 315 0,000 mm 15,7 C 18,1 C 8,0 km/h (2 Bft) 95,65 %
27.09.2023 11:17 25,3 C 18,1 C 21,1 C 52 % 86 % 60 % 1024,2 hPa 0,0 l/m 4,8 km/h (1 Bft) N 360 0,000 mm 15,7 C 18,1 C 6,4 km/h (2 Bft) 95,65 %
27.09.2023 11:16 25,3 C 18,1 C 21,1 C 52 % 86 % 60 % 1024,3 hPa 0,0 l/m 3,2 km/h (1 Bft) NW 315 0,000 mm 15,7 C 18,1 C 6,4 km/h (2 Bft) 91,30 %
27.09.2023 11:15 25,3 C 18,1 C 21,1 C 52 % 86 % 60 % 1024,2 hPa 0,0 l/m 4,8 km/h (1 Bft) W-NW 292 0,000 mm 15,7 C 18,1 C 6,4 km/h (2 Bft) 95,65 %
27.09.2023 11:14 25,3 C 18,1 C 21,1 C 52 % 86 % 60 % 1024,2 hPa 0,0 l/m 4,8 km/h (1 Bft) W-NW 292 0,000 mm 15,7 C 18,1 C 6,4 km/h (2 Bft) 95,65 %
27.09.2023 11:13 25,3 C 18,2 C 20,6 C 52 % 86 % 60 % 1024,3 hPa 0,0 l/m 4,8 km/h (1 Bft) W-NW 292 0,000 mm 15,8 C 18,2 C 6,4 km/h (2 Bft) 95,65 %
27.09.2023 11:12 25,2 C 18,1 C 20,6 C 52 % 87 % 60 % 1024,3 hPa 0,0 l/m 4,8 km/h (1 Bft) W-NW 292 0,000 mm 15,9 C 18,1 C 8,0 km/h (2 Bft) 91,30 %
27.09.2023 11:11 25,2 C 18,1 C 20,6 C 52 % 87 % 60 % 1024,3 hPa 0,0 l/m 4,8 km/h (1 Bft) NW 315 0,000 mm 15,9 C 18,1 C 6,4 km/h (2 Bft) 100,00 %
27.09.2023 11:10 25,2 C 18,0 C 20,6 C 52 % 86 % 61 % 1024,2 hPa 0,0 l/m 4,8 km/h (1 Bft) NW 315 0,000 mm 15,6 C 18,0 C 8,0 km/h (2 Bft) 91,30 %
27.09.2023 11:09 25,2 C 18,0 C 20,6 C 52 % 86 % 61 % 1024,2 hPa 0,0 l/m 6,4 km/h (2 Bft) N 360 0,000 mm 15,6 C 18,0 C 8,0 km/h (2 Bft) 95,65 %
27.09.2023 11:08 25,2 C 18,0 C 20,6 C 52 % 86 % 61 % 1024,2 hPa 0,0 l/m 4,8 km/h (1 Bft) NW 315 0,000 mm 15,6 C 18,0 C 8,0 km/h (2 Bft) 91,30 %
27.09.2023 11:07 25,1 C 18,0 C 20,6 C 52 % 86 % 61 % 1024,2 hPa 0,0 l/m 4,8 km/h (1 Bft) NW 315 0,000 mm 15,6 C 18,0 C 6,4 km/h (2 Bft) 100,00 %
27.09.2023 11:06 25,1 C 18,0 C 20,6 C 52 % 86 % 61 % 1024,2 hPa 0,0 l/m 4,8 km/h (1 Bft) W-NW 292 0,000 mm 15,6 C 18,0 C 8,0 km/h (2 Bft) 91,30 %
27.09.2023 11:05 25,1 C 18,0 C 20,6 C 52 % 86 % 61 % 1024,3 hPa 0,0 l/m 4,8 km/h (1 Bft) W 270 0,000 mm 15,6 C 18,0 C 6,4 km/h (2 Bft) 91,30 %
27.09.2023 11:04 25,1 C 18,0 C 20,6 C 52 % 86 % 61 % 1024,2 hPa 0,0 l/m 4,8 km/h (1 Bft) SW 225 0,000 mm 15,6 C 18,0 C 8,0 km/h (2 Bft) 95,65 %
27.09.2023 11:03 25,1 C 18,1 C 20,6 C 52 % 86 % 61 % 1024,2 hPa 0,0 l/m 4,8 km/h (1 Bft) SW 225 0,000 mm 15,7 C 18,1 C 6,4 km/h (2 Bft) 86,96 %
27.09.2023 11:02 25,0 C 18,1 C 20,6 C 52 % 86 % 61 % 1024,2 hPa 0,0 l/m 4,8 km/h (1 Bft) W 270 0,000 mm 15,7 C 18,1 C 8,0 km/h (2 Bft) 95,65 %
27.09.2023 11:01 25,0 C 18,1 C 20,6 C 52 % 86 % 61 % 1024,1 hPa 0,0 l/m 4,8 km/h (1 Bft) W 270 0,000 mm 15,7 C 18,1 C 9,7 km/h (2 Bft) 95,65 %
27.09.2023 11:00 24,9 C 18,1 C 20,0 C 52 % 86 % 61 % 1024,2 hPa 0,0 l/m 3,2 km/h (1 Bft) W 270 0,000 mm 15,7 C 18,1 C 6,4 km/h (2 Bft) 95,65 %
27.09.2023 10:59 24,9 C 18,1 C 20,0 C 52 % 86 % 61 % 1024,2 hPa 0,0 l/m 4,8 km/h (1 Bft) W 270 0,000 mm 15,7 C 18,1 C 8,0 km/h (2 Bft) 95,65 %
27.09.2023 10:58 24,9 C 18,1 C 20,0 C 52 % 86 % 61 % 1024,3 hPa 0,0 l/m 3,2 km/h (1 Bft) NW 315 0,000 mm 15,7 C 18,1 C 4,8 km/h (1 Bft) 95,65 %
27.09.2023 10:57 24,9 C 18,2 C 20,0 C 52 % 87 % 61 % 1024,1 hPa 0,0 l/m 4,8 km/h (1 Bft) NW 315 0,000 mm 16,0 C 18,2 C 4,8 km/h (1 Bft) 95,65 %
27.09.2023 10:56 24,8 C 18,1 C 20,0 C 52 % 87 % 61 % 1024,1 hPa 0,0 l/m 1,6 km/h (1 Bft) NW 315 0,000 mm 15,9 C 18,1 C 4,8 km/h (1 Bft) 95,65 %
27.09.2023 10:55 24,8 C 17,9 C 20,0 C 52 % 87 % 61 % 1024,1 hPa 0,0 l/m 3,2 km/h (1 Bft) NW 315 0,000 mm 15,7 C 17,9 C 6,4 km/h (2 Bft) 86,96 %
27.09.2023 10:54 24,8 C 17,8 C 20,0 C 52 % 87 % 61 % 1024,1 hPa 0,0 l/m 3,2 km/h (1 Bft) NW 315 0,000 mm 15,6 C 17,8 C 4,8 km/h (1 Bft) 91,30 %
27.09.2023 10:53 24,8 C 17,8 C 20,0 C 52 % 87 % 61 % 1024,2 hPa 0,0 l/m 4,8 km/h (1 Bft) NW 315 0,000 mm 15,6 C 17,8 C 6,4 km/h (2 Bft) 95,65 %
27.09.2023 10:52 24,8 C 17,7 C 20,0 C 53 % 87 % 61 % 1024,2 hPa 0,0 l/m 3,2 km/h (1 Bft) N-NW 337 0,000 mm 15,5 C 17,7 C 4,8 km/h (1 Bft) 91,30 %
27.09.2023 10:51 24,7 C 17,7 C 20,0 C 53 % 87 % 62 % 1024,1 hPa 0,0 l/m 3,2 km/h (1 Bft) NW 315 0,000 mm 15,5 C 17,7 C 4,8 km/h (1 Bft) 100,00 %
27.09.2023 10:50 24,7 C 17,6 C 20,0 C 53 % 86 % 62 % 1024,1 hPa 0,0 l/m 1,6 km/h (1 Bft) NW 315 0,000 mm 15,2 C 17,6 C 4,8 km/h (1 Bft) 100,00 %
27.09.2023 10:49 24,7 C 17,6 C 20,0 C 53 % 86 % 62 % 1024,1 hPa 0,0 l/m 3,2 km/h (1 Bft) NW 315 0,000 mm 15,2 C 17,6 C 6,4 km/h (2 Bft) 100,00 %
27.09.2023 10:48 24,7 C 17,7 C 20,0 C 53 % 86 % 62 % 1024,2 hPa 0,0 l/m 3,2 km/h (1 Bft) NW 315 0,000 mm 15,3 C 17,7 C 4,8 km/h (1 Bft) 100,00 %
27.09.2023 10:47 24,7 C 17,7 C 20,0 C 53 % 88 % 61 % 1024,1 hPa 0,0 l/m 1,6 km/h (1 Bft) NW 315 0,000 mm 15,7 C 17,7 C 3,2 km/h (1 Bft) 91,30 %
27.09.2023 10:46 24,6 C 17,6 C 19,4 C 53 % 87 % 61 % 1024,2 hPa 0,0 l/m 3,2 km/h (1 Bft) NW 315 0,000 mm 15,4 C 17,6 C 4,8 km/h (1 Bft) 100,00 %
27.09.2023 10:45 24,6 C 17,6 C 19,4 C 53 % 87 % 61 % 1024,2 hPa 0,0 l/m 0,0 km/h (0 Bft) NW 315 0,000 mm 15,4 C 17,6 C 3,2 km/h (1 Bft) 95,65 %
27.09.2023 10:44 24,6 C 17,6 C 19,4 C 53 % 88 % 61 % 1024,2 hPa 0,0 l/m 1,6 km/h (1 Bft) NW 315 0,000 mm 15,6 C 17,6 C 3,2 km/h (1 Bft) 95,65 %
27.09.2023 10:43 24,6 C 17,5 C 19,4 C 53 % 87 % 62 % 1024,2 hPa 0,0 l/m 1,6 km/h (1 Bft) NW 315 0,000 mm 15,3 C 17,5 C 3,2 km/h (1 Bft) 100,00 %
27.09.2023 10:42 24,6 C 17,7 C 19,4 C 53 % 87 % 61 % 1024,3 hPa 0,0 l/m 1,6 km/h (1 Bft) NW 315 0,000 mm 15,5 C 17,7 C 3,2 km/h (1 Bft) 95,65 %
27.09.2023 10:41 24,5 C 17,6 C 19,4 C 53 % 88 % 62 % 1024,2 hPa 0,0 l/m 4,8 km/h (1 Bft) NW 315 0,000 mm 15,6 C 17,6 C 6,4 km/h (2 Bft) 100,00 %
27.09.2023 10:40 24,4 C 17,6 C 19,4 C 53 % 88 % 62 % 1024,3 hPa 0,0 l/m 3,2 km/h (1 Bft) NW 315 0,000 mm 15,6 C 17,6 C 4,8 km/h (1 Bft) 95,65 %
27.09.2023 10:39 24,4 C 17,4 C 19,4 C 53 % 89 % 62 % 1024,3 hPa 0,0 l/m 4,8 km/h (1 Bft) NW 315 0,000 mm 15,6 C 17,4 C 6,4 km/h (2 Bft) 100,00 %
27.09.2023 10:38 24,4 C 17,3 C 19,4 C 53 % 89 % 62 % 1024,4 hPa 0,0 l/m 3,2 km/h (1 Bft) NW 315 0,000 mm 15,5 C 17,3 C 4,8 km/h (1 Bft) 100,00 %
27.09.2023 10:37 24,4 C 17,2 C 19,4 C 53 % 89 % 62 % 1024,3 hPa 0,0 l/m 4,8 km/h (1 Bft) NW 315 0,000 mm 15,4 C 17,2 C 6,4 km/h (2 Bft) 100,00 %
27.09.2023 10:36 24,4 C 17,2 C 19,4 C 53 % 89 % 62 % 1024,3 hPa 0,0 l/m 3,2 km/h (1 Bft) W-NW 292 0,000 mm 15,4 C 17,2 C 4,8 km/h (1 Bft) 100,00 %
27.09.2023 10:35 24,3 C 17,1 C 19,4 C 53 % 89 % 63 % 1024,3 hPa 0,0 l/m 1,6 km/h (1 Bft) W-NW 292 0,000 mm 15,3 C 17,1 C 3,2 km/h (1 Bft) 100,00 %
27.09.2023 10:34 24,3 C 17,0 C 18,9 C 53 % 89 % 63 % 1024,3 hPa 0,0 l/m 3,2 km/h (1 Bft) W-NW 292 0,000 mm 15,2 C 17,0 C 4,8 km/h (1 Bft) 100,00 %
27.09.2023 10:33 24,3 C 17,0 C 18,9 C 53 % 90 % 62 % 1024,3 hPa 0,0 l/m 1,6 km/h (1 Bft) W-NW 292 0,000 mm 15,3 C 17,0 C 3,2 km/h (1 Bft) 95,65 %
27.09.2023 10:32 24,3 C 16,9 C 18,9 C 53 % 90 % 62 % 1024,2 hPa 0,0 l/m 3,2 km/h (1 Bft) W-NW 292 0,000 mm 15,2 C 16,9 C 4,8 km/h (1 Bft) 100,00 %
27.09.2023 10:31 24,2 C 16,8 C 18,9 C 53 % 90 % 62 % 1024,3 hPa 0,0 l/m 1,6 km/h (1 Bft) W-NW 292 0,000 mm 15,1 C 16,8 C 3,2 km/h (1 Bft) 95,65 %
27.09.2023 10:30 24,2 C 16,7 C 18,9 C 53 % 91 % 62 % 1024,3 hPa 0,0 l/m 1,6 km/h (1 Bft) W-NW 292 0,000 mm 15,2 C 16,7 C 3,2 km/h (1 Bft) 100,00 %
27.09.2023 10:29 24,2 C 16,6 C 18,9 C 53 % 91 % 63 % 1024,3 hPa 0,0 l/m 3,2 km/h (1 Bft) W-NW 292 0,000 mm 15,1 C 16,6 C 4,8 km/h (1 Bft) 100,00 %
27.09.2023 10:28 24,2 C 16,4 C 18,9 C 53 % 91 % 63 % 1024,3 hPa 0,0 l/m 3,2 km/h (1 Bft) W 270 0,000 mm 14,9 C 16,4 C 4,8 km/h (1 Bft) 100,00 %
27.09.2023 10:27 24,2 C 16,3 C 18,9 C 53 % 91 % 63 % 1024,2 hPa 0,0 l/m 0,0 km/h (0 Bft) W 270 0,000 mm 14,8 C 16,3 C 1,6 km/h (1 Bft) 100,00 %
27.09.2023 10:26 24,2 C 16,3 C 18,9 C 53 % 91 % 62 % 1024,2 hPa 0,0 l/m 0,0 km/h (0 Bft) W 270 0,000 mm 14,8 C 16,3 C 1,6 km/h (1 Bft) 95,65 %
27.09.2023 10:25 24,1 C 16,2 C 18,9 C 53 % 91 % 62 % 1024,2 hPa 0,0 l/m 1,6 km/h (1 Bft) W 270 0,000 mm 14,7 C 16,2 C 4,8 km/h (1 Bft) 100,00 %
27.09.2023 10:24 24,1 C 16,2 C 18,9 C 53 % 92 % 62 % 1024,2 hPa 0,0 l/m 1,6 km/h (1 Bft) W 270 0,000 mm 14,9 C 16,2 C 3,2 km/h (1 Bft) 100,00 %
27.09.2023 10:23 24,1 C 16,3 C 18,9 C 53 % 92 % 63 % 1024,2 hPa 0,0 l/m 1,6 km/h (1 Bft) W 270 0,000 mm 15,0 C 16,3 C 3,2 km/h (1 Bft) 100,00 %
27.09.2023 10:22 24,1 C 16,3 C 18,3 C 54 % 93 % 62 % 1024,2 hPa 0,0 l/m 1,6 km/h (1 Bft) W-SW 247 0,000 mm 15,2 C 16,3 C 3,2 km/h (1 Bft) 100,00 %
27.09.2023 10:21 24,1 C 16,2 C 18,3 C 54 % 93 % 63 % 1024,2 hPa 0,0 l/m 3,2 km/h (1 Bft) W-SW 247 0,000 mm 15,1 C 16,2 C 4,8 km/h (1 Bft) 100,00 %
27.09.2023 10:20 24,0 C 16,1 C 18,3 C 54 % 93 % 63 % 1024,1 hPa 0,0 l/m 1,6 km/h (1 Bft) W-SW 247 0,000 mm 15,0 C 16,1 C 3,2 km/h (1 Bft) 100,00 %
27.09.2023 10:19 24,0 C 16,1 C 18,3 C 54 % 94 % 63 % 1024,1 hPa 0,0 l/m 0,0 km/h (0 Bft) W-SW 247 0,000 mm 15,1 C 16,1 C 1,6 km/h (1 Bft) 91,30 %
27.09.2023 10:18 24,0 C 15,9 C 18,3 C 54 % 95 % 63 % 1024,2 hPa 0,0 l/m 1,6 km/h (1 Bft) W-SW 247 0,000 mm 15,1 C 15,9 C 3,2 km/h (1 Bft) 100,00 %
27.09.2023 10:17 23,9 C 15,8 C 18,3 C 54 % 95 % 63 % 1024,2 hPa 0,0 l/m 1,6 km/h (1 Bft) W-SW 247 0,000 mm 15,0 C 15,8 C 4,8 km/h (1 Bft) 100,00 %
27.09.2023 10:16 23,9 C 15,6 C 18,3 C 54 % 96 % 63 % 1024,2 hPa 0,0 l/m 1,6 km/h (1 Bft) W-SW 247 0,000 mm 15,0 C 15,6 C 4,8 km/h (1 Bft) 100,00 %
27.09.2023 10:15 23,9 C 15,4 C 18,3 C 54 % 96 % 63 % 1024,2 hPa 0,0 l/m 1,6 km/h (1 Bft) W-SW 247 0,000 mm 14,8 C 15,4 C 3,2 km/h (1 Bft) 100,00 %
27.09.2023 10:14 23,9 C 15,3 C 18,3 C 54 % 97 % 63 % 1024,3 hPa 0,0 l/m 1,6 km/h (1 Bft) W-SW 247 0,000 mm 14,8 C 15,3 C 3,2 km/h (1 Bft) 100,00 %
27.09.2023 10:13 23,9 C 15,1 C 18,3 C 54 % 96 % 63 % 1024,2 hPa 0,0 l/m 0,0 km/h (0 Bft) W-SW 247 0,000 mm 14,5 C 15,1 C 1,6 km/h (1 Bft) 100,00 %
27.09.2023 10:12 23,8 C 15,0 C 18,3 C 54 % 96 % 63 % 1024,3 hPa 0,0 l/m 0,0 km/h (0 Bft) W-SW 247 0,000 mm 14,4 C 15,0 C 3,2 km/h (1 Bft) 95,65 %
27.09.2023 10:11 23,8 C 14,9 C 18,3 C 54 % 96 % 64 % 1024,3 hPa 0,0 l/m 0,0 km/h (0 Bft) W-SW 247 0,000 mm 14,3 C 14,9 C 1,6 km/h (1 Bft) 100,00 %
27.09.2023 10:10 23,8 C 14,9 C 18,3 C 54 % 96 % 64 % 1024,3 hPa 0,0 l/m 1,6 km/h (1 Bft) W-SW 247 0,000 mm 14,3 C 14,9 C 3,2 km/h (1 Bft) 100,00 %
27.09.2023 10:09 23,8 C 14,9 C 17,8 C 54 % 96 % 64 % 1024,3 hPa 0,0 l/m 1,6 km/h (1 Bft) W-SW 247 0,000 mm 14,3 C 14,9 C 3,2 km/h (1 Bft) 100,00 %
27.09.2023 10:08 23,8 C 14,8 C 17,8 C 54 % 96 % 65 % 1024,3 hPa 0,0 l/m 0,0 km/h (0 Bft) W-SW 247 0,000 mm 14,2 C 14,8 C 1,6 km/h (1 Bft) 100,00 %
27.09.2023 10:07 23,7 C 14,8 C 17,8 C 54 % 96 % 65 % 1024,2 hPa 0,0 l/m 0,0 km/h (0 Bft) W-SW 247 0,000 mm 14,2 C 14,8 C 1,6 km/h (1 Bft) 100,00 %
27.09.2023 10:06 23,7 C 14,7 C 17,8 C 54 % 96 % 65 % 1024,2 hPa 0,0 l/m 0,0 km/h (0 Bft) N 0 0,000 mm 14,1 C 14,7 C 0,0 km/h (0 Bft) 100,00 %
27.09.2023 10:05 23,7 C 14,7 C 17,8 C 54 % 96 % 66 % 1024,2 hPa 0,0 l/m 0,0 km/h (0 Bft) N 0 0,000 mm 14,1 C 14,7 C 0,0 km/h (0 Bft) 95,65 %
27.09.2023 10:04 23,7 C 14,6 C 17,8 C 54 % 96 % 66 % 1024,2 hPa 0,0 l/m 0,0 km/h (0 Bft) W-SW 247 0,000 mm 14,0 C 14,6 C 1,6 km/h (1 Bft) 100,00 %
27.09.2023 10:03 23,7 C 14,6 C 17,8 C 54 % 97 % 65 % 1024,2 hPa 0,0 l/m 0,0 km/h (0 Bft) W-SW 247 0,000 mm 14,1 C 14,6 C 1,6 km/h (1 Bft) 100,00 %
27.09.2023 10:02 23,7 C 14,6 C 17,8 C 54 % 97 % 65 % 1024,3 hPa 0,0 l/m 0,0 km/h (0 Bft) N 0 0,000 mm 14,1 C 14,6 C 0,0 km/h (0 Bft) 100,00 %
27.09.2023 10:01 23,6 C 14,5 C 17,8 C 54 % 97 % 65 % 1024,2 hPa 0,0 l/m 0,0 km/h (0 Bft) W-SW 247 0,000 mm 14,0 C 14,5 C 1,6 km/h (1 Bft) 100,00 %
27.09.2023 10:00 23,6 C 14,4 C 17,8 C 54 % 96 % 65 % 1024,2 hPa 0,0 l/m 0,0 km/h (0 Bft) W-SW 247 0,000 mm 13,8 C 14,4 C 1,6 km/h (1 Bft) 100,00 %
27.09.2023 09:59 23,6 C 14,4 C 17,8 C 54 % 96 % 64 % 1024,2 hPa 0,0 l/m 0,0 km/h (0 Bft) N 0 0,000 mm 13,8 C 14,4 C 0,0 km/h (0 Bft) 100,00 %
27.09.2023 09:58 23,6 C 14,3 C 17,8 C 54 % 96 % 64 % 1024,1 hPa 0,0 l/m 0,0 km/h (0 Bft) N 0 0,000 mm 13,7 C 14,3 C 0,0 km/h (0 Bft) 95,65 %
27.09.2023 09:57 23,6 C 14,3 C 17,8 C 54 % 96 % 64 % 1024,2 hPa 0,0 l/m 1,6 km/h (1 Bft) W-SW 247 0,000 mm 13,7 C 14,3 C 3,2 km/h (1 Bft) 100,00 %
27.09.2023 09:56 23,6 C 14,3 C 17,2 C 54 % 96 % 64 % 1024,2 hPa 0,0 l/m 0,0 km/h (0 Bft) W-SW 247 0,000 mm 13,7 C 14,3 C 1,6 km/h (1 Bft) 100,00 %
27.09.2023 09:55 23,5 C 14,3 C 17,2 C 54 % 97 % 64 % 1024,1 hPa 0,0 l/m 0,0 km/h (0 Bft) N 0 0,000 mm 13,8 C 14,3 C 0,0 km/h (0 Bft) 100,00 %
27.09.2023 09:54 23,5 C 14,2 C 17,2 C 54 % 97 % 64 % 1024,1 hPa 0,0 l/m 0,0 km/h (0 Bft) N 0 0,000 mm 13,7 C 14,2 C 0,0 km/h (0 Bft) 100,00 %
27.09.2023 09:53 23,5 C 14,2 C 17,2 C 54 % 97 % 64 % 1024,1 hPa 0,0 l/m 0,0 km/h (0 Bft) N 0 0,000 mm 13,7 C 14,2 C 0,0 km/h (0 Bft) 100,00 %
27.09.2023 09:52 23,4 C 14,2 C 17,2 C 54 % 97 % 64 % 1024,1 hPa 0,0 l/m 0,0 km/h (0 Bft) N 0 0,000 mm 13,7 C 14,2 C 0,0 km/h (0 Bft) 100,00 %
27.09.2023 09:51 23,4 C 14,1 C 17,2 C 54 % 97 % 64 % 1024,0 hPa 0,0 l/m 0,0 km/h (0 Bft) N 0 0,000 mm 13,6 C 14,1 C 0,0 km/h (0 Bft) 91,30 %
27.09.2023 09:50 23,4 C 14,1 C 17,2 C 54 % 96 % 64 % 1024,1 hPa 0,0 l/m 0,0 km/h (0 Bft) N 0 0,000 mm 13,5 C 14,1 C 0,0 km/h (0 Bft) 95,65 %
27.09.2023 09:49 23,4 C 14,1 C 17,2 C 54 % 96 % 64 % 1024,0 hPa 0,0 l/m 0,0 km/h (0 Bft) N 0 0,000 mm 13,5 C 14,1 C 0,0 km/h (0 Bft) 100,00 %
27.09.2023 09:48 23,4 C 14,1 C 17,2 C 55 % 96 % 65 % 1024,0 hPa 0,0 l/m 0,0 km/h (0 Bft) N 0 0,000 mm 13,5 C 14,1 C 0,0 km/h (0 Bft) 100,00 %
27.09.2023 09:47 23,4 C 14,1 C 17,2 C 55 % 96 % 65 % 1024,0 hPa 0,0 l/m 0,0 km/h (0 Bft) N 0 0,000 mm 13,5 C 14,1 C 0,0 km/h (0 Bft) 100,00 %
27.09.2023 09:46 23,4 C 14,1 C 17,2 C 55 % 97 % 65 % 1024,1 hPa 0,0 l/m 0,0 km/h (0 Bft) N 0 0,000 mm 13,6 C 14,1 C 0,0 km/h (0 Bft) 100,00 %
27.09.2023 09:45 23,3 C 14,0 C 17,2 C 55 % 97 % 65 % 1024,0 hPa 0,0 l/m 0,0 km/h (0 Bft) N 0 0,000 mm 13,5 C 14,0 C 0,0 km/h (0 Bft) 100,00 %
27.09.2023 09:44 23,3 C 13,9 C 17,2 C 55 % 97 % 65 % 1024,0 hPa 0,0 l/m 0,0 km/h (0 Bft) N 0 0,000 mm 13,4 C 13,9 C 0,0 km/h (0 Bft) 95,65 %
27.09.2023 09:43 23,3 C 13,9 C 16,7 C 55 % 97 % 65 % 1024,0 hPa 0,0 l/m 0,0 km/h (0 Bft) N 0 0,000 mm 13,4 C 13,9 C 0,0 km/h (0 Bft) 100,00 %
27.09.2023 09:42 23,3 C 13,8 C 16,7 C 55 % 97 % 65 % 1024,0 hPa 0,0 l/m 0,0 km/h (0 Bft) N 0 0,000 mm 13,3 C 13,8 C 0,0 km/h (0 Bft) 100,00 %
27.09.2023 09:41 23,3 C 13,8 C 16,7 C 55 % 97 % 65 % 1024,0 hPa 0,0 l/m 0,0 km/h (0 Bft) N 0 0,000 mm 13,3 C 13,8 C 0,0 km/h (0 Bft) 100,00 %
27.09.2023 09:40 23,3 C 13,8 C 16,7 C 55 % 96 % 66 % 1023,9 hPa 0,0 l/m 0,0 km/h (0 Bft) N 0 0,000 mm 13,2 C 13,8 C 0,0 km/h (0 Bft) 95,65 %
27.09.2023 09:39 23,3 C 13,8 C 16,7 C 55 % 96 % 66 % 1024,0 hPa 0,0 l/m 0,0 km/h (0 Bft) N 0 0,000 mm 13,2 C 13,8 C 0,0 km/h (0 Bft) 100,00 %
27.09.2023 09:38 23,3 C 13,8 C 16,7 C 55 % 96 % 66 % 1024,0 hPa 0,0 l/m 0,0 km/h (0 Bft) W-SW 247 0,000 mm 13,2 C 13,8 C 1,6 km/h (1 Bft) 100,00 %
27.09.2023 09:37 23,3 C 13,8 C 16,7 C 55 % 96 % 66 % 1024,0 hPa 0,0 l/m 1,6 km/h (1 Bft) W-SW 247 0,000 mm 13,2 C 13,8 C 3,2 km/h (1 Bft) 95,65 %
27.09.2023 09:36 23,3 C 13,8 C 16,7 C 55 % 96 % 66 % 1024,0 hPa 0,0 l/m 0,0 km/h (0 Bft) W-SW 247 0,000 mm 13,2 C 13,8 C 3,2 km/h (1 Bft) 100,00 %
27.09.2023 09:35 23,3 C 13,8 C 16,7 C 55 % 97 % 66 % 1024,0 hPa 0,0 l/m 0,0 km/h (0 Bft) W-SW 247 0,000 mm 13,3 C 13,8 C 1,6 km/h (1 Bft) 100,00 %
27.09.2023 09:34 23,2 C 13,8 C 16,7 C 55 % 97 % 67 % 1024,0 hPa 0,0 l/m 1,6 km/h (1 Bft) W-SW 247 0,000 mm 13,3 C 13,8 C 3,2 km/h (1 Bft) 95,65 %
27.09.2023 09:33 23,3 C 13,8 C 16,1 C 55 % 96 % 67 % 1024,0 hPa 0,0 l/m 1,6 km/h (1 Bft) W-SW 247 0,000 mm 13,2 C 13,8 C 3,2 km/h (1 Bft) 95,65 %
27.09.2023 09:32 23,2 C 13,8 C 16,1 C 55 % 96 % 67 % 1024,0 hPa 0,0 l/m 1,6 km/h (1 Bft) W-SW 247 0,000 mm 13,2 C 13,8 C 4,8 km/h (1 Bft) 95,65 %
27.09.2023 09:31 23,2 C 13,8 C 16,1 C 55 % 96 % 68 % 1023,9 hPa 0,0 l/m 1,6 km/h (1 Bft) W-SW 247 0,000 mm 13,2 C 13,8 C 3,2 km/h (1 Bft) 95,65 %
27.09.2023 09:30 23,2 C 13,8 C 16,1 C 55 % 96 % 68 % 1023,9 hPa 0,0 l/m 1,6 km/h (1 Bft) W-SW 247 0,000 mm 13,2 C 13,8 C 4,8 km/h (1 Bft) 95,65 %
27.09.2023 09:29 23,2 C 13,8 C 16,1 C 55 % 97 % 68 % 1023,9 hPa 0,0 l/m 1,6 km/h (1 Bft) W-SW 247 0,000 mm 13,3 C 13,8 C 3,2 km/h (1 Bft) 100,00 %
27.09.2023 09:28 23,2 C 13,9 C 16,1 C 55 % 97 % 68 % 1023,9 hPa 0,0 l/m 3,2 km/h (1 Bft) W-SW 247 0,000 mm 13,4 C 13,9 C 4,8 km/h (1 Bft) 100,00 %
27.09.2023 09:27 23,2 C 13,8 C 16,1 C 55 % 97 % 69 % 1023,8 hPa 0,0 l/m 1,6 km/h (1 Bft) W-SW 247 0,000 mm 13,3 C 13,8 C 3,2 km/h (1 Bft) 95,65 %
27.09.2023 09:26 23,2 C 13,8 C 16,1 C 55 % 97 % 69 % 1023,9 hPa 0,0 l/m 1,6 km/h (1 Bft) W-SW 247 0,000 mm 13,3 C 13,8 C 3,2 km/h (1 Bft) 100,00 %
27.09.2023 09:25 23,1 C 13,8 C 16,1 C 55 % 97 % 69 % 1023,9 hPa 0,0 l/m 1,6 km/h (1 Bft) W-SW 247 0,000 mm 13,3 C 13,8 C 3,2 km/h (1 Bft) 95,65 %
27.09.2023 09:24 23,1 C 13,8 C 16,1 C 55 % 97 % 70 % 1023,9 hPa 0,0 l/m 1,6 km/h (1 Bft) W-SW 247 0,000 mm 13,3 C 13,8 C 3,2 km/h (1 Bft) 95,65 %
27.09.2023 09:23 23,1 C 13,8 C 16,1 C 55 % 97 % 70 % 1024,0 hPa 0,0 l/m 3,2 km/h (1 Bft) W-SW 247 0,000 mm 13,3 C 13,8 C 4,8 km/h (1 Bft) 95,65 %
27.09.2023 09:22 23,1 C 13,7 C 15,6 C 55 % 97 % 71 % 1024,0 hPa 0,0 l/m 3,2 km/h (1 Bft) W-SW 247 0,000 mm 13,2 C 13,7 C 4,8 km/h (1 Bft) 95,65 %
27.09.2023 09:21 23,0 C 13,7 C 15,6 C 55 % 97 % 71 % 1023,9 hPa 0,0 l/m 1,6 km/h (1 Bft) W-SW 247 0,000 mm 13,2 C 13,7 C 4,8 km/h (1 Bft) 100,00 %
27.09.2023 09:20 23,1 C 13,7 C 15,6 C 55 % 97 % 71 % 1023,9 hPa 0,0 l/m 0,0 km/h (0 Bft) N 0 0,000 mm 13,2 C 13,7 C 0,0 km/h (0 Bft) 95,65 %
27.09.2023 09:19 23,0 C 13,7 C 15,6 C 55 % 97 % 71 % 1023,9 hPa 0,0 l/m 1,6 km/h (1 Bft) SW 225 0,000 mm 13,2 C 13,7 C 3,2 km/h (1 Bft) 100,00 %
27.09.2023 09:18 23,0 C 13,6 C 15,6 C 55 % 97 % 71 % 1023,9 hPa 0,0 l/m 3,2 km/h (1 Bft) SW 225 0,000 mm 13,1 C 13,6 C 4,8 km/h (1 Bft) 95,65 %
27.09.2023 09:17 23,0 C 13,6 C 15,6 C 55 % 97 % 71 % 1024,0 hPa 0,0 l/m 1,6 km/h (1 Bft) SW 225 0,000 mm 13,1 C 13,6 C 1,6 km/h (1 Bft) 91,30 %
27.09.2023 09:16 22,9 C 13,6 C 15,6 C 55 % 97 % 71 % 1023,9 hPa 0,0 l/m 1,6 km/h (1 Bft) SW 225 0,000 mm 13,1 C 13,6 C 3,2 km/h (1 Bft) 95,65 %
27.09.2023 09:15 22,9 C 13,6 C 15,6 C 55 % 97 % 72 % 1023,8 hPa 0,0 l/m 3,2 km/h (1 Bft) SW 225 0,000 mm 13,1 C 13,6 C 4,8 km/h (1 Bft) 95,65 %
27.09.2023 09:14 22,9 C 13,5 C 15,6 C 55 % 97 % 72 % 1023,8 hPa 0,0 l/m 1,6 km/h (1 Bft) SW 225 0,000 mm 13,0 C 13,5 C 4,8 km/h (1 Bft) 100,00 %
27.09.2023 09:13 22,9 C 13,5 C 15,6 C 55 % 97 % 72 % 1023,9 hPa 0,0 l/m 3,2 km/h (1 Bft) SW 225 0,000 mm 13,0 C 13,5 C 4,8 km/h (1 Bft) 95,65 %
27.09.2023 09:12 22,8 C 13,4 C 15,6 C 55 % 97 % 72 % 1023,7 hPa 0,0 l/m 1,6 km/h (1 Bft) SW 225 0,000 mm 12,9 C 13,4 C 4,8 km/h (1 Bft) 95,65 %
27.09.2023 09:11 22,8 C 13,4 C 15,0 C 55 % 97 % 72 % 1024,0 hPa 0,0 l/m 0,0 km/h (0 Bft) SW 225 0,000 mm 12,9 C 13,4 C 1,6 km/h (1 Bft) 95,65 %
27.09.2023 09:10 22,8 C 13,4 C 15,0 C 55 % 97 % 72 % 1023,8 hPa 0,0 l/m 1,6 km/h (1 Bft) SW 225 0,000 mm 12,9 C 13,4 C 1,6 km/h (1 Bft) 95,65 %
27.09.2023 09:09 22,7 C 13,3 C 15,0 C 55 % 97 % 73 % 1023,8 hPa 0,0 l/m 3,2 km/h (1 Bft) SW 225 0,000 mm 12,8 C 13,3 C 3,2 km/h (1 Bft) 91,30 %
27.09.2023 09:08 22,7 C 13,3 C 15,0 C 55 % 97 % 73 % 1023,8 hPa 0,0 l/m 1,6 km/h (1 Bft) SW 225 0,000 mm 12,8 C 13,3 C 3,2 km/h (1 Bft) 95,65 %
27.09.2023 09:07 22,7 C 13,2 C 15,0 C 55 % 97 % 73 % 1023,9 hPa 0,0 l/m 1,6 km/h (1 Bft) SW 225 0,000 mm 12,7 C 13,2 C 3,2 km/h (1 Bft) 95,65 %
27.09.2023 09:06 22,7 C 13,2 C 15,0 C 56 % 97 % 73 % 1023,9 hPa 0,0 l/m 1,6 km/h (1 Bft) SW 225 0,000 mm 12,7 C 13,2 C 3,2 km/h (1 Bft) 95,65 %
27.09.2023 09:05 22,7 C 13,2 C 15,0 C 56 % 97 % 73 % 1023,9 hPa 0,0 l/m 3,2 km/h (1 Bft) SW 225 0,000 mm 12,7 C 13,2 C 6,4 km/h (2 Bft) 100,00 %
27.09.2023 09:04 22,7 C 13,2 C 15,0 C 56 % 97 % 73 % 1023,9 hPa 0,0 l/m 3,2 km/h (1 Bft) SW 225 0,000 mm 12,7 C 13,2 C 4,8 km/h (1 Bft) 95,65 %
27.09.2023 09:03 22,6 C 13,2 C 15,0 C 56 % 97 % 73 % 1023,9 hPa 0,0 l/m 4,8 km/h (1 Bft) SW 225 0,000 mm 12,7 C 13,2 C 6,4 km/h (2 Bft) 100,00 %
27.09.2023 09:02 22,6 C 13,1 C 15,0 C 56 % 97 % 73 % 1023,9 hPa 0,0 l/m 3,2 km/h (1 Bft) SW 225 0,000 mm 12,6 C 13,1 C 6,4 km/h (2 Bft) 91,30 %
27.09.2023 09:01 22,6 C 13,1 C 15,0 C 56 % 97 % 73 % 1023,9 hPa 0,0 l/m 1,6 km/h (1 Bft) SW 225 0,000 mm 12,6 C 13,1 C 3,2 km/h (1 Bft) 91,30 %
27.09.2023 09:00 22,6 C 13,1 C 15,0 C 56 % 96 % 73 % 1024,0 hPa 0,0 l/m 0,0 km/h (0 Bft) SW 225 0,000 mm 12,5 C 13,1 C 1,6 km/h (1 Bft) 100,00 %
27.09.2023 08:59 22,6 C 13,0 C 15,0 C 56 % 96 % 73 % 1023,9 hPa 0,0 l/m 0,0 km/h (0 Bft) SW 225 0,000 mm 12,4 C 13,0 C 1,6 km/h (1 Bft) 91,30 %
27.09.2023 08:58 22,6 C 13,1 C 14,4 C 56 % 96 % 73 % 1023,9 hPa 0,0 l/m 0,0 km/h (0 Bft) SW 225 0,000 mm 12,5 C 13,1 C 1,6 km/h (1 Bft) 100,00 %
27.09.2023 08:57 22,6 C 13,0 C 14,4 C 56 % 96 % 73 % 1024,0 hPa 0,0 l/m 1,6 km/h (1 Bft) SW 225 0,000 mm 12,4 C 13,0 C 3,2 km/h (1 Bft) 91,30 %
27.09.2023 08:56 22,6 C 12,9 C 14,4 C 56 % 96 % 72 % 1023,9 hPa 0,0 l/m 0,0 km/h (0 Bft) SW 225 0,000 mm 12,3 C 12,9 C 1,6 km/h (1 Bft) 100,00 %
27.09.2023 08:55 22,6 C 12,9 C 14,4 C 56 % 96 % 72 % 1023,9 hPa 0,0 l/m 0,0 km/h (0 Bft) SW 225 0,000 mm 12,3 C 12,9 C 1,6 km/h (1 Bft) 86,96 %
27.09.2023 08:54 22,6 C 12,9 C 14,4 C 56 % 96 % 72 % 1023,8 hPa 0,0 l/m 1,6 km/h (1 Bft) SW 225 0,000 mm 12,3 C 12,9 C 3,2 km/h (1 Bft) 100,00 %
27.09.2023 08:53 22,6 C 12,9 C 14,4 C 56 % 96 % 72 % 1023,8 hPa 0,0 l/m 1,6 km/h (1 Bft) SW 225 0,000 mm 12,3 C 12,9 C 4,8 km/h (1 Bft) 100,00 %
27.09.2023 08:52 22,5 C 12,9 C 14,4 C 56 % 96 % 72 % 1023,9 hPa 0,0 l/m 0,0 km/h (0 Bft) SW 225 0,000 mm 12,3 C 12,9 C 3,2 km/h (1 Bft) 100,00 %
27.09.2023 08:51 22,5 C 12,8 C 14,4 C 56 % 96 % 72 % 1023,9 hPa 0,0 l/m 1,6 km/h (1 Bft) SW 225 0,000 mm 12,2 C 12,8 C 3,2 km/h (1 Bft) 100,00 %
27.09.2023 08:50 22,5 C 12,9 C 14,4 C 56 % 96 % 72 % 1023,8 hPa 0,0 l/m 3,2 km/h (1 Bft) SW 225 0,000 mm 12,3 C 12,9 C 4,8 km/h (1 Bft) 100,00 %
27.09.2023 08:49 22,4 C 12,8 C 14,4 C 56 % 97 % 72 % 1023,8 hPa 0,0 l/m 1,6 km/h (1 Bft) W-SW 247 0,000 mm 12,3 C 12,8 C 3,2 km/h (1 Bft) 95,65 %
27.09.2023 08:48 22,4 C 12,8 C 14,4 C 56 % 97 % 72 % 1023,8 hPa 0,0 l/m 1,6 km/h (1 Bft) W-SW 247 0,000 mm 12,3 C 12,8 C 3,2 km/h (1 Bft) 95,65 %
27.09.2023 08:47 22,5 C 12,8 C 14,4 C 56 % 97 % 72 % 1023,9 hPa 0,0 l/m 1,6 km/h (1 Bft) W-SW 247 0,000 mm 12,3 C 12,8 C 3,2 km/h (1 Bft) 100,00 %
27.09.2023 08:46 22,4 C 12,8 C 14,4 C 56 % 96 % 72 % 1023,8 hPa 0,0 l/m 3,2 km/h (1 Bft) W-SW 247 0,000 mm 12,2 C 12,8 C 4,8 km/h (1 Bft) 100,00 %
27.09.2023 08:45 22,4 C 12,8 C 14,4 C 56 % 96 % 72 % 1023,8 hPa 0,0 l/m 3,2 km/h (1 Bft) W-NW 292 0,000 mm 12,2 C 12,8 C 4,8 km/h (1 Bft) 95,65 %
27.09.2023 08:44 22,4 C 12,8 C 14,4 C 56 % 96 % 71 % 1023,8 hPa 0,0 l/m 1,6 km/h (1 Bft) W-NW 292 0,000 mm 12,2 C 12,8 C 3,2 km/h (1 Bft) 100,00 %
27.09.2023 08:43 22,4 C 12,7 C 14,4 C 56 % 96 % 71 % 1023,8 hPa 0,0 l/m 0,0 km/h (0 Bft) W-NW 292 0,000 mm 12,1 C 12,7 C 1,6 km/h (1 Bft) 100,00 %
27.09.2023 08:42 22,4 C 12,7 C 14,4 C 56 % 96 % 71 % 1023,8 hPa 0,0 l/m 0,0 km/h (0 Bft) W-NW 292 0,000 mm 12,1 C 12,7 C 1,6 km/h (1 Bft) 100,00 %
27.09.2023 08:41 22,4 C 12,7 C 14,4 C 56 % 96 % 71 % 1023,8 hPa 0,0 l/m 1,6 km/h (1 Bft) W-NW 292 0,000 mm 12,1 C 12,7 C 1,6 km/h (1 Bft) 95,65 %
27.09.2023 08:40 22,4 C 12,7 C 14,4 C 56 % 96 % 71 % 1023,7 hPa 0,0 l/m 1,6 km/h (1 Bft) W-NW 292 0,000 mm 12,1 C 12,7 C 3,2 km/h (1 Bft) 95,65 %
27.09.2023 08:39 22,4 C 12,7 C 14,4 C 56 % 96 % 71 % 1023,8 hPa 0,0 l/m 1,6 km/h (1 Bft) W-NW 292 0,000 mm 12,1 C 12,7 C 3,2 km/h (1 Bft) 100,00 %
27.09.2023 08:38 22,4 C 12,7 C 14,4 C 56 % 96 % 71 % 1023,8 hPa 0,0 l/m 0,0 km/h (0 Bft) NW 315 0,000 mm 12,1 C 12,7 C 1,6 km/h (1 Bft) 100,00 %
27.09.2023 08:37 22,4 C 12,7 C 14,4 C 56 % 96 % 71 % 1023,8 hPa 0,0 l/m 1,6 km/h (1 Bft) NW 315 0,000 mm 12,1 C 12,7 C 3,2 km/h (1 Bft) 100,00 %
27.09.2023 08:36 22,4 C 12,7 C 14,4 C 56 % 96 % 71 % 1023,8 hPa 0,0 l/m 0,0 km/h (0 Bft) NW 315 0,000 mm 12,1 C 12,7 C 1,6 km/h (1 Bft) 100,00 %
27.09.2023 08:35 22,4 C 12,7 C 13,9 C 56 % 96 % 71 % 1023,7 hPa 0,0 l/m 0,0 km/h (0 Bft) NW 315 0,000 mm 12,1 C 12,7 C 1,6 km/h (1 Bft) 100,00 %
27.09.2023 08:34 22,4 C 12,7 C 13,9 C 56 % 96 % 71 % 1023,7 hPa 0,0 l/m 1,6 km/h (1 Bft) NW 315 0,000 mm 12,1 C 12,7 C 3,2 km/h (1 Bft) 91,30 %
27.09.2023 08:33 22,4 C 12,7 C 13,9 C 56 % 96 % 71 % 1023,6 hPa 0,0 l/m 1,6 km/h (1 Bft) NW 315 0,000 mm 12,1 C 12,7 C 1,6 km/h (1 Bft) 100,00 %
27.09.2023 08:32 22,4 C 12,7 C 13,9 C 56 % 96 % 71 % 1023,6 hPa 0,0 l/m 1,6 km/h (1 Bft) NW 315 0,000 mm 12,1 C 12,7 C 3,2 km/h (1 Bft) 95,65 %
27.09.2023 08:31 22,4 C 12,6 C 13,9 C 56 % 96 % 71 % 1023,6 hPa 0,0 l/m 1,6 km/h (1 Bft) NW 315 0,000 mm 12,0 C 12,6 C 3,2 km/h (1 Bft) 100,00 %
27.09.2023 08:30 22,4 C 12,6 C 13,9 C 56 % 96 % 71 % 1023,6 hPa 0,0 l/m 0,0 km/h (0 Bft) NW 315 0,000 mm 12,0 C 12,6 C 1,6 km/h (1 Bft) 95,65 %
27.09.2023 08:29 22,4 C 12,6 C 13,9 C 56 % 96 % 71 % 1023,6 hPa 0,0 l/m 0,0 km/h (0 Bft) NW 315 0,000 mm 12,0 C 12,6 C 1,6 km/h (1 Bft) 100,00 %
27.09.2023 08:28 22,4 C 12,6 C 13,9 C 56 % 96 % 71 % 1023,6 hPa 0,0 l/m 0,0 km/h (0 Bft) NW 315 0,000 mm 12,0 C 12,6 C 1,6 km/h (1 Bft) 100,00 %
27.09.2023 08:27 22,4 C 12,6 C 13,9 C 56 % 96 % 71 % 1023,6 hPa 0,0 l/m 0,0 km/h (0 Bft) N 0 0,000 mm 12,0 C 12,6 C 0,0 km/h (0 Bft) 100,00 %
27.09.2023 08:26 22,4 C 12,5 C 13,9 C 56 % 96 % 71 % 1023,6 hPa 0,0 l/m 0,0 km/h (0 Bft) N 0 0,000 mm 11,9 C 12,5 C 0,0 km/h (0 Bft) 95,65 %
27.09.2023 08:25 22,4 C 12,5 C 13,9 C 56 % 96 % 71 % 1023,7 hPa 0,0 l/m 0,0 km/h (0 Bft) NW 315 0,000 mm 11,9 C 12,5 C 1,6 km/h (1 Bft) 100,00 %
27.09.2023 08:24 22,4 C 12,5 C 13,9 C 56 % 96 % 70 % 1023,7 hPa 0,0 l/m 0,0 km/h (0 Bft) NW 315 0,000 mm 11,9 C 12,5 C 1,6 km/h (1 Bft) 100,00 %
27.09.2023 08:23 22,4 C 12,5 C 13,9 C 56 % 96 % 70 % 1023,7 hPa 0,0 l/m 0,0 km/h (0 Bft) NW 315 0,000 mm 11,9 C 12,5 C 1,6 km/h (1 Bft) 100,00 %
27.09.2023 08:22 22,4 C 12,4 C 13,9 C 56 % 96 % 70 % 1023,7 hPa 0,0 l/m 0,0 km/h (0 Bft) N 0 0,000 mm 11,8 C 12,4 C 0,0 km/h (0 Bft) 100,00 %
27.09.2023 08:21 22,4 C 12,4 C 13,9 C 56 % 96 % 70 % 1023,7 hPa 0,0 l/m 0,0 km/h (0 Bft) NW 315 0,000 mm 11,8 C 12,4 C 1,6 km/h (1 Bft) 95,65 %
27.09.2023 08:20 22,4 C 12,4 C 13,9 C 56 % 96 % 70 % 1023,7 hPa 0,0 l/m 0,0 km/h (0 Bft) N 0 0,000 mm 11,8 C 12,4 C 0,0 km/h (0 Bft) 100,00 %
27.09.2023 08:19 22,4 C 12,4 C 13,9 C 56 % 96 % 70 % 1023,7 hPa 0,0 l/m 0,0 km/h (0 Bft) N 0 0,000 mm 11,8 C 12,4 C 0,0 km/h (0 Bft) 95,65 %
27.09.2023 08:18 22,4 C 12,4 C 13,9 C 56 % 96 % 70 % 1023,5 hPa 0,0 l/m 0,0 km/h (0 Bft) N 0 0,000 mm 11,8 C 12,4 C 0,0 km/h (0 Bft) 100,00 %
27.09.2023 08:17 22,4 C 12,4 C 13,9 C 56 % 96 % 70 % 1023,6 hPa 0,0 l/m 0,0 km/h (0 Bft) NW 315 0,000 mm 11,8 C 12,4 C 1,6 km/h (1 Bft) 100,00 %
27.09.2023 08:16 22,4 C 12,4 C 13,9 C 56 % 96 % 70 % 1023,6 hPa 0,0 l/m 0,0 km/h (0 Bft) N 0 0,000 mm 11,8 C 12,4 C 0,0 km/h (0 Bft) 100,00 %
27.09.2023 08:15 22,4 C 12,4 C 13,9 C 56 % 96 % 70 % 1023,6 hPa 0,0 l/m 0,0 km/h (0 Bft) N 0 0,000 mm 11,8 C 12,4 C 0,0 km/h (0 Bft) 100,00 %
27.09.2023 08:14 22,4 C 12,4 C 13,9 C 56 % 96 % 70 % 1023,7 hPa 0,0 l/m 0,0 km/h (0 Bft) NW 315 0,000 mm 11,8 C 12,4 C 1,6 km/h (1 Bft) 95,65 %
27.09.2023 08:13 22,4 C 12,4 C 13,9 C 56 % 96 % 70 % 1023,7 hPa 0,0 l/m 0,0 km/h (0 Bft) NW 315 0,000 mm 11,8 C 12,4 C 3,2 km/h (1 Bft) 100,00 %
27.09.2023 08:12 22,4 C 12,4 C 13,9 C 56 % 96 % 70 % 1023,7 hPa 0,0 l/m 0,0 km/h (0 Bft) SO 135 0,000 mm 11,8 C 12,4 C 1,6 km/h (1 Bft) 91,30 %
27.09.2023 08:11 22,4 C 12,4 C 13,9 C 56 % 96 % 70 % 1023,6 hPa 0,0 l/m 0,0 km/h (0 Bft) N 0 0,000 mm 11,8 C 12,4 C 0,0 km/h (0 Bft) 100,00 %
27.09.2023 08:10 22,4 C 12,3 C 13,9 C 56 % 96 % 70 % 1023,6 hPa 0,0 l/m 0,0 km/h (0 Bft) N 0 0,000 mm 11,7 C 12,3 C 0,0 km/h (0 Bft) 100,00 %
27.09.2023 08:09 22,4 C 12,3 C 13,9 C 56 % 96 % 70 % 1023,6 hPa 0,0 l/m 0,0 km/h (0 Bft) N 0 0,000 mm 11,7 C 12,3 C 0,0 km/h (0 Bft) 100,00 %
27.09.2023 08:08 22,4 C 12,3 C 13,9 C 56 % 96 % 70 % 1023,6 hPa 0,0 l/m 0,0 km/h (0 Bft) S-SO 157 0,000 mm 11,7 C 12,3 C 1,6 km/h (1 Bft) 95,65 %
27.09.2023 08:07 22,4 C 12,3 C 13,9 C 56 % 96 % 70 % 1023,6 hPa 0,0 l/m 0,0 km/h (0 Bft) N 0 0,000 mm 11,7 C 12,3 C 0,0 km/h (0 Bft) 100,00 %
27.09.2023 08:06 22,4 C 12,3 C 13,9 C 56 % 96 % 70 % 1023,6 hPa 0,0 l/m 0,0 km/h (0 Bft) N 0 0,000 mm 11,7 C 12,3 C 0,0 km/h (0 Bft) 100,00 %
27.09.2023 08:05 22,4 C 12,3 C 13,9 C 56 % 96 % 70 % 1023,4 hPa 0,0 l/m 0,0 km/h (0 Bft) N 0 0,000 mm 11,7 C 12,3 C 0,0 km/h (0 Bft) 91,30 %
27.09.2023 08:04 22,4 C 12,2 C 13,9 C 56 % 96 % 70 % 1023,4 hPa 0,0 l/m 0,0 km/h (0 Bft) N 0 0,000 mm 11,6 C 12,2 C 0,0 km/h (0 Bft) 95,65 %
27.09.2023 08:03 22,4 C 12,2 C 13,9 C 56 % 96 % 70 % 1023,5 hPa 0,0 l/m 0,0 km/h (0 Bft) N 0 0,000 mm 11,6 C 12,2 C 0,0 km/h (0 Bft) 100,00 %
27.09.2023 08:02 22,4 C 12,2 C 13,9 C 56 % 96 % 70 % 1023,4 hPa 0,0 l/m 0,0 km/h (0 Bft) N 0 0,000 mm 11,6 C 12,2 C 0,0 km/h (0 Bft) 100,00 %
27.09.2023 08:01 22,4 C 12,2 C 13,9 C 56 % 96 % 70 % 1023,4 hPa 0,0 l/m 0,0 km/h (0 Bft) N 0 0,000 mm 11,6 C 12,2 C 0,0 km/h (0 Bft) 100,00 %
27.09.2023 08:00 22,3 C 12,2 C 13,9 C 56 % 96 % 70 % 1023,6 hPa 0,0 l/m 0,0 km/h (0 Bft) S 180 0,000 mm 11,6 C 12,2 C 1,6 km/h (1 Bft) 100,00 %
27.09.2023 07:59 22,3 C 12,2 C 13,9 C 56 % 96 % 70 % 1023,5 hPa 0,0 l/m 0,0 km/h (0 Bft) N 0 0,000 mm 11,6 C 12,2 C 0,0 km/h (0 Bft) 100,00 %
27.09.2023 07:58 22,4 C 12,2 C 13,9 C 56 % 96 % 70 % 1023,6 hPa 0,0 l/m 0,0 km/h (0 Bft) N 0 0,000 mm 11,6 C 12,2 C 0,0 km/h (0 Bft) 95,65 %
27.09.2023 07:57 22,3 C 12,2 C 13,9 C 56 % 96 % 70 % 1023,6 hPa 0,0 l/m 0,0 km/h (0 Bft) N 0 0,000 mm 11,6 C 12,2 C 0,0 km/h (0 Bft) 100,00 %
27.09.2023 07:56 22,4 C 12,2 C 13,3 C 56 % 96 % 70 % 1023,6 hPa 0,0 l/m 0,0 km/h (0 Bft) N 0 0,000 mm 11,6 C 12,2 C 0,0 km/h (0 Bft) 100,00 %
27.09.2023 07:55 22,3 C 12,2 C 13,3 C 56 % 96 % 70 % 1023,6 hPa 0,0 l/m 0,0 km/h (0 Bft) S-SO 157 0,000 mm 11,6 C 12,2 C 1,6 km/h (1 Bft) 100,00 %
27.09.2023 07:54 22,3 C 12,2 C 13,3 C 56 % 96 % 70 % 1023,5 hPa 0,0 l/m 0,0 km/h (0 Bft) N 0 0,000 mm 11,6 C 12,2 C 0,0 km/h (0 Bft) 100,00 %
27.09.2023 07:53 22,4 C 12,2 C 13,3 C 56 % 96 % 70 % 1023,7 hPa 0,0 l/m 0,0 km/h (0 Bft) N 0 0,000 mm 11,6 C 12,2 C 0,0 km/h (0 Bft) 95,65 %
27.09.2023 07:52 22,4 C 12,2 C 13,3 C 56 % 96 % 70 % 1023,6 hPa 0,0 l/m 0,0 km/h (0 Bft) N 0 0,000 mm 11,6 C 12,2 C 0,0 km/h (0 Bft) 100,00 %
27.09.2023 07:51 22,3 C 12,2 C 13,3 C 56 % 96 % 70 % 1023,6 hPa 0,0 l/m 0,0 km/h (0 Bft) N 0 0,000 mm 11,6 C 12,2 C 0,0 km/h (0 Bft) 95,65 %
27.09.2023 07:50 22,4 C 12,2 C 13,3 C 56 % 96 % 70 % 1023,6 hPa 0,0 l/m 0,0 km/h (0 Bft) S-SO 157 0,000 mm 11,6 C 12,2 C 1,6 km/h (1 Bft) 100,00 %
27.09.2023 07:49 22,4 C 12,2 C 13,3 C 56 % 96 % 70 % 1023,7 hPa 0,0 l/m 0,0 km/h (0 Bft) N 0 0,000 mm 11,6 C 12,2 C 0,0 km/h (0 Bft) 100,00 %
27.09.2023 07:48 22,4 C 12,1 C 13,3 C 56 % 96 % 69 % 1023,6 hPa 0,0 l/m 0,0 km/h (0 Bft) N 0 0,000 mm 11,5 C 12,1 C 0,0 km/h (0 Bft) 100,00 %
27.09.2023 07:47 22,3 C 12,1 C 13,3 C 56 % 96 % 70 % 1023,6 hPa 0,0 l/m 0,0 km/h (0 Bft) N 0 0,000 mm 11,5 C 12,1 C 0,0 km/h (0 Bft) 100,00 %
27.09.2023 07:46 22,4 C 12,1 C 13,3 C 56 % 96 % 69 % 1023,6 hPa 0,0 l/m 0,0 km/h (0 Bft) N 0 0,000 mm 11,5 C 12,1 C 0,0 km/h (0 Bft) 95,65 %
27.09.2023 07:45 22,4 C 12,1 C 13,3 C 56 % 96 % 69 % 1023,5 hPa 0,0 l/m 0,0 km/h (0 Bft) N 0 0,000 mm 11,5 C 12,1 C 0,0 km/h (0 Bft) 86,96 %
27.09.2023 07:44 22,3 C 12,1 C 13,3 C 56 % 96 % 70 % 1023,6 hPa 0,0 l/m 0,0 km/h (0 Bft) N 0 0,000 mm 11,5 C 12,1 C 0,0 km/h (0 Bft) 95,65 %
27.09.2023 07:43 22,4 C 12,1 C 13,3 C 56 % 96 % 70 % 1023,6 hPa 0,0 l/m 0,0 km/h (0 Bft) N 0 0,000 mm 11,5 C 12,1 C 0,0 km/h (0 Bft) 100,00 %
27.09.2023 07:42 22,4 C 12,1 C 13,3 C 56 % 96 % 70 % 1023,5 hPa 0,0 l/m 0,0 km/h (0 Bft) S-SO 157 0,000 mm 11,5 C 12,1 C 1,6 km/h (1 Bft) 95,65 %
27.09.2023 07:41 22,3 C 12,0 C 13,3 C 56 % 96 % 70 % 1023,5 hPa 0,0 l/m 0,0 km/h (0 Bft) N 0 0,000 mm 11,4 C 12,0 C 0,0 km/h (0 Bft) 100,00 %
27.09.2023 07:40 22,3 C 12,1 C 13,3 C 56 % 96 % 70 % 1023,5 hPa 0,0 l/m 0,0 km/h (0 Bft) N 0 0,000 mm 11,5 C 12,1 C 0,0 km/h (0 Bft) 95,65 %
27.09.2023 07:39 22,3 C 12,0 C 13,3 C 56 % 96 % 70 % 1023,5 hPa 0,0 l/m 0,0 km/h (0 Bft) S-SO 157 0,000 mm 11,4 C 12,0 C 1,6 km/h (1 Bft) 100,00 %
27.09.2023 07:38 22,3 C 12,0 C 13,3 C 56 % 96 % 70 % 1023,5 hPa 0,0 l/m 0,0 km/h (0 Bft) S-SO 157 0,000 mm 11,4 C 12,0 C 1,6 km/h (1 Bft) 95,65 %
27.09.2023 07:37 22,3 C 12,0 C 13,3 C 56 % 96 % 69 % 1023,5 hPa 0,0 l/m 0,0 km/h (0 Bft) S-SO 157 0,000 mm 11,4 C 12,0 C 1,6 km/h (1 Bft) 91,30 %
27.09.2023 07:36 22,3 C 12,0 C 13,3 C 56 % 96 % 69 % 1023,4 hPa 0,0 l/m 0,0 km/h (0 Bft) N 0 0,000 mm 11,4 C 12,0 C 0,0 km/h (0 Bft) 95,65 %
27.09.2023 07:35 22,4 C 11,9 C 13,3 C 56 % 96 % 69 % 1023,4 hPa 0,0 l/m 0,0 km/h (0 Bft) N 0 0,000 mm 11,3 C 11,9 C 0,0 km/h (0 Bft) 100,00 %
27.09.2023 07:34 22,3 C 11,9 C 13,3 C 56 % 96 % 69 % 1023,4 hPa 0,0 l/m 0,0 km/h (0 Bft) N 0 0,000 mm 11,3 C 11,9 C 0,0 km/h (0 Bft) 95,65 %
27.09.2023 07:33 22,3 C 11,9 C 13,3 C 56 % 96 % 69 % 1023,4 hPa 0,0 l/m 0,0 km/h (0 Bft) N 0 0,000 mm 11,3 C 11,9 C 0,0 km/h (0 Bft) 95,65 %
27.09.2023 07:32 22,3 C 11,9 C 13,3 C 56 % 96 % 69 % 1023,3 hPa 0,0 l/m 0,0 km/h (0 Bft) W 270 0,000 mm 11,3 C 11,9 C 1,6 km/h (1 Bft) 95,65 %
27.09.2023 07:31 22,3 C 11,9 C 13,3 C 56 % 96 % 69 % 1023,4 hPa 0,0 l/m 1,6 km/h (1 Bft) W-NW 292 0,000 mm 11,3 C 11,9 C 3,2 km/h (1 Bft) 91,30 %
27.09.2023 07:30 22,3 C 11,9 C 13,3 C 56 % 96 % 69 % 1023,4 hPa 0,0 l/m 0,0 km/h (0 Bft) W-NW 292 0,000 mm 11,3 C 11,9 C 1,6 km/h (1 Bft) 95,65 %
27.09.2023 07:29 22,4 C 11,9 C 13,3 C 56 % 96 % 69 % 1023,3 hPa 0,0 l/m 0,0 km/h (0 Bft) W-NW 292 0,000 mm 11,3 C 11,9 C 1,6 km/h (1 Bft) 91,30 %
27.09.2023 07:28 22,4 C 11,9 C 13,3 C 56 % 96 % 69 % 1023,4 hPa 0,0 l/m 0,0 km/h (0 Bft) N 0 0,000 mm 11,3 C 11,9 C 0,0 km/h (0 Bft) 95,65 %
27.09.2023 07:27 22,3 C 11,9 C 13,3 C 56 % 96 % 69 % 1023,4 hPa 0,0 l/m 0,0 km/h (0 Bft) N-NW 337 0,000 mm 11,3 C 11,9 C 1,6 km/h (1 Bft) 95,65 %
27.09.2023 07:26 22,3 C 11,9 C 13,3 C 56 % 96 % 69 % 1023,4 hPa 0,0 l/m 1,6 km/h (1 Bft) N 360 0,000 mm 11,3 C 11,9 C 3,2 km/h (1 Bft) 100,00 %
27.09.2023 07:25 22,3 C 11,8 C 13,3 C 56 % 96 % 69 % 1023,4 hPa 0,0 l/m 0,0 km/h (0 Bft) N 360 0,000 mm 11,2 C 11,8 C 1,6 km/h (1 Bft) 95,65 %
27.09.2023 07:24 22,3 C 11,8 C 13,3 C 56 % 96 % 69 % 1023,4 hPa 0,0 l/m 1,6 km/h (1 Bft) N-NO 22 0,000 mm 11,2 C 11,8 C 3,2 km/h (1 Bft) 95,65 %
27.09.2023 07:23 22,3 C 11,8 C 13,3 C 56 % 96 % 69 % 1023,4 hPa 0,0 l/m 1,6 km/h (1 Bft) N-NO 22 0,000 mm 11,2 C 11,8 C 3,2 km/h (1 Bft) 91,30 %
27.09.2023 07:22 22,3 C 11,8 C 13,3 C 56 % 96 % 69 % 1023,5 hPa 0,0 l/m 1,6 km/h (1 Bft) N-NO 22 0,000 mm 11,2 C 11,8 C 3,2 km/h (1 Bft) 95,65 %
27.09.2023 07:21 22,4 C 11,8 C 13,3 C 56 % 96 % 69 % 1023,4 hPa 0,0 l/m 1,6 km/h (1 Bft) NO 45 0,000 mm 11,2 C 11,8 C 3,2 km/h (1 Bft) 95,65 %
27.09.2023 07:20 22,3 C 11,8 C 13,3 C 56 % 96 % 69 % 1023,4 hPa 0,0 l/m 1,6 km/h (1 Bft) O 90 0,000 mm 11,2 C 11,8 C 3,2 km/h (1 Bft) 95,65 %
27.09.2023 07:19 22,4 C 11,8 C 13,3 C 56 % 96 % 69 % 1023,4 hPa 0,0 l/m 1,6 km/h (1 Bft) O 90 0,000 mm 11,2 C 11,8 C 3,2 km/h (1 Bft) 100,00 %
27.09.2023 07:18 22,3 C 11,8 C 13,3 C 56 % 96 % 69 % 1023,4 hPa 0,0 l/m 0,0 km/h (0 Bft) S 180 0,000 mm 11,2 C 11,8 C 3,2 km/h (1 Bft) 95,65 %
27.09.2023 07:17 22,3 C 11,8 C 13,3 C 56 % 96 % 69 % 1023,5 hPa 0,0 l/m 1,6 km/h (1 Bft) S 180 0,000 mm 11,2 C 11,8 C 3,2 km/h (1 Bft) 95,65 %
27.09.2023 07:16 22,3 C 11,7 C 13,3 C 56 % 96 % 69 % 1023,4 hPa 0,0 l/m 1,6 km/h (1 Bft) S 180 0,000 mm 11,1 C 11,7 C 3,2 km/h (1 Bft) 91,30 %
27.09.2023 07:15 22,4 C 11,7 C 13,3 C 56 % 96 % 69 % 1023,4 hPa 0,0 l/m 0,0 km/h (0 Bft) S 180 0,000 mm 11,1 C 11,7 C 1,6 km/h (1 Bft) 95,65 %
27.09.2023 07:14 22,3 C 11,7 C 13,3 C 56 % 96 % 69 % 1023,4 hPa 0,0 l/m 1,6 km/h (1 Bft) S 180 0,000 mm 11,1 C 11,7 C 3,2 km/h (1 Bft) 100,00 %
27.09.2023 07:13 22,3 C 11,7 C 13,3 C 56 % 96 % 69 % 1023,4 hPa 0,0 l/m 0,0 km/h (0 Bft) S-SW 202 0,000 mm 11,1 C 11,7 C 1,6 km/h (1 Bft) 95,65 %
27.09.2023 07:12 22,3 C 11,7 C 13,3 C 56 % 96 % 69 % 1023,4 hPa 0,0 l/m 0,0 km/h (0 Bft) S-SW 202 0,000 mm 11,1 C 11,7 C 1,6 km/h (1 Bft) 100,00 %
27.09.2023 07:11 22,3 C 11,6 C 13,3 C 56 % 96 % 69 % 1023,3 hPa 0,0 l/m 0,0 km/h (0 Bft) S-SW 202 0,000 mm 11,0 C 11,6 C 3,2 km/h (1 Bft) 95,65 %
27.09.2023 07:10 22,4 C 11,6 C 13,3 C 56 % 96 % 69 % 1023,3 hPa 0,0 l/m 1,6 km/h (1 Bft) S-SW 202 0,000 mm 11,0 C 11,6 C 3,2 km/h (1 Bft) 100,00 %
27.09.2023 07:09 22,3 C 11,6 C 13,3 C 56 % 96 % 69 % 1023,3 hPa 0,0 l/m 1,6 km/h (1 Bft) S-SW 202 0,000 mm 11,0 C 11,6 C 3,2 km/h (1 Bft) 95,65 %
27.09.2023 07:08 22,3 C 11,6 C 13,3 C 56 % 96 % 69 % 1023,3 hPa 0,0 l/m 1,6 km/h (1 Bft) S-SW 202 0,000 mm 11,0 C 11,6 C 3,2 km/h (1 Bft) 100,00 %
27.09.2023 07:07 22,4 C 11,5 C 13,3 C 56 % 96 % 69 % 1023,2 hPa 0,0 l/m 3,2 km/h (1 Bft) S-SW 202 0,000 mm 10,9 C 11,5 C 3,2 km/h (1 Bft) 95,65 %
27.09.2023 07:06 22,3 C 11,4 C 13,3 C 56 % 96 % 69 % 1023,3 hPa 0,0 l/m 1,6 km/h (1 Bft) W 270 0,000 mm 10,8 C 11,4 C 3,2 km/h (1 Bft) 100,00 %
27.09.2023 07:05 22,3 C 11,4 C 13,3 C 56 % 96 % 69 % 1023,3 hPa 0,0 l/m 0,0 km/h (0 Bft) SW 225 0,000 mm 10,8 C 11,4 C 1,6 km/h (1 Bft) 100,00 %
27.09.2023 07:04 22,3 C 11,3 C 13,3 C 56 % 96 % 69 % 1023,2 hPa 0,0 l/m 1,6 km/h (1 Bft) SW 225 0,000 mm 10,7 C 11,3 C 3,2 km/h (1 Bft) 100,00 %
27.09.2023 07:03 22,3 C 11,3 C 13,3 C 56 % 96 % 69 % 1023,2 hPa 0,0 l/m 1,6 km/h (1 Bft) SW 225 0,000 mm 10,7 C 11,3 C 3,2 km/h (1 Bft) 100,00 %
27.09.2023 07:02 22,4 C 11,3 C 13,3 C 56 % 96 % 69 % 1023,2 hPa 0,0 l/m 1,6 km/h (1 Bft) SW 225 0,000 mm 10,7 C 11,3 C 3,2 km/h (1 Bft) 95,65 %
27.09.2023 07:01 22,3 C 11,3 C 13,3 C 56 % 96 % 69 % 1023,1 hPa 0,0 l/m 1,6 km/h (1 Bft) SW 225 0,000 mm 10,7 C 11,3 C 1,6 km/h (1 Bft) 100,00 %
27.09.2023 07:00 22,4 C 11,3 C 13,3 C 56 % 96 % 69 % 1023,1 hPa 0,0 l/m 1,6 km/h (1 Bft) SW 225 0,000 mm 10,7 C 11,3 C 1,6 km/h (1 Bft) 100,00 %
27.09.2023 06:59 22,3 C 11,3 C 13,3 C 56 % 96 % 69 % 1023,1 hPa 0,0 l/m 1,6 km/h (1 Bft) SW 225 0,000 mm 10,7 C 11,3 C 3,2 km/h (1 Bft) 100,00 %
27.09.2023 06:58 22,3 C 11,3 C 13,3 C 56 % 96 % 69 % 1023,1 hPa 0,0 l/m 0,0 km/h (0 Bft) SW 225 0,000 mm 10,7 C 11,3 C 1,6 km/h (1 Bft) 100,00 %
27.09.2023 06:57 22,4 C 11,3 C 13,3 C 56 % 96 % 69 % 1023,2 hPa 0,0 l/m 0,0 km/h (0 Bft) SW 225 0,000 mm 10,7 C 11,3 C 1,6 km/h (1 Bft) 100,00 %
27.09.2023 06:56 22,3 C 11,2 C 13,3 C 56 % 96 % 69 % 1023,1 hPa 0,0 l/m 1,6 km/h (1 Bft) SW 225 0,000 mm 10,6 C 11,2 C 3,2 km/h (1 Bft) 100,00 %
27.09.2023 06:55 22,4 C 11,2 C 13,3 C 56 % 96 % 69 % 1023,0 hPa 0,0 l/m 1,6 km/h (1 Bft) SW 225 0,000 mm 10,6 C 11,2 C 3,2 km/h (1 Bft) 91,30 %
27.09.2023 06:54 22,4 C 11,2 C 13,3 C 56 % 96 % 68 % 1023,1 hPa 0,0 l/m 3,2 km/h (1 Bft) SW 225 0,000 mm 10,6 C 11,2 C 3,2 km/h (1 Bft) 95,65 %
27.09.2023 06:53 22,4 C 11,2 C 13,3 C 56 % 96 % 68 % 1023,0 hPa 0,0 l/m 4,8 km/h (1 Bft) SW 225 0,000 mm 10,6 C 11,2 C 4,8 km/h (1 Bft) 100,00 %
27.09.2023 06:52 22,3 C 11,1 C 13,3 C 56 % 96 % 68 % 1023,0 hPa 0,0 l/m 3,2 km/h (1 Bft) SW 225 0,000 mm 10,5 C 11,1 C 4,8 km/h (1 Bft) 100,00 %
27.09.2023 06:51 22,4 C 11,1 C 13,3 C 56 % 96 % 68 % 1022,9 hPa 0,0 l/m 1,6 km/h (1 Bft) SW 225 0,000 mm 10,5 C 11,1 C 4,8 km/h (1 Bft) 100,00 %
27.09.2023 06:50 22,4 C 11,1 C 13,3 C 56 % 96 % 68 % 1022,9 hPa 0,0 l/m 0,0 km/h (0 Bft) N 0 0,000 mm 10,5 C 11,1 C 0,0 km/h (0 Bft) 95,65 %
27.09.2023 06:49 22,4 C 11,1 C 13,3 C 56 % 95 % 68 % 1022,9 hPa 0,0 l/m 0,0 km/h (0 Bft) N 0 0,000 mm 10,3 C 11,1 C 0,0 km/h (0 Bft) 100,00 %
27.09.2023 06:48 22,4 C 11,0 C 13,3 C 56 % 95 % 68 % 1022,9 hPa 0,0 l/m 0,0 km/h (0 Bft) N 0 0,000 mm 10,2 C 11,0 C 0,0 km/h (0 Bft) 95,65 %
27.09.2023 06:47 22,4 C 11,1 C 13,3 C 56 % 95 % 68 % 1022,8 hPa 0,0 l/m 0,0 km/h (0 Bft) N 0 0,000 mm 10,3 C 11,1 C 0,0 km/h (0 Bft) 100,00 %
27.09.2023 06:46 22,4 C 11,1 C 13,3 C 56 % 95 % 68 % 1022,8 hPa 0,0 l/m 0,0 km/h (0 Bft) N 0 0,000 mm 10,3 C 11,1 C 0,0 km/h (0 Bft) 100,00 %
27.09.2023 06:45 22,4 C 11,0 C 13,3 C 56 % 95 % 68 % 1022,8 hPa 0,0 l/m 0,0 km/h (0 Bft) N 0 0,000 mm 10,2 C 11,0 C 0,0 km/h (0 Bft) 100,00 %
27.09.2023 06:44 22,4 C 11,1 C 13,3 C 56 % 95 % 68 % 1022,8 hPa 0,0 l/m 0,0 km/h (0 Bft) N 0 0,000 mm 10,3 C 11,1 C 0,0 km/h (0 Bft) 100,00 %
27.09.2023 06:43 22,4 C 11,1 C 13,3 C 56 % 95 % 68 % 1022,8 hPa 0,0 l/m 0,0 km/h (0 Bft) N 0 0,000 mm 10,3 C 11,1 C 0,0 km/h (0 Bft) 95,65 %
27.09.2023 06:42 22,4 C 11,1 C 13,3 C 56 % 95 % 68 % 1022,8 hPa 0,0 l/m 0,0 km/h (0 Bft) N 0 0,000 mm 10,3 C 11,1 C 0,0 km/h (0 Bft) 91,30 %
27.09.2023 06:41 22,4 C 11,1 C 13,3 C 56 % 95 % 68 % 1022,8 hPa 0,0 l/m 0,0 km/h (0 Bft) N 0 0,000 mm 10,3 C 11,1 C 0,0 km/h (0 Bft) 95,65 %
27.09.2023 06:40 22,4 C 11,1 C 13,3 C 56 % 95 % 68 % 1022,7 hPa 0,0 l/m 0,0 km/h (0 Bft) N 0 0,000 mm 10,3 C 11,1 C 0,0 km/h (0 Bft) 100,00 %
27.09.2023 06:39 22,4 C 11,1 C 13,3 C 56 % 95 % 68 % 1022,8 hPa 0,0 l/m 0,0 km/h (0 Bft) N 0 0,000 mm 10,3 C 11,1 C 0,0 km/h (0 Bft) 100,00 %
27.09.2023 06:38 22,4 C 11,1 C 13,3 C 56 % 95 % 68 % 1022,7 hPa 0,0 l/m 0,0 km/h (0 Bft) N 0 0,000 mm 10,3 C 11,1 C 0,0 km/h (0 Bft) 100,00 %
27.09.2023 06:37 22,4 C 11,1 C 13,3 C 56 % 95 % 68 % 1022,8 hPa 0,0 l/m 0,0 km/h (0 Bft) N 0 0,000 mm 10,3 C 11,1 C 0,0 km/h (0 Bft) 95,65 %
27.09.2023 06:36 22,4 C 11,2 C 13,3 C 56 % 95 % 68 % 1022,7 hPa 0,0 l/m 0,0 km/h (0 Bft) N 0 0,000 mm 10,4 C 11,2 C 0,0 km/h (0 Bft) 100,00 %
27.09.2023 06:35 22,4 C 11,2 C 13,3 C 56 % 95 % 68 % 1022,7 hPa 0,0 l/m 0,0 km/h (0 Bft) N 0 0,000 mm 10,4 C 11,2 C 0,0 km/h (0 Bft) 100,00 %
27.09.2023 06:34 22,4 C 11,2 C 13,3 C 56 % 95 % 68 % 1022,7 hPa 0,0 l/m 0,0 km/h (0 Bft) N 0 0,000 mm 10,4 C 11,2 C 0,0 km/h (0 Bft) 95,65 %
27.09.2023 06:33 22,4 C 11,2 C 13,3 C 56 % 95 % 68 % 1022,7 hPa 0,0 l/m 0,0 km/h (0 Bft) N 0 0,000 mm 10,4 C 11,2 C 0,0 km/h (0 Bft) 95,65 %
27.09.2023 06:32 22,4 C 11,2 C 13,3 C 56 % 95 % 68 % 1022,7 hPa 0,0 l/m 0,0 km/h (0 Bft) N 0 0,000 mm 10,4 C 11,2 C 0,0 km/h (0 Bft) 100,00 %
27.09.2023 06:31 22,4 C 11,2 C 13,3 C 56 % 95 % 68 % 1022,7 hPa 0,0 l/m 0,0 km/h (0 Bft) N 0 0,000 mm 10,4 C 11,2 C 0,0 km/h (0 Bft) 100,00 %
27.09.2023 06:30 22,4 C 11,2 C 13,3 C 56 % 95 % 68 % 1022,7 hPa 0,0 l/m 0,0 km/h (0 Bft) N 0 0,000 mm 10,4 C 11,2 C 0,0 km/h (0 Bft) 100,00 %
27.09.2023 06:29 22,4 C 11,2 C 13,9 C 56 % 95 % 68 % 1022,6 hPa 0,0 l/m 0,0 km/h (0 Bft) N 0 0,000 mm 10,4 C 11,2 C 0,0 km/h (0 Bft) 100,00 %
27.09.2023 06:28 22,4 C 11,3 C 13,9 C 56 % 95 % 68 % 1022,6 hPa 0,0 l/m 0,0 km/h (0 Bft) N 0 0,000 mm 10,5 C 11,3 C 0,0 km/h (0 Bft) 100,00 %
27.09.2023 06:27 22,4 C 11,3 C 13,9 C 56 % 95 % 68 % 1022,6 hPa 0,0 l/m 0,0 km/h (0 Bft) N 0 0,000 mm 10,5 C 11,3 C 0,0 km/h (0 Bft) 95,65 %
27.09.2023 06:26 22,4 C 11,3 C 13,9 C 56 % 95 % 68 % 1022,6 hPa 0,0 l/m 0,0 km/h (0 Bft) N 0 0,000 mm 10,5 C 11,3 C 0,0 km/h (0 Bft) 100,00 %
27.09.2023 06:25 22,4 C 11,3 C 13,9 C 56 % 95 % 68 % 1022,6 hPa 0,0 l/m 0,0 km/h (0 Bft) N 0 0,000 mm 10,5 C 11,3 C 0,0 km/h (0 Bft) 100,00 %
27.09.2023 06:24 22,4 C 11,3 C 13,9 C 56 % 95 % 68 % 1022,5 hPa 0,0 l/m 0,0 km/h (0 Bft) N 0 0,000 mm 10,5 C 11,3 C 0,0 km/h (0 Bft) 100,00 %
27.09.2023 06:23 22,4 C 11,3 C 13,9 C 56 % 95 % 68 % 1022,5 hPa 0,0 l/m 0,0 km/h (0 Bft) N 0 0,000 mm 10,5 C 11,3 C 0,0 km/h (0 Bft) 95,65 %
27.09.2023 06:22 22,4 C 11,3 C 13,9 C 56 % 95 % 68 % 1022,5 hPa 0,0 l/m 0,0 km/h (0 Bft) N 0 0,000 mm 10,5 C 11,3 C 0,0 km/h (0 Bft) 95,65 %
27.09.2023 06:21 22,4 C 11,3 C 13,9 C 56 % 95 % 68 % 1022,6 hPa 0,0 l/m 0,0 km/h (0 Bft) N 0 0,000 mm 10,5 C 11,3 C 0,0 km/h (0 Bft) 100,00 %
27.09.2023 06:20 22,4 C 11,3 C 13,9 C 56 % 95 % 68 % 1022,5 hPa 0,0 l/m 0,0 km/h (0 Bft) N 0 0,000 mm 10,5 C 11,3 C 0,0 km/h (0 Bft) 95,65 %
27.09.2023 06:19 22,4 C 11,3 C 13,9 C 56 % 95 % 68 % 1022,6 hPa 0,0 l/m 0,0 km/h (0 Bft) N 0 0,000 mm 10,5 C 11,3 C 0,0 km/h (0 Bft) 100,00 %
27.09.2023 06:18 22,4 C 11,3 C 13,9 C 56 % 95 % 68 % 1022,5 hPa 0,0 l/m 0,0 km/h (0 Bft) N 0 0,000 mm 10,5 C 11,3 C 0,0 km/h (0 Bft) 100,00 %
27.09.2023 06:17 22,4 C 11,3 C 13,9 C 56 % 95 % 68 % 1022,5 hPa 0,0 l/m 0,0 km/h (0 Bft) N 0 0,000 mm 10,5 C 11,3 C 0,0 km/h (0 Bft) 100,00 %
27.09.2023 06:16 22,4 C 11,3 C 13,9 C 56 % 95 % 68 % 1022,5 hPa 0,0 l/m 0,0 km/h (0 Bft) N 0 0,000 mm 10,5 C 11,3 C 0,0 km/h (0 Bft) 100,00 %
27.09.2023 06:15 22,4 C 11,3 C 13,9 C 56 % 95 % 68 % 1022,5 hPa 0,0 l/m 0,0 km/h (0 Bft) N 0 0,000 mm 10,5 C 11,3 C 0,0 km/h (0 Bft) 91,30 %
27.09.2023 06:14 22,4 C 11,3 C 13,9 C 56 % 95 % 68 % 1022,5 hPa 0,0 l/m 0,0 km/h (0 Bft) N 0 0,000 mm 10,5 C 11,3 C 0,0 km/h (0 Bft) 100,00 %
27.09.2023 06:13 22,4 C 11,3 C 13,9 C 56 % 95 % 68 % 1022,5 hPa 0,0 l/m 0,0 km/h (0 Bft) N 0 0,000 mm 10,5 C 11,3 C 0,0 km/h (0 Bft) 95,65 %
27.09.2023 06:12 22,4 C 11,3 C 13,9 C 56 % 95 % 68 % 1022,6 hPa 0,0 l/m 0,0 km/h (0 Bft) N 0 0,000 mm 10,5 C 11,3 C 0,0 km/h (0 Bft) 100,00 %
27.09.2023 06:11 22,4 C 11,3 C 13,9 C 56 % 95 % 68 % 1022,6 hPa 0,0 l/m 0,0 km/h (0 Bft) N 0 0,000 mm 10,5 C 11,3 C 0,0 km/h (0 Bft) 100,00 %
27.09.2023 06:10 22,4 C 11,3 C 13,9 C 56 % 95 % 68 % 1022,5 hPa 0,0 l/m 0,0 km/h (0 Bft) N 0 0,000 mm 10,5 C 11,3 C 0,0 km/h (0 Bft) 95,65 %
27.09.2023 06:09 22,4 C 11,3 C 13,9 C 56 % 95 % 68 % 1022,6 hPa 0,0 l/m 0,0 km/h (0 Bft) N 0 0,000 mm 10,5 C 11,3 C 0,0 km/h (0 Bft) 100,00 %
27.09.2023 06:08 22,4 C 11,3 C 13,9 C 56 % 95 % 68 % 1022,6 hPa 0,0 l/m 0,0 km/h (0 Bft) N 0 0,000 mm 10,5 C 11,3 C 0,0 km/h (0 Bft) 100,00 %
27.09.2023 06:07 22,4 C 11,3 C 13,9 C 56 % 95 % 68 % 1022,6 hPa 0,0 l/m 0,0 km/h (0 Bft) N 0 0,000 mm 10,5 C 11,3 C 0,0 km/h (0 Bft) 95,65 %
27.09.2023 06:06 22,4 C 11,3 C 13,9 C 56 % 95 % 68 % 1022,5 hPa 0,0 l/m 0,0 km/h (0 Bft) N 0 0,000 mm 10,5 C 11,3 C 0,0 km/h (0 Bft) 91,30 %
27.09.2023 06:05 22,4 C 11,3 C 13,9 C 56 % 95 % 68 % 1022,6 hPa 0,0 l/m 0,0 km/h (0 Bft) N 0 0,000 mm 10,5 C 11,3 C 0,0 km/h (0 Bft) 95,65 %
27.09.2023 06:04 22,4 C 11,3 C 13,9 C 56 % 95 % 68 % 1022,5 hPa 0,0 l/m 0,0 km/h (0 Bft) N 0 0,000 mm 10,5 C 11,3 C 0,0 km/h (0 Bft) 100,00 %
27.09.2023 06:03 22,4 C 11,3 C 13,9 C 56 % 95 % 68 % 1022,5 hPa 0,0 l/m 0,0 km/h (0 Bft) N 0 0,000 mm 10,5 C 11,3 C 0,0 km/h (0 Bft) 95,65 %
27.09.2023 06:02 22,4 C 11,4 C 13,9 C 56 % 95 % 68 % 1022,6 hPa 0,0 l/m 0,0 km/h (0 Bft) N 0 0,000 mm 10,6 C 11,4 C 0,0 km/h (0 Bft) 100,00 %
27.09.2023 06:01 22,4 C 11,3 C 13,9 C 56 % 95 % 68 % 1022,6 hPa 0,0 l/m 0,0 km/h (0 Bft) N 0 0,000 mm 10,5 C 11,3 C 0,0 km/h (0 Bft) 95,65 %
27.09.2023 06:00 22,4 C 11,4 C 13,9 C 56 % 95 % 68 % 1022,6 hPa 0,0 l/m 0,0 km/h (0 Bft) N 0 0,000 mm 10,6 C 11,4 C 0,0 km/h (0 Bft) 100,00 %
27.09.2023 05:59 22,4 C 11,4 C 13,9 C 56 % 95 % 68 % 1022,6 hPa 0,0 l/m 0,0 km/h (0 Bft) N 0 0,000 mm 10,6 C 11,4 C 0,0 km/h (0 Bft) 91,30 %
27.09.2023 05:58 22,4 C 11,4 C 13,9 C 56 % 95 % 68 % 1022,5 hPa 0,0 l/m 0,0 km/h (0 Bft) N 0 0,000 mm 10,6 C 11,4 C 0,0 km/h (0 Bft) 95,65 %
27.09.2023 05:57 22,4 C 11,4 C 13,9 C 56 % 95 % 68 % 1022,6 hPa 0,0 l/m 0,0 km/h (0 Bft) N 0 0,000 mm 10,6 C 11,4 C 0,0 km/h (0 Bft) 95,65 %
27.09.2023 05:56 22,4 C 11,4 C 13,9 C 56 % 95 % 68 % 1022,5 hPa 0,0 l/m 0,0 km/h (0 Bft) N 0 0,000 mm 10,6 C 11,4 C 0,0 km/h (0 Bft) 95,65 %
27.09.2023 05:55 22,4 C 11,4 C 13,9 C 56 % 95 % 68 % 1022,5 hPa 0,0 l/m 0,0 km/h (0 Bft) N 0 0,000 mm 10,6 C 11,4 C 0,0 km/h (0 Bft) 100,00 %
27.09.2023 05:54 22,4 C 11,4 C 13,9 C 56 % 95 % 68 % 1022,6 hPa 0,0 l/m 0,0 km/h (0 Bft) N 0 0,000 mm 10,6 C 11,4 C 0,0 km/h (0 Bft) 95,65 %
27.09.2023 05:53 22,4 C 11,4 C 13,9 C 56 % 95 % 68 % 1022,6 hPa 0,0 l/m 0,0 km/h (0 Bft) N 0 0,000 mm 10,6 C 11,4 C 0,0 km/h (0 Bft) 95,65 %
27.09.2023 05:52 22,4 C 11,4 C 13,9 C 56 % 95 % 68 % 1022,6 hPa 0,0 l/m 0,0 km/h (0 Bft) N 0 0,000 mm 10,6 C 11,4 C 0,0 km/h (0 Bft) 95,65 %
27.09.2023 05:51 22,4 C 11,5 C 13,9 C 56 % 95 % 68 % 1022,5 hPa 0,0 l/m 0,0 km/h (0 Bft) N 0 0,000 mm 10,7 C 11,5 C 0,0 km/h (0 Bft) 95,65 %
27.09.2023 05:50 22,4 C 11,5 C 13,9 C 56 % 95 % 68 % 1022,6 hPa 0,0 l/m 0,0 km/h (0 Bft) N 0 0,000 mm 10,7 C 11,5 C 0,0 km/h (0 Bft) 91,30 %
27.09.2023 05:49 22,4 C 11,4 C 13,9 C 56 % 95 % 68 % 1022,5 hPa 0,0 l/m 0,0 km/h (0 Bft) N 0 0,000 mm 10,6 C 11,4 C 0,0 km/h (0 Bft) 95,65 %
27.09.2023 05:48 22,4 C 11,5 C 13,9 C 56 % 95 % 68 % 1022,5 hPa 0,0 l/m 0,0 km/h (0 Bft) N 0 0,000 mm 10,7 C 11,5 C 0,0 km/h (0 Bft) 100,00 %
27.09.2023 05:47 22,4 C 11,5 C 13,9 C 56 % 95 % 68 % 1022,5 hPa 0,0 l/m 0,0 km/h (0 Bft) N 0 0,000 mm 10,7 C 11,5 C 0,0 km/h (0 Bft) 95,65 %
27.09.2023 05:46 22,4 C 11,5 C 13,9 C 56 % 95 % 68 % 1022,5 hPa 0,0 l/m 0,0 km/h (0 Bft) N 0 0,000 mm 10,7 C 11,5 C 0,0 km/h (0 Bft) 100,00 %
27.09.2023 05:45 22,4 C 11,5 C 13,9 C 56 % 95 % 68 % 1022,5 hPa 0,0 l/m 0,0 km/h (0 Bft) N 0 0,000 mm 10,7 C 11,5 C 0,0 km/h (0 Bft) 95,65 %
27.09.2023 05:44 22,4 C 11,5 C 13,9 C 56 % 95 % 68 % 1022,5 hPa 0,0 l/m 0,0 km/h (0 Bft) N 0 0,000 mm 10,7 C 11,5 C 0,0 km/h (0 Bft) 95,65 %
27.09.2023 05:43 22,4 C 11,5 C 13,9 C 56 % 95 % 68 % 1022,5 hPa 0,0 l/m 0,0 km/h (0 Bft) N 0 0,000 mm 10,7 C 11,5 C 0,0 km/h (0 Bft) 95,65 %
27.09.2023 05:42 22,4 C 11,5 C 13,9 C 56 % 95 % 68 % 1022,5 hPa 0,0 l/m 0,0 km/h (0 Bft) N 0 0,000 mm 10,7 C 11,5 C 0,0 km/h (0 Bft) 100,00 %
27.09.2023 05:41 22,4 C 11,5 C 13,9 C 56 % 95 % 68 % 1022,5 hPa 0,0 l/m 0,0 km/h (0 Bft) N 0 0,000 mm 10,7 C 11,5 C 0,0 km/h (0 Bft) 91,30 %
27.09.2023 05:40 22,4 C 11,5 C 13,9 C 56 % 95 % 68 % 1022,5 hPa 0,0 l/m 0,0 km/h (0 Bft) N 0 0,000 mm 10,7 C 11,5 C 0,0 km/h (0 Bft) 100,00 %
27.09.2023 05:39 22,4 C 11,6 C 13,9 C 56 % 95 % 68 % 1022,6 hPa 0,0 l/m 0,0 km/h (0 Bft) N 0 0,000 mm 10,8 C 11,6 C 0,0 km/h (0 Bft) 91,30 %
27.09.2023 05:38 22,4 C 11,6 C 13,9 C 56 % 95 % 68 % 1022,5 hPa 0,0 l/m 0,0 km/h (0 Bft) N 0 0,000 mm 10,8 C 11,6 C 0,0 km/h (0 Bft) 100,00 %
27.09.2023 05:37 22,4 C 11,6 C 13,9 C 56 % 95 % 68 % 1022,5 hPa 0,0 l/m 0,0 km/h (0 Bft) N 0 0,000 mm 10,8 C 11,6 C 0,0 km/h (0 Bft) 91,30 %
27.09.2023 05:36 22,5 C 11,6 C 13,9 C 56 % 95 % 68 % 1022,5 hPa 0,0 l/m 0,0 km/h (0 Bft) N 0 0,000 mm 10,8 C 11,6 C 0,0 km/h (0 Bft) 100,00 %
27.09.2023 05:35 22,5 C 11,6 C 13,9 C 56 % 95 % 68 % 1022,4 hPa 0,0 l/m 0,0 km/h (0 Bft) N 0 0,000 mm 10,8 C 11,6 C 0,0 km/h (0 Bft) 100,00 %
27.09.2023 05:34 22,4 C 11,6 C 13,9 C 56 % 95 % 68 % 1022,5 hPa 0,0 l/m 0,0 km/h (0 Bft) N 0 0,000 mm 10,8 C 11,6 C 0,0 km/h (0 Bft) 100,00 %
27.09.2023 05:33 22,4 C 11,6 C 13,9 C 56 % 95 % 68 % 1022,5 hPa 0,0 l/m 0,0 km/h (0 Bft) N 0 0,000 mm 10,8 C 11,6 C 0,0 km/h (0 Bft) 100,00 %
27.09.2023 05:32 22,5 C 11,6 C 13,9 C 56 % 95 % 68 % 1022,5 hPa 0,0 l/m 0,0 km/h (0 Bft) N 0 0,000 mm 10,8 C 11,6 C 0,0 km/h (0 Bft) 100,00 %
27.09.2023 05:31 22,5 C 11,7 C 13,9 C 56 % 95 % 68 % 1022,5 hPa 0,0 l/m 0,0 km/h (0 Bft) N 0 0,000 mm 10,9 C 11,7 C 0,0 km/h (0 Bft) 100,00 %
27.09.2023 05:30 22,5 C 11,7 C 14,4 C 56 % 95 % 68 % 1022,5 hPa 0,0 l/m 0,0 km/h (0 Bft) N 0 0,000 mm 10,9 C 11,7 C 0,0 km/h (0 Bft) 86,96 %
27.09.2023 05:29 22,4 C 11,7 C 14,4 C 56 % 95 % 68 % 1022,5 hPa 0,0 l/m 0,0 km/h (0 Bft) N 0 0,000 mm 10,9 C 11,7 C 0,0 km/h (0 Bft) 100,00 %
27.09.2023 05:28 22,5 C 11,7 C 14,4 C 56 % 95 % 68 % 1022,5 hPa 0,0 l/m 0,0 km/h (0 Bft) N 0 0,000 mm 10,9 C 11,7 C 0,0 km/h (0 Bft) 100,00 %
27.09.2023 05:27 22,5 C 11,7 C 14,4 C 56 % 95 % 68 % 1022,6 hPa 0,0 l/m 0,0 km/h (0 Bft) N 0 0,000 mm 10,9 C 11,7 C 0,0 km/h (0 Bft) 100,00 %
27.09.2023 05:26 22,5 C 11,7 C 14,4 C 56 % 95 % 68 % 1022,5 hPa 0,0 l/m 0,0 km/h (0 Bft) N 0 0,000 mm 10,9 C 11,7 C 0,0 km/h (0 Bft) 100,00 %
27.09.2023 05:25 22,4 C 11,7 C 14,4 C 56 % 95 % 68 % 1022,5 hPa 0,0 l/m 0,0 km/h (0 Bft) N 0 0,000 mm 10,9 C 11,7 C 0,0 km/h (0 Bft) 100,00 %
27.09.2023 05:24 22,5 C 11,7 C 14,4 C 56 % 95 % 68 % 1022,5 hPa 0,0 l/m 0,0 km/h (0 Bft) N 0 0,000 mm 10,9 C 11,7 C 0,0 km/h (0 Bft) 95,65 %
27.09.2023 05:23 22,5 C 11,8 C 14,4 C 56 % 95 % 68 % 1022,5 hPa 0,0 l/m 0,0 km/h (0 Bft) N 0 0,000 mm 11,0 C 11,8 C 0,0 km/h (0 Bft) 95,65 %
27.09.2023 05:22 22,5 C 11,8 C 14,4 C 56 % 95 % 68 % 1022,4 hPa 0,0 l/m 0,0 km/h (0 Bft) N 0 0,000 mm 11,0 C 11,8 C 0,0 km/h (0 Bft) 100,00 %
27.09.2023 05:21 22,5 C 11,7 C 14,4 C 56 % 95 % 68 % 1022,4 hPa 0,0 l/m 0,0 km/h (0 Bft) N 0 0,000 mm 10,9 C 11,7 C 0,0 km/h (0 Bft) 100,00 %
27.09.2023 05:20 22,5 C 11,8 C 14,4 C 56 % 95 % 68 % 1022,5 hPa 0,0 l/m 0,0 km/h (0 Bft) N 0 0,000 mm 11,0 C 11,8 C 0,0 km/h (0 Bft) 95,65 %
27.09.2023 05:19 22,5 C 11,8 C 14,4 C 56 % 95 % 68 % 1022,4 hPa 0,0 l/m 0,0 km/h (0 Bft) N 0 0,000 mm 11,0 C 11,8 C 0,0 km/h (0 Bft) 100,00 %
27.09.2023 05:18 22,5 C 11,7 C 14,4 C 56 % 95 % 68 % 1022,5 hPa 0,0 l/m 0,0 km/h (0 Bft) N 0 0,000 mm 10,9 C 11,7 C 0,0 km/h (0 Bft) 100,00 %
27.09.2023 05:17 22,5 C 11,8 C 14,4 C 56 % 95 % 68 % 1022,5 hPa 0,0 l/m 0,0 km/h (0 Bft) N 0 0,000 mm 11,0 C 11,8 C 0,0 km/h (0 Bft) 95,65 %
27.09.2023 05:16 22,5 C 11,8 C 14,4 C 56 % 95 % 68 % 1022,4 hPa 0,0 l/m 0,0 km/h (0 Bft) N 0 0,000 mm 11,0 C 11,8 C 0,0 km/h (0 Bft) 95,65 %
27.09.2023 05:15 22,5 C 11,7 C 14,4 C 56 % 95 % 68 % 1022,4 hPa 0,0 l/m 0,0 km/h (0 Bft) N 0 0,000 mm 10,9 C 11,7 C 0,0 km/h (0 Bft) 91,30 %
27.09.2023 05:14 22,5 C 11,7 C 14,4 C 56 % 95 % 68 % 1022,5 hPa 0,0 l/m 0,0 km/h (0 Bft) N 0 0,000 mm 10,9 C 11,7 C 0,0 km/h (0 Bft) 100,00 %
27.09.2023 05:13 22,5 C 11,8 C 14,4 C 56 % 95 % 68 % 1022,4 hPa 0,0 l/m 0,0 km/h (0 Bft) N 0 0,000 mm 11,0 C 11,8 C 0,0 km/h (0 Bft) 100,00 %
27.09.2023 05:12 22,5 C 11,8 C 14,4 C 56 % 95 % 68 % 1022,4 hPa 0,0 l/m 0,0 km/h (0 Bft) N 0 0,000 mm 11,0 C 11,8 C 0,0 km/h (0 Bft) 95,65 %
27.09.2023 05:11 22,5 C 11,8 C 14,4 C 56 % 95 % 68 % 1022,3 hPa 0,0 l/m 0,0 km/h (0 Bft) N 0 0,000 mm 11,0 C 11,8 C 0,0 km/h (0 Bft) 95,65 %
27.09.2023 05:10 22,5 C 11,8 C 14,4 C 56 % 95 % 68 % 1022,4 hPa 0,0 l/m 0,0 km/h (0 Bft) N 0 0,000 mm 11,0 C 11,8 C 0,0 km/h (0 Bft) 100,00 %
27.09.2023 05:09 22,5 C 11,8 C 14,4 C 56 % 95 % 68 % 1022,4 hPa 0,0 l/m 0,0 km/h (0 Bft) N 0 0,000 mm 11,0 C 11,8 C 0,0 km/h (0 Bft) 86,96 %
27.09.2023 05:08 22,5 C 11,8 C 14,4 C 56 % 95 % 68 % 1022,5 hPa 0,0 l/m 0,0 km/h (0 Bft) N 0 0,000 mm 11,0 C 11,8 C 0,0 km/h (0 Bft) 100,00 %
27.09.2023 05:07 22,5 C 11,8 C 14,4 C 56 % 95 % 68 % 1022,4 hPa 0,0 l/m 0,0 km/h (0 Bft) N 0 0,000 mm 11,0 C 11,8 C 0,0 km/h (0 Bft) 95,65 %
27.09.2023 05:06 22,6 C 11,8 C 14,4 C 56 % 95 % 68 % 1022,4 hPa 0,0 l/m 0,0 km/h (0 Bft) N 0 0,000 mm 11,0 C 11,8 C 0,0 km/h (0 Bft) 100,00 %
27.09.2023 05:05 22,6 C 11,8 C 14,4 C 56 % 95 % 68 % 1022,4 hPa 0,0 l/m 0,0 km/h (0 Bft) N 0 0,000 mm 11,0 C 11,8 C 0,0 km/h (0 Bft) 95,65 %
27.09.2023 05:04 22,5 C 11,8 C 14,4 C 56 % 95 % 68 % 1022,4 hPa 0,0 l/m 0,0 km/h (0 Bft) N 0 0,000 mm 11,0 C 11,8 C 0,0 km/h (0 Bft) 95,65 %
27.09.2023 05:03 22,5 C 11,8 C 14,4 C 56 % 95 % 68 % 1022,4 hPa 0,0 l/m 0,0 km/h (0 Bft) N 0 0,000 mm 11,0 C 11,8 C 0,0 km/h (0 Bft) 95,65 %
27.09.2023 05:02 22,6 C 11,8 C 14,4 C 56 % 95 % 68 % 1022,4 hPa 0,0 l/m 0,0 km/h (0 Bft) N 0 0,000 mm 11,0 C 11,8 C 0,0 km/h (0 Bft) 91,30 %
27.09.2023 05:01 22,6 C 11,8 C 14,4 C 56 % 95 % 68 % 1022,3 hPa 0,0 l/m 0,0 km/h (0 Bft) N 0 0,000 mm 11,0 C 11,8 C 0,0 km/h (0 Bft) 95,65 %
27.09.2023 05:00 22,6 C 11,9 C 14,4 C 56 % 95 % 68 % 1022,5 hPa 0,0 l/m 0,0 km/h (0 Bft) N 0 0,000 mm 11,1 C 11,9 C 0,0 km/h (0 Bft) 91,30 %
27.09.2023 04:59 22,5 C 11,9 C 14,4 C 56 % 95 % 68 % 1022,4 hPa 0,0 l/m 0,0 km/h (0 Bft) N 0 0,000 mm 11,1 C 11,9 C 0,0 km/h (0 Bft) 100,00 %
27.09.2023 04:58 22,6 C 11,9 C 14,4 C 56 % 95 % 68 % 1022,5 hPa 0,0 l/m 0,0 km/h (0 Bft) N 0 0,000 mm 11,1 C 11,9 C 0,0 km/h (0 Bft) 95,65 %
27.09.2023 04:57 22,6 C 11,9 C 14,4 C 56 % 95 % 68 % 1022,5 hPa 0,0 l/m 0,0 km/h (0 Bft) N 0 0,000 mm 11,1 C 11,9 C 0,0 km/h (0 Bft) 95,65 %
27.09.2023 04:56 22,6 C 11,9 C 14,4 C 56 % 95 % 68 % 1022,5 hPa 0,0 l/m 0,0 km/h (0 Bft) N 0 0,000 mm 11,1 C 11,9 C 0,0 km/h (0 Bft) 95,65 %
27.09.2023 04:55 22,6 C 11,9 C 14,4 C 56 % 95 % 68 % 1022,5 hPa 0,0 l/m 0,0 km/h (0 Bft) N 0 0,000 mm 11,1 C 11,9 C 0,0 km/h (0 Bft) 95,65 %
27.09.2023 04:54 22,6 C 12,0 C 14,4 C 56 % 95 % 68 % 1022,5 hPa 0,0 l/m 0,0 km/h (0 Bft) N 0 0,000 mm 11,2 C 12,0 C 0,0 km/h (0 Bft) 95,65 %
27.09.2023 04:53 22,6 C 12,0 C 14,4 C 56 % 95 % 68 % 1022,5 hPa 0,0 l/m 0,0 km/h (0 Bft) N 0 0,000 mm 11,2 C 12,0 C 0,0 km/h (0 Bft) 100,00 %
27.09.2023 04:52 22,6 C 12,0 C 14,4 C 56 % 95 % 68 % 1022,4 hPa 0,0 l/m 0,0 km/h (0 Bft) N 0 0,000 mm 11,2 C 12,0 C 0,0 km/h (0 Bft) 91,30 %
27.09.2023 04:51 22,6 C 12,0 C 14,4 C 56 % 95 % 68 % 1022,5 hPa 0,0 l/m 0,0 km/h (0 Bft) N 0 0,000 mm 11,2 C 12,0 C 0,0 km/h (0 Bft) 100,00 %
27.09.2023 04:50 22,6 C 12,0 C 14,4 C 56 % 95 % 68 % 1022,5 hPa 0,0 l/m 0,0 km/h (0 Bft) N 0 0,000 mm 11,2 C 12,0 C 0,0 km/h (0 Bft) 95,65 %
27.09.2023 04:49 22,6 C 12,1 C 14,4 C 56 % 95 % 68 % 1022,4 hPa 0,0 l/m 0,0 km/h (0 Bft) N 0 0,000 mm 11,3 C 12,1 C 0,0 km/h (0 Bft) 100,00 %
27.09.2023 04:48 22,6 C 12,0 C 14,4 C 56 % 95 % 68 % 1022,4 hPa 0,0 l/m 0,0 km/h (0 Bft) N 0 0,000 mm 11,2 C 12,0 C 0,0 km/h (0 Bft) 91,30 %
27.09.2023 04:47 22,6 C 12,1 C 14,4 C 56 % 95 % 68 % 1022,5 hPa 0,0 l/m 0,0 km/h (0 Bft) N 0 0,000 mm 11,3 C 12,1 C 0,0 km/h (0 Bft) 95,65 %
27.09.2023 04:46 22,6 C 12,0 C 14,4 C 56 % 95 % 68 % 1022,5 hPa 0,0 l/m 0,0 km/h (0 Bft) N 0 0,000 mm 11,2 C 12,0 C 0,0 km/h (0 Bft) 91,30 %
27.09.2023 04:45 22,6 C 12,1 C 14,4 C 56 % 95 % 68 % 1022,5 hPa 0,0 l/m 0,0 km/h (0 Bft) N 0 0,000 mm 11,3 C 12,1 C 0,0 km/h (0 Bft) 91,30 %
27.09.2023 04:44 22,6 C 12,1 C 14,4 C 56 % 95 % 68 % 1022,5 hPa 0,0 l/m 0,0 km/h (0 Bft) N 0 0,000 mm 11,3 C 12,1 C 0,0 km/h (0 Bft) 100,00 %
27.09.2023 04:43 22,6 C 12,1 C 14,4 C 56 % 95 % 68 % 1022,6 hPa 0,0 l/m 0,0 km/h (0 Bft) N 0 0,000 mm 11,3 C 12,1 C 0,0 km/h (0 Bft) 91,30 %
27.09.2023 04:42 22,5 C 12,1 C 14,4 C 56 % 95 % 68 % 1022,5 hPa 0,0 l/m 0,0 km/h (0 Bft) N 0 0,000 mm 11,3 C 12,1 C 0,0 km/h (0 Bft) 100,00 %
27.09.2023 04:41 22,6 C 12,1 C 14,4 C 56 % 95 % 68 % 1022,5 hPa 0,0 l/m 0,0 km/h (0 Bft) N 0 0,000 mm 11,3 C 12,1 C 0,0 km/h (0 Bft) 91,30 %
27.09.2023 04:40 22,6 C 12,1 C 14,4 C 56 % 95 % 68 % 1022,5 hPa 0,0 l/m 0,0 km/h (0 Bft) N 0 0,000 mm 11,3 C 12,1 C 0,0 km/h (0 Bft) 95,65 %
27.09.2023 04:39 22,6 C 12,1 C 14,4 C 56 % 95 % 68 % 1022,4 hPa 0,0 l/m 0,0 km/h (0 Bft) N 0 0,000 mm 11,3 C 12,1 C 0,0 km/h (0 Bft) 86,96 %
27.09.2023 04:38 22,6 C 12,1 C 14,4 C 56 % 95 % 68 % 1022,5 hPa 0,0 l/m 0,0 km/h (0 Bft) N 0 0,000 mm 11,3 C 12,1 C 0,0 km/h (0 Bft) 95,65 %
27.09.2023 04:37 22,6 C 12,2 C 14,4 C 56 % 95 % 68 % 1022,4 hPa 0,0 l/m 0,0 km/h (0 Bft) N 0 0,000 mm 11,4 C 12,2 C 0,0 km/h (0 Bft) 91,30 %
27.09.2023 04:36 22,6 C 12,2 C 14,4 C 56 % 95 % 68 % 1022,4 hPa 0,0 l/m 0,0 km/h (0 Bft) N 0 0,000 mm 11,4 C 12,2 C 0,0 km/h (0 Bft) 100,00 %
27.09.2023 04:35 22,6 C 12,2 C 15,0 C 56 % 95 % 68 % 1022,4 hPa 0,0 l/m 0,0 km/h (0 Bft) N 0 0,000 mm 11,4 C 12,2 C 0,0 km/h (0 Bft) 91,30 %
27.09.2023 04:34 22,6 C 12,2 C 15,0 C 56 % 95 % 68 % 1022,4 hPa 0,0 l/m 0,0 km/h (0 Bft) N 0 0,000 mm 11,4 C 12,2 C 0,0 km/h (0 Bft) 95,65 %
27.09.2023 04:33 22,6 C 12,2 C 15,0 C 56 % 95 % 68 % 1022,4 hPa 0,0 l/m 0,0 km/h (0 Bft) N 0 0,000 mm 11,4 C 12,2 C 0,0 km/h (0 Bft) 91,30 %
27.09.2023 04:32 22,6 C 12,3 C 15,0 C 56 % 95 % 68 % 1022,5 hPa 0,0 l/m 0,0 km/h (0 Bft) N 0 0,000 mm 11,5 C 12,3 C 0,0 km/h (0 Bft) 100,00 %
27.09.2023 04:31 22,6 C 12,3 C 15,0 C 56 % 95 % 68 % 1022,4 hPa 0,0 l/m 0,0 km/h (0 Bft) N 0 0,000 mm 11,5 C 12,3 C 0,0 km/h (0 Bft) 86,96 %
27.09.2023 04:30 22,6 C 12,3 C 15,0 C 56 % 95 % 68 % 1022,5 hPa 0,0 l/m 0,0 km/h (0 Bft) N 0 0,000 mm 11,5 C 12,3 C 0,0 km/h (0 Bft) 91,30 %
27.09.2023 04:29 22,6 C 12,3 C 15,0 C 56 % 95 % 68 % 1022,5 hPa 0,0 l/m 0,0 km/h (0 Bft) N 0 0,000 mm 11,5 C 12,3 C 0,0 km/h (0 Bft) 100,00 %
27.09.2023 04:28 22,6 C 12,3 C 15,0 C 56 % 95 % 68 % 1022,4 hPa 0,0 l/m 0,0 km/h (0 Bft) N 0 0,000 mm 11,5 C 12,3 C 0,0 km/h (0 Bft) 91,30 %
27.09.2023 04:27 22,6 C 12,4 C 15,0 C 56 % 95 % 68 % 1022,4 hPa 0,0 l/m 0,0 km/h (0 Bft) N 0 0,000 mm 11,6 C 12,4 C 0,0 km/h (0 Bft) 95,65 %
27.09.2023 04:26 22,6 C 12,4 C 15,0 C 56 % 95 % 68 % 1022,4 hPa 0,0 l/m 0,0 km/h (0 Bft) N 0 0,000 mm 11,6 C 12,4 C 0,0 km/h (0 Bft) 91,30 %
27.09.2023 04:25 22,6 C 12,4 C 15,0 C 56 % 95 % 68 % 1022,3 hPa 0,0 l/m 0,0 km/h (0 Bft) N 0 0,000 mm 11,6 C 12,4 C 0,0 km/h (0 Bft) 100,00 %
27.09.2023 04:24 22,6 C 12,4 C 15,0 C 56 % 95 % 68 % 1022,4 hPa 0,0 l/m 0,0 km/h (0 Bft) N 0 0,000 mm 11,6 C 12,4 C 0,0 km/h (0 Bft) 91,30 %
27.09.2023 04:23 22,6 C 12,4 C 15,0 C 56 % 95 % 68 % 1022,4 hPa 0,0 l/m 0,0 km/h (0 Bft) N 0 0,000 mm 11,6 C 12,4 C 0,0 km/h (0 Bft) 100,00 %
27.09.2023 04:22 22,6 C 12,4 C 15,0 C 56 % 95 % 68 % 1022,3 hPa 0,0 l/m 0,0 km/h (0 Bft) N 0 0,000 mm 11,6 C 12,4 C 0,0 km/h (0 Bft) 91,30 %
27.09.2023 04:21 22,6 C 12,5 C 15,0 C 56 % 95 % 68 % 1022,4 hPa 0,0 l/m 0,0 km/h (0 Bft) N 0 0,000 mm 11,7 C 12,5 C 0,0 km/h (0 Bft) 95,65 %
27.09.2023 04:20 22,6 C 12,6 C 15,0 C 56 % 95 % 68 % 1022,3 hPa 0,0 l/m 0,0 km/h (0 Bft) N 0 0,000 mm 11,8 C 12,6 C 0,0 km/h (0 Bft) 91,30 %
27.09.2023 04:19 22,6 C 12,6 C 15,0 C 56 % 95 % 68 % 1022,4 hPa 0,0 l/m 0,0 km/h (0 Bft) N 0 0,000 mm 11,8 C 12,6 C 0,0 km/h (0 Bft) 95,65 %
27.09.2023 04:18 22,6 C 12,6 C 15,0 C 56 % 95 % 68 % 1022,4 hPa 0,0 l/m 0,0 km/h (0 Bft) N 0 0,000 mm 11,8 C 12,6 C 0,0 km/h (0 Bft) 95,65 %
27.09.2023 04:17 22,6 C 12,6 C 15,0 C 56 % 95 % 68 % 1022,4 hPa 0,0 l/m 0,0 km/h (0 Bft) N 0 0,000 mm 11,8 C 12,6 C 0,0 km/h (0 Bft) 95,65 %
27.09.2023 04:16 22,6 C 12,6 C 15,0 C 56 % 95 % 68 % 1022,4 hPa 0,0 l/m 0,0 km/h (0 Bft) N 0 0,000 mm 11,8 C 12,6 C 0,0 km/h (0 Bft) 91,30 %
27.09.2023 04:15 22,6 C 12,7 C 15,0 C 56 % 95 % 68 % 1022,5 hPa 0,0 l/m 0,0 km/h (0 Bft) N 0 0,000 mm 11,9 C 12,7 C 0,0 km/h (0 Bft) 95,65 %
27.09.2023 04:14 22,6 C 12,7 C 15,0 C 56 % 95 % 68 % 1022,4 hPa 0,0 l/m 0,0 km/h (0 Bft) N 0 0,000 mm 11,9 C 12,7 C 0,0 km/h (0 Bft) 95,65 %
27.09.2023 04:13 22,6 C 12,7 C 15,0 C 56 % 95 % 68 % 1022,4 hPa 0,0 l/m 0,0 km/h (0 Bft) N 0 0,000 mm 11,9 C 12,7 C 0,0 km/h (0 Bft) 86,96 %
27.09.2023 04:12 22,6 C 12,7 C 15,0 C 56 % 95 % 68 % 1022,4 hPa 0,0 l/m 0,0 km/h (0 Bft) N 0 0,000 mm 11,9 C 12,7 C 0,0 km/h (0 Bft) 100,00 %
27.09.2023 04:11 22,6 C 12,7 C 15,0 C 56 % 95 % 68 % 1022,5 hPa 0,0 l/m 0,0 km/h (0 Bft) N 0 0,000 mm 11,9 C 12,7 C 0,0 km/h (0 Bft) 95,65 %
27.09.2023 04:10 22,6 C 12,7 C 15,0 C 56 % 95 % 68 % 1022,4 hPa 0,0 l/m 0,0 km/h (0 Bft) N 0 0,000 mm 11,9 C 12,7 C 0,0 km/h (0 Bft) 100,00 %
27.09.2023 04:09 22,6 C 12,7 C 15,0 C 56 % 95 % 68 % 1022,4 hPa 0,0 l/m 0,0 km/h (0 Bft) N 0 0,000 mm 11,9 C 12,7 C 0,0 km/h (0 Bft) 95,65 %
27.09.2023 04:08 22,6 C 12,8 C 15,0 C 56 % 95 % 68 % 1022,5 hPa 0,0 l/m 0,0 km/h (0 Bft) N 0 0,000 mm 12,0 C 12,8 C 0,0 km/h (0 Bft) 100,00 %
27.09.2023 04:07 22,6 C 12,8 C 15,0 C 56 % 95 % 68 % 1022,4 hPa 0,0 l/m 0,0 km/h (0 Bft) N 0 0,000 mm 12,0 C 12,8 C 0,0 km/h (0 Bft) 95,65 %
27.09.2023 04:06 22,6 C 12,8 C 15,0 C 56 % 95 % 68 % 1022,4 hPa 0,0 l/m 0,0 km/h (0 Bft) N 0 0,000 mm 12,0 C 12,8 C 0,0 km/h (0 Bft) 91,30 %
27.09.2023 04:05 22,6 C 12,8 C 15,0 C 56 % 95 % 68 % 1022,5 hPa 0,0 l/m 0,0 km/h (0 Bft) N 0 0,000 mm 12,0 C 12,8 C 0,0 km/h (0 Bft) 91,30 %
27.09.2023 04:04 22,6 C 12,8 C 15,0 C 56 % 95 % 68 % 1022,5 hPa 0,0 l/m 0,0 km/h (0 Bft) N 0 0,000 mm 12,0 C 12,8 C 0,0 km/h (0 Bft) 100,00 %
27.09.2023 04:03 22,6 C 12,8 C 15,0 C 56 % 95 % 68 % 1022,5 hPa 0,0 l/m 0,0 km/h (0 Bft) N 0 0,000 mm 12,0 C 12,8 C 0,0 km/h (0 Bft) 91,30 %
27.09.2023 04:02 22,6 C 12,9 C 15,0 C 56 % 95 % 68 % 1022,4 hPa 0,0 l/m 0,0 km/h (0 Bft) N 0 0,000 mm 12,1 C 12,9 C 0,0 km/h (0 Bft) 100,00 %
27.09.2023 04:01 22,6 C 12,9 C 15,0 C 56 % 95 % 68 % 1022,3 hPa 0,0 l/m 0,0 km/h (0 Bft) N 0 0,000 mm 12,1 C 12,9 C 0,0 km/h (0 Bft) 95,65 %
27.09.2023 04:00 22,6 C 12,9 C 15,0 C 56 % 95 % 68 % 1022,3 hPa 0,0 l/m 0,0 km/h (0 Bft) N 0 0,000 mm 12,1 C 12,9 C 0,0 km/h (0 Bft) 95,65 %
27.09.2023 03:59 22,6 C 12,9 C 15,0 C 56 % 95 % 68 % 1022,5 hPa 0,0 l/m 0,0 km/h (0 Bft) N 0 0,000 mm 12,1 C 12,9 C 0,0 km/h (0 Bft) 86,96 %
27.09.2023 03:58 22,6 C 12,9 C 15,0 C 56 % 95 % 68 % 1022,4 hPa 0,0 l/m 0,0 km/h (0 Bft) N 0 0,000 mm 12,1 C 12,9 C 0,0 km/h (0 Bft) 95,65 %
27.09.2023 03:57 22,6 C 13,0 C 15,0 C 56 % 95 % 68 % 1022,3 hPa 0,0 l/m 0,0 km/h (0 Bft) N 0 0,000 mm 12,2 C 13,0 C 0,0 km/h (0 Bft) 100,00 %
27.09.2023 03:56 22,6 C 13,0 C 15,0 C 56 % 95 % 68 % 1022,4 hPa 0,0 l/m 0,0 km/h (0 Bft) N 0 0,000 mm 12,2 C 13,0 C 0,0 km/h (0 Bft) 95,65 %
27.09.2023 03:55 22,6 C 13,1 C 15,0 C 56 % 95 % 68 % 1022,5 hPa 0,0 l/m 0,0 km/h (0 Bft) N 0 0,000 mm 12,3 C 13,1 C 0,0 km/h (0 Bft) 100,00 %
27.09.2023 03:54 22,6 C 13,1 C 15,0 C 56 % 95 % 68 % 1022,4 hPa 0,0 l/m 0,0 km/h (0 Bft) N 0 0,000 mm 12,3 C 13,1 C 0,0 km/h (0 Bft) 95,65 %
27.09.2023 03:53 22,6 C 13,1 C 15,0 C 56 % 95 % 68 % 1022,5 hPa 0,0 l/m 0,0 km/h (0 Bft) N 0 0,000 mm 12,3 C 13,1 C 0,0 km/h (0 Bft) 100,00 %
27.09.2023 03:52 22,6 C 13,1 C 15,0 C 56 % 95 % 68 % 1022,4 hPa 0,0 l/m 0,0 km/h (0 Bft) N 0 0,000 mm 12,3 C 13,1 C 0,0 km/h (0 Bft) 91,30 %
27.09.2023 03:51 22,6 C 13,1 C 15,0 C 56 % 95 % 68 % 1022,5 hPa 0,0 l/m 0,0 km/h (0 Bft) N 0 0,000 mm 12,3 C 13,1 C 0,0 km/h (0 Bft) 95,65 %
27.09.2023 03:50 22,6 C 13,2 C 15,0 C 56 % 95 % 68 % 1022,3 hPa 0,0 l/m 0,0 km/h (0 Bft) N 0 0,000 mm 12,4 C 13,2 C 0,0 km/h (0 Bft) 95,65 %
27.09.2023 03:49 22,6 C 13,2 C 15,0 C 56 % 95 % 68 % 1022,4 hPa 0,0 l/m 0,0 km/h (0 Bft) N 0 0,000 mm 12,4 C 13,2 C 0,0 km/h (0 Bft) 100,00 %
27.09.2023 03:48 22,6 C 13,2 C 15,0 C 56 % 95 % 68 % 1022,4 hPa 0,0 l/m 0,0 km/h (0 Bft) N 0 0,000 mm 12,4 C 13,2 C 0,0 km/h (0 Bft) 91,30 %
27.09.2023 03:47 22,6 C 13,2 C 15,0 C 56 % 95 % 68 % 1022,4 hPa 0,0 l/m 0,0 km/h (0 Bft) N 0 0,000 mm 12,4 C 13,2 C 0,0 km/h (0 Bft) 95,65 %
27.09.2023 03:46 22,6 C 13,2 C 15,0 C 56 % 95 % 68 % 1022,4 hPa 0,0 l/m 0,0 km/h (0 Bft) N 0 0,000 mm 12,4 C 13,2 C 0,0 km/h (0 Bft) 95,65 %
27.09.2023 03:45 22,6 C 13,2 C 15,0 C 56 % 95 % 68 % 1022,3 hPa 0,0 l/m 0,0 km/h (0 Bft) N 0 0,000 mm 12,4 C 13,2 C 0,0 km/h (0 Bft) 95,65 %
27.09.2023 03:44 22,6 C 13,2 C 15,6 C 56 % 95 % 68 % 1022,5 hPa 0,0 l/m 0,0 km/h (0 Bft) N 0 0,000 mm 12,4 C 13,2 C 0,0 km/h (0 Bft) 95,65 %
27.09.2023 03:43 22,6 C 13,2 C 15,6 C 56 % 95 % 68 % 1022,4 hPa 0,0 l/m 0,0 km/h (0 Bft) N 0 0,000 mm 12,4 C 13,2 C 0,0 km/h (0 Bft) 100,00 %
27.09.2023 03:42 22,6 C 13,2 C 15,0 C 56 % 95 % 68 % 1022,5 hPa 0,0 l/m 0,0 km/h (0 Bft) N 0 0,000 mm 12,4 C 13,2 C 0,0 km/h (0 Bft) 95,65 %
27.09.2023 03:41 22,6 C 13,2 C 15,6 C 56 % 95 % 68 % 1022,4 hPa 0,0 l/m 0,0 km/h (0 Bft) N 0 0,000 mm 12,4 C 13,2 C 0,0 km/h (0 Bft) 95,65 %
27.09.2023 03:40 22,6 C 13,2 C 15,6 C 56 % 95 % 68 % 1022,5 hPa 0,0 l/m 0,0 km/h (0 Bft) N 0 0,000 mm 12,4 C 13,2 C 0,0 km/h (0 Bft) 100,00 %
27.09.2023 03:39 22,6 C 13,2 C 15,6 C 56 % 95 % 68 % 1022,5 hPa 0,0 l/m 0,0 km/h (0 Bft) N 0 0,000 mm 12,4 C 13,2 C 0,0 km/h (0 Bft) 91,30 %
27.09.2023 03:38 22,6 C 13,2 C 15,6 C 56 % 95 % 68 % 1022,5 hPa 0,0 l/m 0,0 km/h (0 Bft) N 0 0,000 mm 12,4 C 13,2 C 0,0 km/h (0 Bft) 95,65 %
27.09.2023 03:37 22,6 C 13,2 C 15,6 C 56 % 95 % 68 % 1022,5 hPa 0,0 l/m 0,0 km/h (0 Bft) N 0 0,000 mm 12,4 C 13,2 C 0,0 km/h (0 Bft) 91,30 %
27.09.2023 03:36 22,6 C 13,2 C 15,6 C 56 % 95 % 68 % 1022,5 hPa 0,0 l/m 0,0 km/h (0 Bft) N 0 0,000 mm 12,4 C 13,2 C 0,0 km/h (0 Bft) 100,00 %
27.09.2023 03:35 22,6 C 13,3 C 15,6 C 56 % 95 % 68 % 1022,5 hPa 0,0 l/m 0,0 km/h (0 Bft) N 0 0,000 mm 12,5 C 13,3 C 0,0 km/h (0 Bft) 95,65 %
27.09.2023 03:34 22,6 C 13,3 C 15,6 C 56 % 95 % 68 % 1022,5 hPa 0,0 l/m 0,0 km/h (0 Bft) N 0 0,000 mm 12,5 C 13,3 C 0,0 km/h (0 Bft) 100,00 %
27.09.2023 03:33 22,6 C 13,3 C 15,6 C 56 % 94 % 68 % 1022,5 hPa 0,0 l/m 0,0 km/h (0 Bft) N 0 0,000 mm 12,4 C 13,3 C 0,0 km/h (0 Bft) 95,65 %
27.09.2023 03:32 22,6 C 13,3 C 15,6 C 56 % 95 % 68 % 1022,5 hPa 0,0 l/m 0,0 km/h (0 Bft) N 0 0,000 mm 12,5 C 13,3 C 0,0 km/h (0 Bft) 100,00 %
27.09.2023 03:31 22,6 C 13,3 C 15,6 C 56 % 95 % 68 % 1022,5 hPa 0,0 l/m 0,0 km/h (0 Bft) N 0 0,000 mm 12,5 C 13,3 C 0,0 km/h (0 Bft) 91,30 %
27.09.2023 03:30 22,6 C 13,3 C 15,6 C 56 % 94 % 68 % 1022,5 hPa 0,0 l/m 0,0 km/h (0 Bft) N 0 0,000 mm 12,4 C 13,3 C 0,0 km/h (0 Bft) 91,30 %
27.09.2023 03:29 22,6 C 13,4 C 15,6 C 56 % 94 % 68 % 1022,5 hPa 0,0 l/m 0,0 km/h (0 Bft) N 0 0,000 mm 12,5 C 13,4 C 0,0 km/h (0 Bft) 95,65 %
27.09.2023 03:28 22,7 C 13,4 C 15,6 C 56 % 95 % 68 % 1022,5 hPa 0,0 l/m 0,0 km/h (0 Bft) SW 225 0,000 mm 12,6 C 13,4 C 1,6 km/h (1 Bft) 95,65 %
27.09.2023 03:27 22,6 C 13,4 C 15,6 C 56 % 95 % 68 % 1022,5 hPa 0,0 l/m 1,6 km/h (1 Bft) SW 225 0,000 mm 12,6 C 13,4 C 3,2 km/h (1 Bft) 95,65 %
27.09.2023 03:26 22,6 C 13,4 C 15,6 C 56 % 95 % 68 % 1022,4 hPa 0,0 l/m 0,0 km/h (0 Bft) N 0 0,000 mm 12,6 C 13,4 C 0,0 km/h (0 Bft) 95,65 %
27.09.2023 03:25 22,6 C 13,5 C 15,6 C 56 % 95 % 68 % 1022,5 hPa 0,0 l/m 0,0 km/h (0 Bft) N 0 0,000 mm 12,7 C 13,5 C 0,0 km/h (0 Bft) 100,00 %
27.09.2023 03:24 22,7 C 13,5 C 15,6 C 56 % 95 % 68 % 1022,5 hPa 0,0 l/m 0,0 km/h (0 Bft) N 0 0,000 mm 12,7 C 13,5 C 0,0 km/h (0 Bft) 95,65 %
27.09.2023 03:23 22,6 C 13,5 C 15,6 C 56 % 95 % 68 % 1022,5 hPa 0,0 l/m 0,0 km/h (0 Bft) SW 225 0,000 mm 12,7 C 13,5 C 1,6 km/h (1 Bft) 95,65 %
27.09.2023 03:22 22,7 C 13,6 C 15,6 C 56 % 95 % 68 % 1022,6 hPa 0,0 l/m 0,0 km/h (0 Bft) SW 225 0,000 mm 12,8 C 13,6 C 1,6 km/h (1 Bft) 95,65 %
27.09.2023 03:21 22,6 C 13,6 C 15,6 C 56 % 95 % 68 % 1022,5 hPa 0,0 l/m 1,6 km/h (1 Bft) SW 225 0,000 mm 12,8 C 13,6 C 3,2 km/h (1 Bft) 100,00 %
27.09.2023 03:20 22,6 C 13,6 C 15,6 C 56 % 95 % 68 % 1022,5 hPa 0,0 l/m 0,0 km/h (0 Bft) N 0 0,000 mm 12,8 C 13,6 C 0,0 km/h (0 Bft) 91,30 %
27.09.2023 03:19 22,6 C 13,6 C 15,6 C 56 % 95 % 68 % 1022,4 hPa 0,0 l/m 0,0 km/h (0 Bft) N 0 0,000 mm 12,8 C 13,6 C 0,0 km/h (0 Bft) 100,00 %
27.09.2023 03:18 22,7 C 13,6 C 15,6 C 56 % 95 % 68 % 1022,5 hPa 0,0 l/m 0,0 km/h (0 Bft) N 0 0,000 mm 12,8 C 13,6 C 0,0 km/h (0 Bft) 91,30 %
27.09.2023 03:17 22,6 C 13,6 C 15,6 C 56 % 95 % 68 % 1022,5 hPa 0,0 l/m 0,0 km/h (0 Bft) N 0 0,000 mm 12,8 C 13,6 C 0,0 km/h (0 Bft) 100,00 %
27.09.2023 03:16 22,7 C 13,6 C 15,6 C 56 % 95 % 68 % 1022,5 hPa 0,0 l/m 0,0 km/h (0 Bft) N 0 0,000 mm 12,8 C 13,6 C 0,0 km/h (0 Bft) 91,30 %
27.09.2023 03:15 22,7 C 13,6 C 15,6 C 56 % 95 % 68 % 1022,5 hPa 0,0 l/m 0,0 km/h (0 Bft) N 0 0,000 mm 12,8 C 13,6 C 0,0 km/h (0 Bft) 95,65 %
27.09.2023 03:14 22,7 C 13,6 C 15,6 C 56 % 95 % 68 % 1022,5 hPa 0,0 l/m 0,0 km/h (0 Bft) N 0 0,000 mm 12,8 C 13,6 C 0,0 km/h (0 Bft) 91,30 %
27.09.2023 03:13 22,7 C 13,6 C 15,6 C 56 % 95 % 68 % 1022,4 hPa 0,0 l/m 0,0 km/h (0 Bft) N 0 0,000 mm 12,8 C 13,6 C 0,0 km/h (0 Bft) 100,00 %
27.09.2023 03:12 22,7 C 13,6 C 15,6 C 56 % 95 % 68 % 1022,4 hPa 0,0 l/m 0,0 km/h (0 Bft) N 0 0,000 mm 12,8 C 13,6 C 0,0 km/h (0 Bft) 91,30 %
27.09.2023 03:11 22,7 C 13,6 C 15,6 C 56 % 95 % 68 % 1022,5 hPa 0,0 l/m 0,0 km/h (0 Bft) N 0 0,000 mm 12,8 C 13,6 C 0,0 km/h (0 Bft) 91,30 %
27.09.2023 03:10 22,7 C 13,6 C 15,6 C 56 % 95 % 68 % 1022,5 hPa 0,0 l/m 0,0 km/h (0 Bft) N 0 0,000 mm 12,8 C 13,6 C 0,0 km/h (0 Bft) 100,00 %
27.09.2023 03:09 22,7 C 13,6 C 15,6 C 56 % 95 % 68 % 1022,5 hPa 0,0 l/m 0,0 km/h (0 Bft) N 0 0,000 mm 12,8 C 13,6 C 0,0 km/h (0 Bft) 91,30 %
27.09.2023 03:08 22,7 C 13,6 C 15,6 C 56 % 95 % 68 % 1022,4 hPa 0,0 l/m 0,0 km/h (0 Bft) N 0 0,000 mm 12,8 C 13,6 C 0,0 km/h (0 Bft) 95,65 %
27.09.2023 03:07 22,7 C 13,6 C 15,6 C 56 % 95 % 68 % 1022,4 hPa 0,0 l/m 0,0 km/h (0 Bft) N 0 0,000 mm 12,8 C 13,6 C 0,0 km/h (0 Bft) 95,65 %
27.09.2023 03:06 22,7 C 13,6 C 15,6 C 56 % 95 % 68 % 1022,5 hPa 0,0 l/m 0,0 km/h (0 Bft) N 0 0,000 mm 12,8 C 13,6 C 0,0 km/h (0 Bft) 100,00 %
27.09.2023 03:05 22,7 C 13,6 C 15,6 C 56 % 95 % 68 % 1022,5 hPa 0,0 l/m 0,0 km/h (0 Bft) N 0 0,000 mm 12,8 C 13,6 C 0,0 km/h (0 Bft) 95,65 %
27.09.2023 03:04 22,7 C 13,6 C 15,6 C 56 % 95 % 68 % 1022,5 hPa 0,0 l/m 0,0 km/h (0 Bft) N 0 0,000 mm 12,8 C 13,6 C 0,0 km/h (0 Bft) 100,00 %
27.09.2023 03:03 22,7 C 13,6 C 15,6 C 56 % 95 % 68 % 1022,5 hPa 0,0 l/m 0,0 km/h (0 Bft) SW 225 0,000 mm 12,8 C 13,6 C 1,6 km/h (1 Bft) 91,30 %
27.09.2023 03:02 22,7 C 13,6 C 15,6 C 56 % 95 % 68 % 1022,6 hPa 0,0 l/m 1,6 km/h (1 Bft) SW 225 0,000 mm 12,8 C 13,6 C 3,2 km/h (1 Bft) 91,30 %
27.09.2023 03:01 22,7 C 13,6 C 15,6 C 56 % 95 % 68 % 1022,5 hPa 0,0 l/m 1,6 km/h (1 Bft) SW 225 0,000 mm 12,8 C 13,6 C 4,8 km/h (1 Bft) 100,00 %
27.09.2023 03:00 22,7 C 13,6 C 15,6 C 56 % 95 % 68 % 1022,5 hPa 0,0 l/m 3,2 km/h (1 Bft) SW 225 0,000 mm 12,8 C 13,6 C 4,8 km/h (1 Bft) 95,65 %
27.09.2023 02:59 22,7 C 13,6 C 15,6 C 56 % 95 % 68 % 1022,5 hPa 0,0 l/m 3,2 km/h (1 Bft) SW 225 0,000 mm 12,8 C 13,6 C 4,8 km/h (1 Bft) 95,65 %
27.09.2023 02:58 22,7 C 13,6 C 15,6 C 56 % 95 % 68 % 1022,6 hPa 0,0 l/m 1,6 km/h (1 Bft) SW 225 0,000 mm 12,8 C 13,6 C 3,2 km/h (1 Bft) 86,96 %
27.09.2023 02:57 22,7 C 13,6 C 15,6 C 56 % 95 % 68 % 1022,5 hPa 0,0 l/m 0,0 km/h (0 Bft) N 0 0,000 mm 12,8 C 13,6 C 0,0 km/h (0 Bft) 100,00 %
27.09.2023 02:56 22,7 C 13,6 C 15,6 C 56 % 95 % 68 % 1022,6 hPa 0,0 l/m 0,0 km/h (0 Bft) N 0 0,000 mm 12,8 C 13,6 C 0,0 km/h (0 Bft) 91,30 %
27.09.2023 02:55 22,7 C 13,6 C 15,6 C 56 % 95 % 68 % 1022,5 hPa 0,0 l/m 0,0 km/h (0 Bft) N 0 0,000 mm 12,8 C 13,6 C 0,0 km/h (0 Bft) 91,30 %
27.09.2023 02:54 22,7 C 13,6 C 15,6 C 56 % 95 % 68 % 1022,5 hPa 0,0 l/m 0,0 km/h (0 Bft) N 0 0,000 mm 12,8 C 13,6 C 0,0 km/h (0 Bft) 95,65 %
27.09.2023 02:53 22,7 C 13,6 C 15,6 C 56 % 95 % 68 % 1022,6 hPa 0,0 l/m 0,0 km/h (0 Bft) N 0 0,000 mm 12,8 C 13,6 C 0,0 km/h (0 Bft) 95,65 %
27.09.2023 02:52 22,7 C 13,6 C 15,6 C 56 % 94 % 68 % 1022,5 hPa 0,0 l/m 0,0 km/h (0 Bft) N 0 0,000 mm 12,7 C 13,6 C 0,0 km/h (0 Bft) 100,00 %
27.09.2023 02:51 22,7 C 13,6 C 15,6 C 56 % 94 % 68 % 1022,7 hPa 0,0 l/m 0,0 km/h (0 Bft) N 0 0,000 mm 12,7 C 13,6 C 0,0 km/h (0 Bft) 95,65 %
27.09.2023 02:50 22,7 C 13,6 C 15,6 C 56 % 94 % 68 % 1022,6 hPa 0,0 l/m 0,0 km/h (0 Bft) N 0 0,000 mm 12,7 C 13,6 C 0,0 km/h (0 Bft) 95,65 %
27.09.2023 02:49 22,7 C 13,6 C 15,6 C 56 % 94 % 68 % 1022,6 hPa 0,0 l/m 0,0 km/h (0 Bft) N 0 0,000 mm 12,7 C 13,6 C 0,0 km/h (0 Bft) 95,65 %
27.09.2023 02:48 22,7 C 13,6 C 15,6 C 56 % 94 % 68 % 1022,5 hPa 0,0 l/m 0,0 km/h (0 Bft) N 0 0,000 mm 12,7 C 13,6 C 0,0 km/h (0 Bft) 95,65 %
27.09.2023 02:47 22,7 C 13,6 C 15,6 C 56 % 94 % 68 % 1022,5 hPa 0,0 l/m 0,0 km/h (0 Bft) N 0 0,000 mm 12,7 C 13,6 C 0,0 km/h (0 Bft) 95,65 %
27.09.2023 02:46 22,7 C 13,6 C 15,6 C 56 % 94 % 68 % 1022,6 hPa 0,0 l/m 0,0 km/h (0 Bft) N 0 0,000 mm 12,7 C 13,6 C 0,0 km/h (0 Bft) 100,00 %
27.09.2023 02:45 22,7 C 13,7 C 15,6 C 56 % 94 % 68 % 1022,6 hPa 0,0 l/m 0,0 km/h (0 Bft) N 0 0,000 mm 12,8 C 13,7 C 0,0 km/h (0 Bft) 91,30 %
27.09.2023 02:44 22,7 C 13,7 C 16,1 C 56 % 94 % 68 % 1022,6 hPa 0,0 l/m 0,0 km/h (0 Bft) N 0 0,000 mm 12,8 C 13,7 C 0,0 km/h (0 Bft) 95,65 %
27.09.2023 02:43 22,7 C 13,7 C 16,1 C 56 % 94 % 68 % 1022,6 hPa 0,0 l/m 0,0 km/h (0 Bft) N 0 0,000 mm 12,8 C 13,7 C 0,0 km/h (0 Bft) 100,00 %
27.09.2023 02:42 22,7 C 13,7 C 16,1 C 56 % 94 % 68 % 1022,6 hPa 0,0 l/m 0,0 km/h (0 Bft) N 0 0,000 mm 12,8 C 13,7 C 0,0 km/h (0 Bft) 95,65 %
27.09.2023 02:41 22,7 C 13,7 C 16,1 C 56 % 94 % 68 % 1022,7 hPa 0,0 l/m 0,0 km/h (0 Bft) N 0 0,000 mm 12,8 C 13,7 C 0,0 km/h (0 Bft) 91,30 %
27.09.2023 02:40 22,7 C 13,7 C 16,1 C 56 % 94 % 68 % 1022,6 hPa 0,0 l/m 0,0 km/h (0 Bft) N 0 0,000 mm 12,8 C 13,7 C 0,0 km/h (0 Bft) 86,96 %
27.09.2023 02:39 22,7 C 13,7 C 16,1 C 56 % 94 % 68 % 1022,6 hPa 0,0 l/m 0,0 km/h (0 Bft) N 0 0,000 mm 12,8 C 13,7 C 0,0 km/h (0 Bft) 100,00 %
27.09.2023 02:38 22,7 C 13,7 C 16,1 C 56 % 94 % 68 % 1022,6 hPa 0,0 l/m 0,0 km/h (0 Bft) N 0 0,000 mm 12,8 C 13,7 C 0,0 km/h (0 Bft) 95,65 %
27.09.2023 02:37 22,7 C 13,8 C 16,1 C 56 % 94 % 68 % 1022,6 hPa 0,0 l/m 0,0 km/h (0 Bft) N 0 0,000 mm 12,9 C 13,8 C 0,0 km/h (0 Bft) 100,00 %
27.09.2023 02:36 22,7 C 13,8 C 16,1 C 56 % 94 % 68 % 1022,6 hPa 0,0 l/m 0,0 km/h (0 Bft) N 0 0,000 mm 12,9 C 13,8 C 0,0 km/h (0 Bft) 100,00 %
27.09.2023 02:35 22,7 C 13,8 C 16,1 C 56 % 94 % 68 % 1022,6 hPa 0,0 l/m 0,0 km/h (0 Bft) N 0 0,000 mm 12,9 C 13,8 C 0,0 km/h (0 Bft) 100,00 %
27.09.2023 02:34 22,7 C 13,8 C 16,1 C 56 % 94 % 68 % 1022,6 hPa 0,0 l/m 0,0 km/h (0 Bft) N 0 0,000 mm 12,9 C 13,8 C 0,0 km/h (0 Bft) 91,30 %
27.09.2023 02:33 22,7 C 13,8 C 16,1 C 56 % 94 % 68 % 1022,6 hPa 0,0 l/m 0,0 km/h (0 Bft) N 0 0,000 mm 12,9 C 13,8 C 0,0 km/h (0 Bft) 95,65 %
27.09.2023 02:32 22,7 C 13,8 C 16,1 C 56 % 94 % 68 % 1022,6 hPa 0,0 l/m 0,0 km/h (0 Bft) N 0 0,000 mm 12,9 C 13,8 C 0,0 km/h (0 Bft) 100,00 %
27.09.2023 02:31 22,7 C 13,8 C 16,1 C 56 % 94 % 68 % 1022,6 hPa 0,0 l/m 0,0 km/h (0 Bft) N 0 0,000 mm 12,9 C 13,8 C 0,0 km/h (0 Bft) 100,00 %
27.09.2023 02:30 22,7 C 13,8 C 16,1 C 56 % 94 % 68 % 1022,6 hPa 0,0 l/m 0,0 km/h (0 Bft) N 0 0,000 mm 12,9 C 13,8 C 0,0 km/h (0 Bft) 100,00 %
27.09.2023 02:29 22,7 C 13,9 C 16,1 C 56 % 94 % 68 % 1022,6 hPa 0,0 l/m 0,0 km/h (0 Bft) N 0 0,000 mm 12,9 C 13,9 C 0,0 km/h (0 Bft) 100,00 %
27.09.2023 02:28 22,7 C 13,9 C 16,1 C 56 % 94 % 68 % 1022,7 hPa 0,0 l/m 0,0 km/h (0 Bft) N 0 0,000 mm 12,9 C 13,9 C 0,0 km/h (0 Bft) 100,00 %
27.09.2023 02:27 22,7 C 13,9 C 16,1 C 56 % 94 % 68 % 1022,7 hPa 0,0 l/m 0,0 km/h (0 Bft) N 0 0,000 mm 12,9 C 13,9 C 0,0 km/h (0 Bft) 95,65 %
27.09.2023 02:26 22,7 C 13,9 C 16,1 C 56 % 94 % 68 % 1022,6 hPa 0,0 l/m 0,0 km/h (0 Bft) N 0 0,000 mm 12,9 C 13,9 C 0,0 km/h (0 Bft) 100,00 %
27.09.2023 02:25 22,7 C 13,9 C 16,1 C 56 % 94 % 68 % 1022,7 hPa 0,0 l/m 0,0 km/h (0 Bft) N 0 0,000 mm 12,9 C 13,9 C 0,0 km/h (0 Bft) 100,00 %
27.09.2023 02:24 22,7 C 13,9 C 16,1 C 56 % 95 % 68 % 1022,7 hPa 0,0 l/m 0,0 km/h (0 Bft) SW 225 0,000 mm 13,1 C 13,9 C 1,6 km/h (1 Bft) 95,65 %
27.09.2023 02:23 22,7 C 13,9 C 16,1 C 56 % 95 % 68 % 1022,6 hPa 0,0 l/m 0,0 km/h (0 Bft) SW 225 0,000 mm 13,1 C 13,9 C 3,2 km/h (1 Bft) 100,00 %
27.09.2023 02:22 22,7 C 13,9 C 16,1 C 56 % 95 % 68 % 1022,7 hPa 0,0 l/m 0,0 km/h (0 Bft) SW 225 0,000 mm 13,1 C 13,9 C 1,6 km/h (1 Bft) 100,00 %
27.09.2023 02:21 22,7 C 13,9 C 16,1 C 56 % 95 % 68 % 1022,7 hPa 0,0 l/m 1,6 km/h (1 Bft) SW 225 0,000 mm 13,1 C 13,9 C 1,6 km/h (1 Bft) 100,00 %
27.09.2023 02:20 22,7 C 13,9 C 16,1 C 56 % 94 % 68 % 1022,7 hPa 0,0 l/m 1,6 km/h (1 Bft) SW 225 0,000 mm 12,9 C 13,9 C 3,2 km/h (1 Bft) 95,65 %
27.09.2023 02:19 22,7 C 13,9 C 16,1 C 56 % 94 % 68 % 1022,7 hPa 0,0 l/m 1,6 km/h (1 Bft) SW 225 0,000 mm 12,9 C 13,9 C 1,6 km/h (1 Bft) 100,00 %
27.09.2023 02:18 22,7 C 13,9 C 16,1 C 56 % 94 % 68 % 1022,7 hPa 0,0 l/m 0,0 km/h (0 Bft) SW 225 0,000 mm 12,9 C 13,9 C 1,6 km/h (1 Bft) 100,00 %
27.09.2023 02:17 22,7 C 13,9 C 16,1 C 56 % 94 % 68 % 1022,8 hPa 0,0 l/m 0,0 km/h (0 Bft) SW 225 0,000 mm 12,9 C 13,9 C 1,6 km/h (1 Bft) 100,00 %
27.09.2023 02:16 22,7 C 13,9 C 16,1 C 56 % 94 % 68 % 1022,7 hPa 0,0 l/m 1,6 km/h (1 Bft) SW 225 0,000 mm 12,9 C 13,9 C 3,2 km/h (1 Bft) 95,65 %
27.09.2023 02:15 22,7 C 14,0 C 16,1 C 56 % 94 % 68 % 1022,8 hPa 0,0 l/m 1,6 km/h (1 Bft) SW 225 0,000 mm 13,0 C 14,0 C 1,6 km/h (1 Bft) 100,00 %
27.09.2023 02:14 22,7 C 14,0 C 16,1 C 56 % 94 % 68 % 1022,8 hPa 0,0 l/m 0,0 km/h (0 Bft) SW 225 0,000 mm 13,0 C 14,0 C 1,6 km/h (1 Bft) 100,00 %
27.09.2023 02:13 22,7 C 14,0 C 16,1 C 56 % 94 % 68 % 1022,8 hPa 0,0 l/m 1,6 km/h (1 Bft) SW 225 0,000 mm 13,0 C 14,0 C 3,2 km/h (1 Bft) 95,65 %
27.09.2023 02:12 22,7 C 14,0 C 16,1 C 56 % 94 % 68 % 1022,8 hPa 0,0 l/m 1,6 km/h (1 Bft) SW 225 0,000 mm 13,0 C 14,0 C 3,2 km/h (1 Bft) 95,65 %
27.09.2023 02:11 22,7 C 14,1 C 16,1 C 56 % 94 % 68 % 1022,9 hPa 0,0 l/m 1,6 km/h (1 Bft) SW 225 0,000 mm 13,1 C 14,1 C 3,2 km/h (1 Bft) 100,00 %
27.09.2023 02:10 22,7 C 14,1 C 16,1 C 56 % 94 % 68 % 1022,8 hPa 0,0 l/m 3,2 km/h (1 Bft) SW 225 0,000 mm 13,1 C 14,1 C 3,2 km/h (1 Bft) 95,65 %
27.09.2023 02:09 22,7 C 14,1 C 16,1 C 56 % 94 % 68 % 1022,8 hPa 0,0 l/m 3,2 km/h (1 Bft) SW 225 0,000 mm 13,1 C 14,1 C 4,8 km/h (1 Bft) 100,00 %
27.09.2023 02:08 22,7 C 14,1 C 16,1 C 56 % 94 % 68 % 1022,8 hPa 0,0 l/m 1,6 km/h (1 Bft) SW 225 0,000 mm 13,1 C 14,1 C 3,2 km/h (1 Bft) 100,00 %
27.09.2023 02:07 22,7 C 14,1 C 16,1 C 56 % 94 % 68 % 1022,8 hPa 0,0 l/m 1,6 km/h (1 Bft) SW 225 0,000 mm 13,1 C 14,1 C 1,6 km/h (1 Bft) 95,65 %
27.09.2023 02:06 22,7 C 14,1 C 16,1 C 56 % 94 % 68 % 1022,8 hPa 0,0 l/m 1,6 km/h (1 Bft) SW 225 0,000 mm 13,1 C 14,1 C 4,8 km/h (1 Bft) 95,65 %
27.09.2023 02:05 22,7 C 14,1 C 16,1 C 56 % 94 % 68 % 1022,7 hPa 0,0 l/m 3,2 km/h (1 Bft) SW 225 0,000 mm 13,1 C 14,1 C 6,4 km/h (2 Bft) 95,65 %
27.09.2023 02:04 22,7 C 14,1 C 16,1 C 56 % 94 % 68 % 1022,7 hPa 0,0 l/m 1,6 km/h (1 Bft) SW 225 0,000 mm 13,1 C 14,1 C 4,8 km/h (1 Bft) 100,00 %
27.09.2023 02:03 22,7 C 14,2 C 16,1 C 56 % 94 % 68 % 1022,8 hPa 0,0 l/m 1,6 km/h (1 Bft) SW 225 0,000 mm 13,2 C 14,2 C 3,2 km/h (1 Bft) 100,00 %
27.09.2023 02:02 22,7 C 14,2 C 16,1 C 56 % 94 % 68 % 1022,8 hPa 0,0 l/m 1,6 km/h (1 Bft) SW 225 0,000 mm 13,2 C 14,2 C 3,2 km/h (1 Bft) 95,65 %
27.09.2023 02:01 22,7 C 14,2 C 16,1 C 56 % 94 % 68 % 1022,7 hPa 0,0 l/m 1,6 km/h (1 Bft) SW 225 0,000 mm 13,2 C 14,2 C 3,2 km/h (1 Bft) 100,00 %
27.09.2023 02:00 22,7 C 14,2 C 16,1 C 56 % 94 % 68 % 1022,8 hPa 0,0 l/m 1,6 km/h (1 Bft) SW 225 0,000 mm 13,2 C 14,2 C 3,2 km/h (1 Bft) 100,00 %
27.09.2023 01:59 22,7 C 14,2 C 16,1 C 56 % 94 % 68 % 1022,7 hPa 0,0 l/m 3,2 km/h (1 Bft) SW 225 0,000 mm 13,2 C 14,2 C 4,8 km/h (1 Bft) 95,65 %
27.09.2023 01:58 22,7 C 14,2 C 16,1 C 56 % 94 % 68 % 1022,8 hPa 0,0 l/m 1,6 km/h (1 Bft) SW 225 0,000 mm 13,2 C 14,2 C 4,8 km/h (1 Bft) 95,65 %
27.09.2023 01:57 22,7 C 14,2 C 16,1 C 56 % 94 % 68 % 1022,8 hPa 0,0 l/m 3,2 km/h (1 Bft) SW 225 0,000 mm 13,2 C 14,2 C 4,8 km/h (1 Bft) 100,00 %
27.09.2023 01:56 22,7 C 14,2 C 16,1 C 56 % 94 % 68 % 1022,8 hPa 0,0 l/m 1,6 km/h (1 Bft) SW 225 0,000 mm 13,2 C 14,2 C 4,8 km/h (1 Bft) 95,65 %
27.09.2023 01:55 22,7 C 14,2 C 16,1 C 56 % 94 % 68 % 1022,8 hPa 0,0 l/m 1,6 km/h (1 Bft) SW 225 0,000 mm 13,2 C 14,2 C 3,2 km/h (1 Bft) 100,00 %
27.09.2023 01:54 22,7 C 14,2 C 16,1 C 56 % 94 % 68 % 1022,8 hPa 0,0 l/m 3,2 km/h (1 Bft) SW 225 0,000 mm 13,2 C 14,2 C 3,2 km/h (1 Bft) 95,65 %
27.09.2023 01:53 22,7 C 14,2 C 16,1 C 56 % 94 % 68 % 1022,7 hPa 0,0 l/m 1,6 km/h (1 Bft) SW 225 0,000 mm 13,2 C 14,2 C 3,2 km/h (1 Bft) 100,00 %
27.09.2023 01:52 22,7 C 14,2 C 16,1 C 56 % 94 % 68 % 1022,6 hPa 0,0 l/m 1,6 km/h (1 Bft) SW 225 0,000 mm 13,2 C 14,2 C 3,2 km/h (1 Bft) 95,65 %
27.09.2023 01:51 22,8 C 14,2 C 16,1 C 56 % 94 % 68 % 1022,8 hPa 0,0 l/m 1,6 km/h (1 Bft) SW 225 0,000 mm 13,2 C 14,2 C 3,2 km/h (1 Bft) 100,00 %
27.09.2023 01:50 22,8 C 14,2 C 16,1 C 56 % 94 % 68 % 1022,7 hPa 0,0 l/m 1,6 km/h (1 Bft) SW 225 0,000 mm 13,2 C 14,2 C 3,2 km/h (1 Bft) 100,00 %
27.09.2023 01:49 22,7 C 14,3 C 16,7 C 56 % 94 % 68 % 1022,6 hPa 0,0 l/m 1,6 km/h (1 Bft) SW 225 0,000 mm 13,3 C 14,3 C 4,8 km/h (1 Bft) 100,00 %
27.09.2023 01:48 22,8 C 14,2 C 16,1 C 56 % 94 % 68 % 1022,7 hPa 0,0 l/m 1,6 km/h (1 Bft) SW 225 0,000 mm 13,2 C 14,2 C 3,2 km/h (1 Bft) 100,00 %
27.09.2023 01:47 22,7 C 14,3 C 16,7 C 56 % 94 % 68 % 1022,8 hPa 0,0 l/m 1,6 km/h (1 Bft) SW 225 0,000 mm 13,3 C 14,3 C 3,2 km/h (1 Bft) 100,00 %
27.09.2023 01:46 22,7 C 14,3 C 16,7 C 56 % 94 % 68 % 1022,6 hPa 0,0 l/m 1,6 km/h (1 Bft) SW 225 0,000 mm 13,3 C 14,3 C 4,8 km/h (1 Bft) 100,00 %
27.09.2023 01:45 22,8 C 14,3 C 16,7 C 56 % 94 % 68 % 1022,6 hPa 0,0 l/m 0,0 km/h (0 Bft) SW 225 0,000 mm 13,3 C 14,3 C 1,6 km/h (1 Bft) 95,65 %
27.09.2023 01:44 22,8 C 14,3 C 16,7 C 56 % 94 % 68 % 1022,7 hPa 0,0 l/m 0,0 km/h (0 Bft) SW 225 0,000 mm 13,3 C 14,3 C 1,6 km/h (1 Bft) 100,00 %
27.09.2023 01:43 22,7 C 14,3 C 16,7 C 56 % 94 % 68 % 1022,8 hPa 0,0 l/m 1,6 km/h (1 Bft) SW 225 0,000 mm 13,3 C 14,3 C 1,6 km/h (1 Bft) 100,00 %
27.09.2023 01:42 22,8 C 14,3 C 16,7 C 56 % 94 % 68 % 1022,6 hPa 0,0 l/m 1,6 km/h (1 Bft) SW 225 0,000 mm 13,3 C 14,3 C 3,2 km/h (1 Bft) 100,00 %
27.09.2023 01:41 22,8 C 14,3 C 16,7 C 56 % 94 % 68 % 1022,6 hPa 0,0 l/m 1,6 km/h (1 Bft) SW 225 0,000 mm 13,3 C 14,3 C 3,2 km/h (1 Bft) 100,00 %
27.09.2023 01:40 22,8 C 14,3 C 16,7 C 56 % 94 % 68 % 1022,7 hPa 0,0 l/m 1,6 km/h (1 Bft) SW 225 0,000 mm 13,3 C 14,3 C 3,2 km/h (1 Bft) 100,00 %
27.09.2023 01:39 22,8 C 14,3 C 16,7 C 56 % 94 % 68 % 1022,7 hPa 0,0 l/m 3,2 km/h (1 Bft) SW 225 0,000 mm 13,3 C 14,3 C 4,8 km/h (1 Bft) 100,00 %
27.09.2023 01:38 22,8 C 14,3 C 16,7 C 56 % 94 % 68 % 1022,7 hPa 0,0 l/m 1,6 km/h (1 Bft) SW 225 0,000 mm 13,3 C 14,3 C 3,2 km/h (1 Bft) 91,30 %
27.09.2023 01:37 22,8 C 14,4 C 16,7 C 56 % 94 % 68 % 1022,7 hPa 0,0 l/m 1,6 km/h (1 Bft) SW 225 0,000 mm 13,4 C 14,4 C 3,2 km/h (1 Bft) 95,65 %
27.09.2023 01:36 22,8 C 14,4 C 16,7 C 56 % 94 % 68 % 1022,8 hPa 0,0 l/m 1,6 km/h (1 Bft) SW 225 0,000 mm 13,4 C 14,4 C 3,2 km/h (1 Bft) 100,00 %
27.09.2023 01:35 22,8 C 14,4 C 16,7 C 56 % 94 % 68 % 1022,7 hPa 0,0 l/m 1,6 km/h (1 Bft) SW 225 0,000 mm 13,4 C 14,4 C 1,6 km/h (1 Bft) 95,65 %
27.09.2023 01:34 22,8 C 14,4 C 16,7 C 56 % 94 % 68 % 1022,7 hPa 0,0 l/m 3,2 km/h (1 Bft) SW 225 0,000 mm 13,4 C 14,4 C 4,8 km/h (1 Bft) 95,65 %
27.09.2023 01:33 22,8 C 14,4 C 16,7 C 56 % 94 % 68 % 1022,8 hPa 0,0 l/m 3,2 km/h (1 Bft) SW 225 0,000 mm 13,4 C 14,4 C 4,8 km/h (1 Bft) 91,30 %
27.09.2023 01:32 22,8 C 14,4 C 16,7 C 56 % 94 % 68 % 1022,6 hPa 0,0 l/m 1,6 km/h (1 Bft) SW 225 0,000 mm 13,4 C 14,4 C 3,2 km/h (1 Bft) 100,00 %
27.09.2023 01:31 22,8 C 14,4 C 16,7 C 56 % 94 % 68 % 1022,8 hPa 0,0 l/m 1,6 km/h (1 Bft) SW 225 0,000 mm 13,4 C 14,4 C 3,2 km/h (1 Bft) 95,65 %
27.09.2023 01:30 22,8 C 14,4 C 16,7 C 56 % 94 % 68 % 1022,7 hPa 0,0 l/m 1,6 km/h (1 Bft) SW 225 0,000 mm 13,4 C 14,4 C 3,2 km/h (1 Bft) 95,65 %
27.09.2023 01:29 22,8 C 14,4 C 16,7 C 56 % 94 % 68 % 1022,7 hPa 0,0 l/m 0,0 km/h (0 Bft) N 0 0,000 mm 13,4 C 14,4 C 0,0 km/h (0 Bft) 100,00 %
27.09.2023 01:28 22,8 C 14,4 C 16,7 C 56 % 94 % 68 % 1022,7 hPa 0,0 l/m 0,0 km/h (0 Bft) SW 225 0,000 mm 13,4 C 14,4 C 3,2 km/h (1 Bft) 91,30 %
27.09.2023 01:27 22,8 C 14,4 C 16,7 C 56 % 94 % 68 % 1022,7 hPa 0,0 l/m 1,6 km/h (1 Bft) SW 225 0,000 mm 13,4 C 14,4 C 3,2 km/h (1 Bft) 95,65 %
27.09.2023 01:26 22,8 C 14,4 C 16,7 C 56 % 94 % 68 % 1022,7 hPa 0,0 l/m 1,6 km/h (1 Bft) SW 225 0,000 mm 13,4 C 14,4 C 3,2 km/h (1 Bft) 95,65 %
27.09.2023 01:25 22,8 C 14,5 C 16,7 C 56 % 94 % 68 % 1022,6 hPa 0,0 l/m 3,2 km/h (1 Bft) SW 225 0,000 mm 13,5 C 14,5 C 4,8 km/h (1 Bft) 95,65 %
27.09.2023 01:24 22,8 C 14,5 C 16,7 C 56 % 94 % 68 % 1022,6 hPa 0,0 l/m 3,2 km/h (1 Bft) SW 225 0,000 mm 13,5 C 14,5 C 3,2 km/h (1 Bft) 95,65 %
27.09.2023 01:23 22,8 C 14,5 C 16,7 C 56 % 94 % 68 % 1022,7 hPa 0,0 l/m 3,2 km/h (1 Bft) SW 225 0,000 mm 13,5 C 14,5 C 4,8 km/h (1 Bft) 95,65 %
27.09.2023 01:22 22,8 C 14,6 C 16,7 C 56 % 94 % 68 % 1022,7 hPa 0,0 l/m 1,6 km/h (1 Bft) SW 225 0,000 mm 13,6 C 14,6 C 4,8 km/h (1 Bft) 100,00 %
27.09.2023 01:21 22,8 C 14,5 C 16,7 C 56 % 94 % 68 % 1022,6 hPa 0,0 l/m 1,6 km/h (1 Bft) SW 225 0,000 mm 13,5 C 14,5 C 4,8 km/h (1 Bft) 95,65 %
27.09.2023 01:20 22,8 C 14,6 C 16,7 C 56 % 94 % 68 % 1022,7 hPa 0,0 l/m 3,2 km/h (1 Bft) SW 225 0,000 mm 13,6 C 14,6 C 4,8 km/h (1 Bft) 100,00 %
27.09.2023 01:19 22,8 C 14,6 C 16,7 C 56 % 94 % 68 % 1022,6 hPa 0,0 l/m 3,2 km/h (1 Bft) SW 225 0,000 mm 13,6 C 14,6 C 3,2 km/h (1 Bft) 95,65 %
27.09.2023 01:18 22,8 C 14,6 C 16,7 C 56 % 94 % 68 % 1022,7 hPa 0,0 l/m 3,2 km/h (1 Bft) SW 225 0,000 mm 13,6 C 14,6 C 4,8 km/h (1 Bft) 86,96 %
27.09.2023 01:17 22,8 C 14,6 C 16,7 C 56 % 94 % 68 % 1022,7 hPa 0,0 l/m 1,6 km/h (1 Bft) SW 225 0,000 mm 13,6 C 14,6 C 3,2 km/h (1 Bft) 95,65 %
27.09.2023 01:16 22,8 C 14,6 C 16,7 C 56 % 94 % 68 % 1022,6 hPa 0,0 l/m 3,2 km/h (1 Bft) SW 225 0,000 mm 13,6 C 14,6 C 4,8 km/h (1 Bft) 91,30 %
27.09.2023 01:15 22,8 C 14,6 C 16,7 C 56 % 94 % 68 % 1022,6 hPa 0,0 l/m 1,6 km/h (1 Bft) SW 225 0,000 mm 13,6 C 14,6 C 4,8 km/h (1 Bft) 100,00 %
27.09.2023 01:14 22,8 C 14,6 C 16,7 C 56 % 94 % 68 % 1022,6 hPa 0,0 l/m 3,2 km/h (1 Bft) SW 225 0,000 mm 13,6 C 14,6 C 4,8 km/h (1 Bft) 91,30 %
27.09.2023 01:13 22,8 C 14,6 C 16,7 C 56 % 94 % 68 % 1022,8 hPa 0,0 l/m 3,2 km/h (1 Bft) SW 225 0,000 mm 13,6 C 14,6 C 4,8 km/h (1 Bft) 100,00 %
27.09.2023 01:12 22,8 C 14,7 C 16,7 C 56 % 94 % 68 % 1022,7 hPa 0,0 l/m 3,2 km/h (1 Bft) SW 225 0,000 mm 13,7 C 14,7 C 6,4 km/h (2 Bft) 95,65 %
27.09.2023 01:11 22,8 C 14,7 C 16,7 C 56 % 94 % 68 % 1022,6 hPa 0,0 l/m 1,6 km/h (1 Bft) SW 225 0,000 mm 13,7 C 14,7 C 3,2 km/h (1 Bft) 100,00 %
27.09.2023 01:10 22,8 C 14,7 C 16,7 C 56 % 94 % 68 % 1022,7 hPa 0,0 l/m 3,2 km/h (1 Bft) SW 225 0,000 mm 13,7 C 14,7 C 4,8 km/h (1 Bft) 91,30 %
27.09.2023 01:09 22,8 C 14,7 C 16,7 C 56 % 94 % 68 % 1022,7 hPa 0,0 l/m 3,2 km/h (1 Bft) SW 225 0,000 mm 13,7 C 14,7 C 4,8 km/h (1 Bft) 95,65 %
27.09.2023 01:08 22,8 C 14,7 C 16,7 C 56 % 94 % 68 % 1022,6 hPa 0,0 l/m 1,6 km/h (1 Bft) SW 225 0,000 mm 13,7 C 14,7 C 3,2 km/h (1 Bft) 100,00 %
27.09.2023 01:07 22,8 C 14,7 C 16,7 C 56 % 94 % 68 % 1022,7 hPa 0,0 l/m 3,2 km/h (1 Bft) SW 225 0,000 mm 13,7 C 14,7 C 4,8 km/h (1 Bft) 95,65 %
27.09.2023 01:06 22,8 C 14,7 C 16,7 C 56 % 94 % 68 % 1022,6 hPa 0,0 l/m 1,6 km/h (1 Bft) SW 225 0,000 mm 13,7 C 14,7 C 4,8 km/h (1 Bft) 100,00 %
27.09.2023 01:05 22,8 C 14,8 C 16,7 C 56 % 94 % 67 % 1022,6 hPa 0,0 l/m 3,2 km/h (1 Bft) SW 225 0,000 mm 13,8 C 14,8 C 3,2 km/h (1 Bft) 95,65 %
27.09.2023 01:04 22,8 C 14,8 C 16,7 C 56 % 94 % 67 % 1022,7 hPa 0,0 l/m 3,2 km/h (1 Bft) SW 225 0,000 mm 13,8 C 14,8 C 4,8 km/h (1 Bft) 100,00 %
27.09.2023 01:03 22,8 C 14,8 C 16,7 C 56 % 94 % 67 % 1022,6 hPa 0,0 l/m 3,2 km/h (1 Bft) SW 225 0,000 mm 13,8 C 14,8 C 4,8 km/h (1 Bft) 82,61 %
27.09.2023 01:02 22,8 C 14,8 C 16,7 C 56 % 94 % 67 % 1022,6 hPa 0,0 l/m 3,2 km/h (1 Bft) SW 225 0,000 mm 13,8 C 14,8 C 4,8 km/h (1 Bft) 95,65 %
27.09.2023 01:01 22,8 C 14,8 C 16,7 C 56 % 94 % 67 % 1022,6 hPa 0,0 l/m 3,2 km/h (1 Bft) SW 225 0,000 mm 13,8 C 14,8 C 6,4 km/h (2 Bft) 95,65 %
27.09.2023 01:00 22,8 C 14,8 C 16,7 C 56 % 94 % 67 % 1022,6 hPa 0,0 l/m 3,2 km/h (1 Bft) SW 225 0,000 mm 13,8 C 14,8 C 6,4 km/h (2 Bft) 100,00 %
27.09.2023 00:59 22,8 C 14,8 C 16,7 C 56 % 94 % 67 % 1022,6 hPa 0,0 l/m 3,2 km/h (1 Bft) SW 225 0,000 mm 13,8 C 14,8 C 6,4 km/h (2 Bft) 95,65 %
27.09.2023 00:58 22,8 C 14,8 C 16,7 C 56 % 94 % 67 % 1022,6 hPa 0,0 l/m 3,2 km/h (1 Bft) SW 225 0,000 mm 13,8 C 14,8 C 4,8 km/h (1 Bft) 100,00 %
27.09.2023 00:57 22,8 C 14,8 C 17,2 C 56 % 94 % 67 % 1022,6 hPa 0,0 l/m 3,2 km/h (1 Bft) SW 225 0,000 mm 13,8 C 14,8 C 4,8 km/h (1 Bft) 100,00 %
27.09.2023 00:56 22,8 C 14,8 C 17,2 C 56 % 94 % 67 % 1022,7 hPa 0,0 l/m 4,8 km/h (1 Bft) SW 225 0,000 mm 13,8 C 14,8 C 8,0 km/h (2 Bft) 100,00 %
27.09.2023 00:55 22,8 C 14,9 C 17,2 C 56 % 94 % 67 % 1022,6 hPa 0,0 l/m 4,8 km/h (1 Bft) SW 225 0,000 mm 13,9 C 14,9 C 8,0 km/h (2 Bft) 95,65 %
27.09.2023 00:54 22,8 C 14,9 C 17,2 C 56 % 94 % 67 % 1022,6 hPa 0,0 l/m 4,8 km/h (1 Bft) S-SW 202 0,000 mm 13,9 C 14,9 C 8,0 km/h (2 Bft) 100,00 %
27.09.2023 00:53 22,8 C 14,9 C 17,2 C 56 % 94 % 67 % 1022,7 hPa 0,0 l/m 3,2 km/h (1 Bft) S-SW 202 0,000 mm 13,9 C 14,9 C 6,4 km/h (2 Bft) 100,00 %
27.09.2023 00:52 22,8 C 14,9 C 17,2 C 56 % 94 % 67 % 1022,7 hPa 0,0 l/m 3,2 km/h (1 Bft) S-SW 202 0,000 mm 13,9 C 14,9 C 4,8 km/h (1 Bft) 95,65 %
27.09.2023 00:51 22,8 C 14,9 C 17,2 C 56 % 94 % 67 % 1022,6 hPa 0,0 l/m 3,2 km/h (1 Bft) S-SW 202 0,000 mm 13,9 C 14,9 C 6,4 km/h (2 Bft) 95,65 %
27.09.2023 00:50 22,8 C 14,9 C 17,2 C 56 % 94 % 67 % 1022,6 hPa 0,0 l/m 3,2 km/h (1 Bft) S-SW 202 0,000 mm 13,9 C 14,9 C 4,8 km/h (1 Bft) 100,00 %
27.09.2023 00:49 22,8 C 14,9 C 17,2 C 56 % 94 % 67 % 1022,6 hPa 0,0 l/m 3,2 km/h (1 Bft) S-SW 202 0,000 mm 13,9 C 14,9 C 6,4 km/h (2 Bft) 100,00 %
27.09.2023 00:48 22,8 C 14,9 C 17,2 C 56 % 93 % 67 % 1022,5 hPa 0,0 l/m 1,6 km/h (1 Bft) S-SW 202 0,000 mm 13,8 C 14,9 C 4,8 km/h (1 Bft) 95,65 %
27.09.2023 00:47 22,8 C 14,9 C 17,2 C 56 % 94 % 67 % 1022,6 hPa 0,0 l/m 3,2 km/h (1 Bft) S-SW 202 0,000 mm 13,9 C 14,9 C 6,4 km/h (2 Bft) 95,65 %
27.09.2023 00:46 22,9 C 15,0 C 17,2 C 56 % 93 % 67 % 1022,6 hPa 0,0 l/m 3,2 km/h (1 Bft) S-SW 202 0,000 mm 13,9 C 15,0 C 6,4 km/h (2 Bft) 100,00 %
27.09.2023 00:45 22,9 C 14,9 C 17,2 C 56 % 93 % 67 % 1022,6 hPa 0,0 l/m 4,8 km/h (1 Bft) S-SW 202 0,000 mm 13,8 C 14,9 C 6,4 km/h (2 Bft) 100,00 %
27.09.2023 00:44 22,8 C 15,0 C 17,2 C 56 % 93 % 67 % 1022,6 hPa 0,0 l/m 3,2 km/h (1 Bft) S-SW 202 0,000 mm 13,9 C 15,0 C 8,0 km/h (2 Bft) 100,00 %
27.09.2023 00:43 22,8 C 15,0 C 17,2 C 56 % 93 % 67 % 1022,6 hPa 0,0 l/m 0,0 km/h (0 Bft) N 0 0,000 mm 13,9 C 15,0 C 0,0 km/h (0 Bft) 100,00 %
27.09.2023 00:42 22,9 C 15,0 C 17,2 C 56 % 93 % 67 % 1022,6 hPa 0,0 l/m 1,6 km/h (1 Bft) S-SW 202 0,000 mm 13,9 C 15,0 C 4,8 km/h (1 Bft) 100,00 %
27.09.2023 00:41 22,8 C 15,0 C 17,2 C 56 % 93 % 67 % 1022,6 hPa 0,0 l/m 1,6 km/h (1 Bft) S-SW 202 0,000 mm 13,9 C 15,0 C 3,2 km/h (1 Bft) 95,65 %
27.09.2023 00:40 22,9 C 15,0 C 17,2 C 56 % 93 % 67 % 1022,6 hPa 0,0 l/m 3,2 km/h (1 Bft) S-SW 202 0,000 mm 13,9 C 15,0 C 6,4 km/h (2 Bft) 100,00 %
27.09.2023 00:39 22,9 C 15,1 C 17,2 C 56 % 93 % 67 % 1022,6 hPa 0,0 l/m 1,6 km/h (1 Bft) S-SW 202 0,000 mm 14,0 C 15,1 C 3,2 km/h (1 Bft) 100,00 %
27.09.2023 00:38 22,8 C 15,0 C 17,2 C 56 % 93 % 67 % 1022,6 hPa 0,0 l/m 3,2 km/h (1 Bft) S-SW 202 0,000 mm 13,9 C 15,0 C 6,4 km/h (2 Bft) 95,65 %
27.09.2023 00:37 22,9 C 15,1 C 17,2 C 56 % 93 % 67 % 1022,5 hPa 0,0 l/m 4,8 km/h (1 Bft) S-SW 202 0,000 mm 14,0 C 15,1 C 8,0 km/h (2 Bft) 100,00 %
27.09.2023 00:36 22,8 C 15,1 C 17,2 C 56 % 93 % 67 % 1022,5 hPa 0,0 l/m 3,2 km/h (1 Bft) SW 225 0,000 mm 14,0 C 15,1 C 6,4 km/h (2 Bft) 100,00 %
27.09.2023 00:35 22,8 C 15,1 C 17,2 C 56 % 93 % 67 % 1022,6 hPa 0,0 l/m 3,2 km/h (1 Bft) SW 225 0,000 mm 14,0 C 15,1 C 4,8 km/h (1 Bft) 100,00 %
27.09.2023 00:34 22,9 C 15,1 C 17,2 C 56 % 93 % 67 % 1022,6 hPa 0,0 l/m 3,2 km/h (1 Bft) SW 225 0,000 mm 14,0 C 15,1 C 4,8 km/h (1 Bft) 95,65 %
27.09.2023 00:33 22,9 C 15,1 C 17,2 C 56 % 93 % 67 % 1022,5 hPa 0,0 l/m 3,2 km/h (1 Bft) S-SW 202 0,000 mm 14,0 C 15,1 C 6,4 km/h (2 Bft) 100,00 %
27.09.2023 00:32 22,8 C 15,1 C 17,2 C 56 % 93 % 67 % 1022,6 hPa 0,0 l/m 3,2 km/h (1 Bft) S-SW 202 0,000 mm 14,0 C 15,1 C 4,8 km/h (1 Bft) 100,00 %
27.09.2023 00:31 22,9 C 15,1 C 17,2 C 56 % 93 % 67 % 1022,6 hPa 0,0 l/m 4,8 km/h (1 Bft) S-SW 202 0,000 mm 14,0 C 15,1 C 6,4 km/h (2 Bft) 100,00 %
27.09.2023 00:30 22,8 C 15,1 C 17,2 C 56 % 93 % 67 % 1022,6 hPa 0,0 l/m 3,2 km/h (1 Bft) SW 225 0,000 mm 14,0 C 15,1 C 4,8 km/h (1 Bft) 100,00 %
27.09.2023 00:29 22,9 C 15,1 C 17,2 C 56 % 93 % 67 % 1022,5 hPa 0,0 l/m 3,2 km/h (1 Bft) SW 225 0,000 mm 14,0 C 15,1 C 4,8 km/h (1 Bft) 100,00 %
27.09.2023 00:28 22,9 C 15,1 C 17,2 C 56 % 93 % 67 % 1022,6 hPa 0,0 l/m 3,2 km/h (1 Bft) SW 225 0,000 mm 14,0 C 15,1 C 4,8 km/h (1 Bft) 100,00 %
27.09.2023 00:27 22,9 C 15,2 C 17,2 C 56 % 93 % 67 % 1022,6 hPa 0,0 l/m 4,8 km/h (1 Bft) SW 225 0,000 mm 14,1 C 15,2 C 6,4 km/h (2 Bft) 95,65 %
27.09.2023 00:26 22,9 C 15,2 C 17,2 C 56 % 93 % 67 % 1022,6 hPa 0,0 l/m 4,8 km/h (1 Bft) S-SW 202 0,000 mm 14,1 C 15,2 C 6,4 km/h (2 Bft) 100,00 %
27.09.2023 00:25 22,9 C 15,1 C 17,2 C 56 % 93 % 67 % 1022,5 hPa 0,0 l/m 4,8 km/h (1 Bft) S-SW 202 0,000 mm 14,0 C 15,1 C 8,0 km/h (2 Bft) 100,00 %
27.09.2023 00:24 22,9 C 15,2 C 17,2 C 56 % 93 % 67 % 1022,5 hPa 0,0 l/m 6,4 km/h (2 Bft) S-SW 202 0,000 mm 14,1 C 15,2 C 8,0 km/h (2 Bft) 95,65 %
27.09.2023 00:23 22,9 C 15,1 C 17,2 C 56 % 93 % 67 % 1022,5 hPa 0,0 l/m 4,8 km/h (1 Bft) S-SW 202 0,000 mm 14,0 C 15,1 C 6,4 km/h (2 Bft) 95,65 %
27.09.2023 00:22 22,9 C 15,2 C 17,2 C 56 % 93 % 67 % 1022,5 hPa 0,0 l/m 4,8 km/h (1 Bft) S-SW 202 0,000 mm 14,1 C 15,2 C 6,4 km/h (2 Bft) 100,00 %
27.09.2023 00:21 22,9 C 15,2 C 17,2 C 56 % 93 % 67 % 1022,6 hPa 0,0 l/m 3,2 km/h (1 Bft) S-SW 202 0,000 mm 14,1 C 15,2 C 4,8 km/h (1 Bft) 100,00 %
27.09.2023 00:20 22,9 C 15,2 C 17,2 C 56 % 93 % 66 % 1022,5 hPa 0,0 l/m 3,2 km/h (1 Bft) S-SW 202 0,000 mm 14,1 C 15,2 C 4,8 km/h (1 Bft) 95,65 %
27.09.2023 00:19 22,9 C 15,2 C 17,2 C 56 % 93 % 67 % 1022,5 hPa 0,0 l/m 3,2 km/h (1 Bft) S-SW 202 0,000 mm 14,1 C 15,2 C 4,8 km/h (1 Bft) 100,00 %
27.09.2023 00:18 22,9 C 15,2 C 17,2 C 56 % 93 % 66 % 1022,5 hPa 0,0 l/m 4,8 km/h (1 Bft) S-SW 202 0,000 mm 14,1 C 15,2 C 6,4 km/h (2 Bft) 100,00 %
27.09.2023 00:17 22,9 C 15,2 C 17,2 C 56 % 93 % 66 % 1022,5 hPa 0,0 l/m 3,2 km/h (1 Bft) S-SW 202 0,000 mm 14,1 C 15,2 C 4,8 km/h (1 Bft) 100,00 %
27.09.2023 00:16 22,9 C 15,2 C 17,2 C 56 % 93 % 66 % 1022,5 hPa 0,0 l/m 4,8 km/h (1 Bft) S-SW 202 0,000 mm 14,1 C 15,2 C 4,8 km/h (1 Bft) 100,00 %
27.09.2023 00:15 22,9 C 15,2 C 17,2 C 56 % 93 % 66 % 1022,6 hPa 0,0 l/m 3,2 km/h (1 Bft) S-SW 202 0,000 mm 14,1 C 15,2 C 4,8 km/h (1 Bft) 100,00 %
27.09.2023 00:14 22,9 C 15,3 C 17,2 C 56 % 93 % 66 % 1022,6 hPa 0,0 l/m 4,8 km/h (1 Bft) S-SW 202 0,000 mm 14,2 C 15,3 C 6,4 km/h (2 Bft) 95,65 %
27.09.2023 00:13 22,9 C 15,3 C 17,8 C 56 % 93 % 66 % 1022,6 hPa 0,0 l/m 4,8 km/h (1 Bft) S-SW 202 0,000 mm 14,2 C 15,3 C 6,4 km/h (2 Bft) 95,65 %
27.09.2023 00:12 22,9 C 15,3 C 17,8 C 56 % 93 % 66 % 1022,5 hPa 0,0 l/m 4,8 km/h (1 Bft) S-SW 202 0,000 mm 14,2 C 15,3 C 6,4 km/h (2 Bft) 100,00 %
27.09.2023 00:11 22,9 C 15,3 C 17,8 C 56 % 93 % 66 % 1022,6 hPa 0,0 l/m 4,8 km/h (1 Bft) S-SW 202 0,000 mm 14,2 C 15,3 C 6,4 km/h (2 Bft) 100,00 %
27.09.2023 00:10 22,9 C 15,3 C 17,8 C 56 % 93 % 66 % 1022,6 hPa 0,0 l/m 3,2 km/h (1 Bft) S-SW 202 0,000 mm 14,2 C 15,3 C 4,8 km/h (1 Bft) 100,00 %
27.09.2023 00:09 22,9 C 15,3 C 17,8 C 56 % 93 % 66 % 1022,5 hPa 0,0 l/m 3,2 km/h (1 Bft) S-SW 202 0,000 mm 14,2 C 15,3 C 4,8 km/h (1 Bft) 100,00 %
27.09.2023 00:08 22,9 C 15,3 C 17,8 C 56 % 93 % 66 % 1022,5 hPa 0,0 l/m 3,2 km/h (1 Bft) S-SW 202 0,000 mm 14,2 C 15,3 C 4,8 km/h (1 Bft) 100,00 %
27.09.2023 00:07 22,9 C 15,3 C 17,8 C 56 % 93 % 66 % 1022,5 hPa 0,0 l/m 1,6 km/h (1 Bft) S-SW 202 0,000 mm 14,2 C 15,3 C 3,2 km/h (1 Bft) 95,65 %
27.09.2023 00:06 22,9 C 15,3 C 17,8 C 56 % 93 % 66 % 1022,6 hPa 0,0 l/m 1,6 km/h (1 Bft) S-SW 202 0,000 mm 14,2 C 15,3 C 3,2 km/h (1 Bft) 95,65 %
27.09.2023 00:05 22,9 C 15,3 C 17,8 C 56 % 93 % 66 % 1022,6 hPa 0,0 l/m 3,2 km/h (1 Bft) S-SW 202 0,000 mm 14,2 C 15,3 C 4,8 km/h (1 Bft) 95,65 %
27.09.2023 00:04 22,9 C 15,3 C 17,8 C 56 % 93 % 66 % 1022,5 hPa 0,0 l/m 1,6 km/h (1 Bft) S-SW 202 0,000 mm 14,2 C 15,3 C 3,2 km/h (1 Bft) 100,00 %
27.09.2023 00:03 22,9 C 15,3 C 17,8 C 56 % 93 % 66 % 1022,5 hPa 0,0 l/m 3,2 km/h (1 Bft) S-SW 202 0,000 mm 14,2 C 15,3 C 4,8 km/h (1 Bft) 100,00 %
27.09.2023 00:02 22,9 C 15,4 C 17,8 C 56 % 93 % 66 % 1022,5 hPa 0,0 l/m 3,2 km/h (1 Bft) S-SW 202 0,000 mm 14,3 C 15,4 C 6,4 km/h (2 Bft) 100,00 %
27.09.2023 00:01 22,9 C 15,4 C 17,8 C 56 % 93 % 66 % 1022,5 hPa 0,0 l/m 4,8 km/h (1 Bft) S-SW 202 0,000 mm 14,3 C 15,4 C 4,8 km/h (1 Bft) 91,30 %
27.09.2023 00:00 22,9 C 15,4 C 17,8 C 56 % 93 % 66 % 1022,4 hPa 0,0 l/m 3,2 km/h (1 Bft) S-SW 202 0,000 mm 14,3 C 15,4 C 4,8 km/h (1 Bft) 100,00 %
26.09.2023 23:59 22,9 C 15,4 C 17,8 C 56 % 93 % 66 % 1022,5 hPa 0,0 l/m 3,2 km/h (1 Bft) S-SW 202 0,000 mm 14,3 C 15,4 C 4,8 km/h (1 Bft) 95,65 %
26.09.2023 23:58 22,9 C 15,4 C 17,8 C 56 % 93 % 66 % 1022,5 hPa 0,0 l/m 3,2 km/h (1 Bft) S-SW 202 0,000 mm 14,3 C 15,4 C 4,8 km/h (1 Bft) 100,00 %
26.09.2023 23:57 22,9 C 15,4 C 17,8 C 56 % 93 % 66 % 1022,4 hPa 0,0 l/m 3,2 km/h (1 Bft) S-SW 202 0,000 mm 14,3 C 15,4 C 4,8 km/h (1 Bft) 95,65 %
26.09.2023 23:56 22,9 C 15,4 C 17,8 C 56 % 92 % 66 % 1022,5 hPa 0,0 l/m 1,6 km/h (1 Bft) S-SW 202 0,000 mm 14,1 C 15,4 C 3,2 km/h (1 Bft) 100,00 %
26.09.2023 23:55 22,9 C 15,4 C 17,8 C 56 % 92 % 66 % 1022,5 hPa 0,0 l/m 1,6 km/h (1 Bft) S-SW 202 0,000 mm 14,1 C 15,4 C 3,2 km/h (1 Bft) 95,65 %
26.09.2023 23:54 22,9 C 15,4 C 17,8 C 56 % 92 % 66 % 1022,5 hPa 0,0 l/m 1,6 km/h (1 Bft) S-SW 202 0,000 mm 14,1 C 15,4 C 1,6 km/h (1 Bft) 95,65 %
26.09.2023 23:53 22,9 C 15,4 C 17,8 C 56 % 92 % 66 % 1022,5 hPa 0,0 l/m 1,6 km/h (1 Bft) S-SW 202 0,000 mm 14,1 C 15,4 C 1,6 km/h (1 Bft) 95,65 %
26.09.2023 23:52 22,9 C 15,4 C 17,8 C 56 % 92 % 66 % 1022,5 hPa 0,0 l/m 1,6 km/h (1 Bft) S-SW 202 0,000 mm 14,1 C 15,4 C 1,6 km/h (1 Bft) 95,65 %
26.09.2023 23:51 22,9 C 15,4 C 17,8 C 56 % 92 % 66 % 1022,4 hPa 0,0 l/m 1,6 km/h (1 Bft) S-SW 202 0,000 mm 14,1 C 15,4 C 4,8 km/h (1 Bft) 95,65 %
26.09.2023 23:50 22,9 C 15,5 C 17,8 C 56 % 92 % 66 % 1022,4 hPa 0,0 l/m 1,6 km/h (1 Bft) S-SW 202 0,000 mm 14,2 C 15,5 C 3,2 km/h (1 Bft) 91,30 %
26.09.2023 23:49 22,9 C 15,5 C 17,8 C 56 % 92 % 66 % 1022,4 hPa 0,0 l/m 3,2 km/h (1 Bft) S-SW 202 0,000 mm 14,2 C 15,5 C 4,8 km/h (1 Bft) 100,00 %
26.09.2023 23:48 22,9 C 15,5 C 17,8 C 56 % 92 % 66 % 1022,4 hPa 0,0 l/m 3,2 km/h (1 Bft) S-SW 202 0,000 mm 14,2 C 15,5 C 4,8 km/h (1 Bft) 95,65 %
26.09.2023 23:47 22,9 C 15,6 C 17,8 C 55 % 92 % 66 % 1022,5 hPa 0,0 l/m 3,2 km/h (1 Bft) S-SW 202 0,000 mm 14,3 C 15,6 C 4,8 km/h (1 Bft) 95,65 %
26.09.2023 23:46 22,9 C 15,6 C 17,8 C 55 % 92 % 66 % 1022,5 hPa 0,0 l/m 3,2 km/h (1 Bft) S-SW 202 0,000 mm 14,3 C 15,6 C 4,8 km/h (1 Bft) 95,65 %
26.09.2023 23:45 23,0 C 15,6 C 17,8 C 55 % 92 % 66 % 1022,4 hPa 0,0 l/m 1,6 km/h (1 Bft) S-SW 202 0,000 mm 14,3 C 15,6 C 3,2 km/h (1 Bft) 95,65 %
26.09.2023 23:44 22,9 C 15,6 C 17,8 C 55 % 92 % 66 % 1022,4 hPa 0,0 l/m 1,6 km/h (1 Bft) S-SW 202 0,000 mm 14,3 C 15,6 C 3,2 km/h (1 Bft) 95,65 %
26.09.2023 23:43 22,9 C 15,6 C 17,8 C 55 % 92 % 66 % 1022,4 hPa 0,0 l/m 1,6 km/h (1 Bft) S-SW 202 0,000 mm 14,3 C 15,6 C 3,2 km/h (1 Bft) 100,00 %
26.09.2023 23:42 22,9 C 15,6 C 17,8 C 56 % 92 % 66 % 1022,4 hPa 0,0 l/m 1,6 km/h (1 Bft) S-SW 202 0,000 mm 14,3 C 15,6 C 3,2 km/h (1 Bft) 95,65 %
26.09.2023 23:41 22,9 C 15,6 C 17,8 C 55 % 92 % 66 % 1022,5 hPa 0,0 l/m 1,6 km/h (1 Bft) S-SW 202 0,000 mm 14,3 C 15,6 C 3,2 km/h (1 Bft) 91,30 %
26.09.2023 23:40 22,9 C 15,7 C 17,8 C 55 % 92 % 66 % 1022,4 hPa 0,0 l/m 3,2 km/h (1 Bft) S-SW 202 0,000 mm 14,4 C 15,7 C 4,8 km/h (1 Bft) 95,65 %
26.09.2023 23:39 22,9 C 15,6 C 17,8 C 55 % 92 % 66 % 1022,5 hPa 0,0 l/m 1,6 km/h (1 Bft) S-SW 202 0,000 mm 14,3 C 15,6 C 3,2 km/h (1 Bft) 95,65 %
26.09.2023 23:38 22,9 C 15,7 C 17,8 C 55 % 92 % 66 % 1022,4 hPa 0,0 l/m 1,6 km/h (1 Bft) S-SW 202 0,000 mm 14,4 C 15,7 C 3,2 km/h (1 Bft) 100,00 %
26.09.2023 23:37 22,9 C 15,7 C 17,8 C 55 % 92 % 66 % 1022,4 hPa 0,0 l/m 1,6 km/h (1 Bft) S-SW 202 0,000 mm 14,4 C 15,7 C 4,8 km/h (1 Bft) 95,65 %
26.09.2023 23:36 22,9 C 15,7 C 17,8 C 55 % 92 % 66 % 1022,4 hPa 0,0 l/m 1,6 km/h (1 Bft) S-SW 202 0,000 mm 14,4 C 15,7 C 3,2 km/h (1 Bft) 95,65 %
26.09.2023 23:35 22,9 C 15,7 C 17,8 C 55 % 92 % 66 % 1022,5 hPa 0,0 l/m 3,2 km/h (1 Bft) S-SW 202 0,000 mm 14,4 C 15,7 C 3,2 km/h (1 Bft) 95,65 %
26.09.2023 23:34 22,9 C 15,7 C 17,8 C 55 % 92 % 66 % 1022,5 hPa 0,0 l/m 1,6 km/h (1 Bft) S-SW 202 0,000 mm 14,4 C 15,7 C 3,2 km/h (1 Bft) 100,00 %
26.09.2023 23:33 22,9 C 15,7 C 18,3 C 55 % 92 % 66 % 1022,5 hPa 0,0 l/m 3,2 km/h (1 Bft) S-SW 202 0,000 mm 14,4 C 15,7 C 4,8 km/h (1 Bft) 91,30 %
26.09.2023 23:32 23,0 C 15,7 C 18,3 C 55 % 92 % 66 % 1022,4 hPa 0,0 l/m 0,0 km/h (0 Bft) S-SW 202 0,000 mm 14,4 C 15,7 C 1,6 km/h (1 Bft) 91,30 %
26.09.2023 23:31 22,9 C 15,7 C 18,3 C 55 % 92 % 66 % 1022,5 hPa 0,0 l/m 1,6 km/h (1 Bft) S-SW 202 0,000 mm 14,4 C 15,7 C 3,2 km/h (1 Bft) 95,65 %
26.09.2023 23:30 22,9 C 15,8 C 18,3 C 55 % 92 % 66 % 1022,4 hPa 0,0 l/m 0,0 km/h (0 Bft) S-SW 202 0,000 mm 14,5 C 15,8 C 1,6 km/h (1 Bft) 95,65 %
26.09.2023 23:29 22,9 C 15,8 C 18,3 C 55 % 92 % 66 % 1022,5 hPa 0,0 l/m 0,0 km/h (0 Bft) S-SW 202 0,000 mm 14,5 C 15,8 C 1,6 km/h (1 Bft) 100,00 %
26.09.2023 23:28 23,0 C 15,8 C 18,3 C 55 % 92 % 66 % 1022,4 hPa 0,0 l/m 0,0 km/h (0 Bft) S-SW 202 0,000 mm 14,5 C 15,8 C 1,6 km/h (1 Bft) 95,65 %
26.09.2023 23:27 23,0 C 15,8 C 18,3 C 55 % 92 % 66 % 1022,5 hPa 0,0 l/m 1,6 km/h (1 Bft) S-SW 202 0,000 mm 14,5 C 15,8 C 3,2 km/h (1 Bft) 95,65 %
26.09.2023 23:26 23,0 C 15,8 C 18,3 C 55 % 92 % 66 % 1022,4 hPa 0,0 l/m 1,6 km/h (1 Bft) S-SW 202 0,000 mm 14,5 C 15,8 C 3,2 km/h (1 Bft) 91,30 %
26.09.2023 23:25 22,9 C 15,9 C 18,3 C 55 % 92 % 66 % 1022,5 hPa 0,0 l/m 1,6 km/h (1 Bft) S-SW 202 0,000 mm 14,6 C 15,9 C 3,2 km/h (1 Bft) 100,00 %
26.09.2023 23:24 23,0 C 15,9 C 18,3 C 55 % 92 % 66 % 1022,5 hPa 0,0 l/m 1,6 km/h (1 Bft) S-SW 202 0,000 mm 14,6 C 15,9 C 3,2 km/h (1 Bft) 95,65 %
26.09.2023 23:23 22,9 C 15,9 C 18,3 C 55 % 92 % 66 % 1022,4 hPa 0,0 l/m 1,6 km/h (1 Bft) S-SW 202 0,000 mm 14,6 C 15,9 C 3,2 km/h (1 Bft) 91,30 %
26.09.2023 23:22 22,9 C 15,9 C 18,3 C 55 % 92 % 66 % 1022,5 hPa 0,0 l/m 3,2 km/h (1 Bft) S-SW 202 0,000 mm 14,6 C 15,9 C 3,2 km/h (1 Bft) 100,00 %
26.09.2023 23:21 23,0 C 15,9 C 18,3 C 55 % 92 % 66 % 1022,4 hPa 0,0 l/m 3,2 km/h (1 Bft) S-SW 202 0,000 mm 14,6 C 15,9 C 4,8 km/h (1 Bft) 91,30 %
26.09.2023 23:20 23,0 C 15,9 C 18,3 C 55 % 91 % 66 % 1022,4 hPa 0,0 l/m 1,6 km/h (1 Bft) S-SW 202 0,000 mm 14,4 C 15,9 C 3,2 km/h (1 Bft) 100,00 %
26.09.2023 23:19 23,0 C 15,9 C 18,3 C 55 % 91 % 66 % 1022,4 hPa 0,0 l/m 3,2 km/h (1 Bft) S-SW 202 0,000 mm 14,4 C 15,9 C 4,8 km/h (1 Bft) 100,00 %
26.09.2023 23:18 23,0 C 16,0 C 18,3 C 55 % 92 % 66 % 1022,4 hPa 0,0 l/m 3,2 km/h (1 Bft) S-SW 202 0,000 mm 14,7 C 16,0 C 3,2 km/h (1 Bft) 95,65 %
26.09.2023 23:17 23,0 C 16,0 C 18,3 C 55 % 92 % 66 % 1022,5 hPa 0,0 l/m 3,2 km/h (1 Bft) S-SW 202 0,000 mm 14,7 C 16,0 C 4,8 km/h (1 Bft) 100,00 %
26.09.2023 23:16 23,0 C 16,0 C 18,3 C 55 % 92 % 66 % 1022,4 hPa 0,0 l/m 3,2 km/h (1 Bft) S-SW 202 0,000 mm 14,7 C 16,0 C 4,8 km/h (1 Bft) 95,65 %
26.09.2023 23:15 23,0 C 16,0 C 18,3 C 55 % 92 % 65 % 1022,4 hPa 0,0 l/m 3,2 km/h (1 Bft) S-SW 202 0,000 mm 14,7 C 16,0 C 6,4 km/h (2 Bft) 100,00 %
26.09.2023 23:14 23,1 C 16,0 C 18,3 C 55 % 92 % 65 % 1022,4 hPa 0,0 l/m 3,2 km/h (1 Bft) S-SW 202 0,000 mm 14,7 C 16,0 C 4,8 km/h (1 Bft) 95,65 %
26.09.2023 23:13 23,0 C 16,1 C 18,3 C 55 % 91 % 65 % 1022,4 hPa 0,0 l/m 3,2 km/h (1 Bft) S-SW 202 0,000 mm 14,6 C 16,1 C 6,4 km/h (2 Bft) 100,00 %
26.09.2023 23:12 23,0 C 16,1 C 18,3 C 55 % 91 % 65 % 1022,3 hPa 0,0 l/m 1,6 km/h (1 Bft) S-SW 202 0,000 mm 14,6 C 16,1 C 4,8 km/h (1 Bft) 95,65 %
26.09.2023 23:11 23,0 C 16,1 C 18,3 C 55 % 91 % 65 % 1022,4 hPa 0,0 l/m 3,2 km/h (1 Bft) S-SW 202 0,000 mm 14,6 C 16,1 C 6,4 km/h (2 Bft) 95,65 %
26.09.2023 23:10 23,0 C 16,1 C 18,3 C 55 % 91 % 65 % 1022,4 hPa 0,0 l/m 3,2 km/h (1 Bft) S-SW 202 0,000 mm 14,6 C 16,1 C 4,8 km/h (1 Bft) 100,00 %
26.09.2023 23:09 23,0 C 16,1 C 18,3 C 55 % 91 % 65 % 1022,4 hPa 0,0 l/m 3,2 km/h (1 Bft) S-SW 202 0,000 mm 14,6 C 16,1 C 4,8 km/h (1 Bft) 100,00 %
26.09.2023 23:08 23,0 C 16,1 C 18,3 C 55 % 91 % 65 % 1022,4 hPa 0,0 l/m 3,2 km/h (1 Bft) S-SW 202 0,000 mm 14,6 C 16,1 C 6,4 km/h (2 Bft) 95,65 %
26.09.2023 23:07 23,0 C 16,1 C 18,3 C 55 % 91 % 65 % 1022,2 hPa 0,0 l/m 3,2 km/h (1 Bft) S-SW 202 0,000 mm 14,6 C 16,1 C 4,8 km/h (1 Bft) 95,65 %
26.09.2023 23:06 23,0 C 16,1 C 18,3 C 55 % 91 % 65 % 1022,3 hPa 0,0 l/m 3,2 km/h (1 Bft) S-SW 202 0,000 mm 14,6 C 16,1 C 4,8 km/h (1 Bft) 100,00 %
26.09.2023 23:05 23,0 C 16,1 C 18,3 C 55 % 91 % 65 % 1022,2 hPa 0,0 l/m 3,2 km/h (1 Bft) S-SW 202 0,000 mm 14,6 C 16,1 C 4,8 km/h (1 Bft) 100,00 %
26.09.2023 23:04 23,1 C 16,1 C 18,3 C 55 % 91 % 65 % 1022,2 hPa 0,0 l/m 3,2 km/h (1 Bft) S-SW 202 0,000 mm 14,6 C 16,1 C 4,8 km/h (1 Bft) 95,65 %
26.09.2023 23:03 23,0 C 16,1 C 18,3 C 55 % 91 % 65 % 1022,3 hPa 0,0 l/m 1,6 km/h (1 Bft) S-SW 202 0,000 mm 14,6 C 16,1 C 3,2 km/h (1 Bft) 100,00 %
26.09.2023 23:02 23,0 C 16,1 C 18,3 C 55 % 91 % 65 % 1022,2 hPa 0,0 l/m 3,2 km/h (1 Bft) S-SW 202 0,000 mm 14,6 C 16,1 C 4,8 km/h (1 Bft) 100,00 %
26.09.2023 23:01 23,0 C 16,2 C 18,3 C 55 % 91 % 65 % 1022,2 hPa 0,0 l/m 3,2 km/h (1 Bft) S-SW 202 0,000 mm 14,7 C 16,2 C 3,2 km/h (1 Bft) 95,65 %
26.09.2023 23:00 23,0 C 16,2 C 18,3 C 55 % 91 % 65 % 1022,3 hPa 0,0 l/m 3,2 km/h (1 Bft) S-SW 202 0,000 mm 14,7 C 16,2 C 4,8 km/h (1 Bft) 100,00 %
26.09.2023 22:59 23,0 C 16,2 C 18,3 C 55 % 91 % 65 % 1022,1 hPa 0,0 l/m 3,2 km/h (1 Bft) S-SW 202 0,000 mm 14,7 C 16,2 C 4,8 km/h (1 Bft) 100,00 %
26.09.2023 22:58 23,0 C 16,2 C 18,3 C 55 % 91 % 65 % 1022,2 hPa 0,0 l/m 1,6 km/h (1 Bft) S-SW 202 0,000 mm 14,7 C 16,2 C 3,2 km/h (1 Bft) 100,00 %
26.09.2023 22:57 23,1 C 16,3 C 18,3 C 55 % 91 % 65 % 1022,2 hPa 0,0 l/m 1,6 km/h (1 Bft) S-SW 202 0,000 mm 14,8 C 16,3 C 3,2 km/h (1 Bft) 95,65 %
26.09.2023 22:56 23,1 C 16,3 C 18,9 C 55 % 91 % 65 % 1022,2 hPa 0,0 l/m 1,6 km/h (1 Bft) S-SW 202 0,000 mm 14,8 C 16,3 C 3,2 km/h (1 Bft) 95,65 %
26.09.2023 22:55 23,1 C 16,3 C 18,9 C 55 % 91 % 65 % 1022,1 hPa 0,0 l/m 1,6 km/h (1 Bft) S-SW 202 0,000 mm 14,8 C 16,3 C 3,2 km/h (1 Bft) 95,65 %
26.09.2023 22:54 23,0 C 16,3 C 18,9 C 55 % 91 % 65 % 1022,1 hPa 0,0 l/m 0,0 km/h (0 Bft) S-SW 202 0,000 mm 14,8 C 16,3 C 1,6 km/h (1 Bft) 95,65 %
26.09.2023 22:53 23,0 C 16,3 C 18,9 C 55 % 91 % 65 % 1022,0 hPa 0,0 l/m 1,6 km/h (1 Bft) S-SW 202 0,000 mm 14,8 C 16,3 C 3,2 km/h (1 Bft) 100,00 %
26.09.2023 22:52 23,1 C 16,3 C 18,9 C 55 % 91 % 65 % 1022,1 hPa 0,0 l/m 1,6 km/h (1 Bft) S-SW 202 0,000 mm 14,8 C 16,3 C 3,2 km/h (1 Bft) 95,65 %
26.09.2023 22:51 23,0 C 16,4 C 18,9 C 55 % 91 % 65 % 1022,0 hPa 0,0 l/m 1,6 km/h (1 Bft) S-SW 202 0,000 mm 14,9 C 16,4 C 3,2 km/h (1 Bft) 100,00 %
26.09.2023 22:50 23,1 C 16,4 C 18,9 C 55 % 91 % 65 % 1022,0 hPa 0,0 l/m 1,6 km/h (1 Bft) S-SW 202 0,000 mm 14,9 C 16,4 C 3,2 km/h (1 Bft) 95,65 %
26.09.2023 22:49 23,1 C 16,4 C 18,9 C 55 % 91 % 65 % 1022,1 hPa 0,0 l/m 3,2 km/h (1 Bft) S-SW 202 0,000 mm 14,9 C 16,4 C 4,8 km/h (1 Bft) 100,00 %
26.09.2023 22:48 23,1 C 16,4 C 18,9 C 55 % 91 % 65 % 1022,1 hPa 0,0 l/m 3,2 km/h (1 Bft) S-SW 202 0,000 mm 14,9 C 16,4 C 4,8 km/h (1 Bft) 100,00 %
26.09.2023 22:47 23,1 C 16,4 C 18,9 C 55 % 91 % 65 % 1022,1 hPa 0,0 l/m 3,2 km/h (1 Bft) S-SW 202 0,000 mm 14,9 C 16,4 C 4,8 km/h (1 Bft) 95,65 %
26.09.2023 22:46 23,1 C 16,5 C 18,9 C 55 % 91 % 65 % 1022,0 hPa 0,0 l/m 1,6 km/h (1 Bft) S-SW 202 0,000 mm 15,0 C 16,5 C 3,2 km/h (1 Bft) 100,00 %
26.09.2023 22:45 23,1 C 16,6 C 18,9 C 55 % 90 % 65 % 1022,0 hPa 0,0 l/m 0,0 km/h (0 Bft) N 0 0,000 mm 15,0 C 16,6 C 0,0 km/h (0 Bft) 95,65 %
26.09.2023 22:44 23,1 C 16,6 C 18,9 C 55 % 90 % 65 % 1022,0 hPa 0,0 l/m 0,0 km/h (0 Bft) N 0 0,000 mm 15,0 C 16,6 C 0,0 km/h (0 Bft) 95,65 %
26.09.2023 22:43 23,1 C 16,6 C 18,9 C 55 % 90 % 65 % 1022,0 hPa 0,0 l/m 0,0 km/h (0 Bft) N 0 0,000 mm 15,0 C 16,6 C 0,0 km/h (0 Bft) 91,30 %
26.09.2023 22:42 23,1 C 16,6 C 18,9 C 55 % 90 % 65 % 1022,0 hPa 0,0 l/m 0,0 km/h (0 Bft) N 0 0,000 mm 15,0 C 16,6 C 0,0 km/h (0 Bft) 95,65 %
26.09.2023 22:41 23,1 C 16,6 C 18,9 C 55 % 90 % 65 % 1022,0 hPa 0,0 l/m 0,0 km/h (0 Bft) N 0 0,000 mm 15,0 C 16,6 C 0,0 km/h (0 Bft) 100,00 %
26.09.2023 22:40 23,1 C 16,6 C 18,9 C 55 % 90 % 65 % 1022,1 hPa 0,0 l/m 0,0 km/h (0 Bft) N 0 0,000 mm 15,0 C 16,6 C 0,0 km/h (0 Bft) 100,00 %
26.09.2023 22:39 23,1 C 16,6 C 18,9 C 55 % 90 % 65 % 1022,1 hPa 0,0 l/m 0,0 km/h (0 Bft) N 0 0,000 mm 15,0 C 16,6 C 0,0 km/h (0 Bft) 100,00 %
26.09.2023 22:38 23,1 C 16,7 C 18,9 C 55 % 90 % 65 % 1022,1 hPa 0,0 l/m 0,0 km/h (0 Bft) S-SW 202 0,000 mm 15,0 C 16,7 C 1,6 km/h (1 Bft) 100,00 %
26.09.2023 22:37 23,1 C 16,7 C 18,9 C 55 % 90 % 65 % 1022,0 hPa 0,0 l/m 0,0 km/h (0 Bft) S-SW 202 0,000 mm 15,0 C 16,7 C 1,6 km/h (1 Bft) 100,00 %
26.09.2023 22:36 23,1 C 16,7 C 18,9 C 55 % 91 % 65 % 1022,0 hPa 0,0 l/m 1,6 km/h (1 Bft) S-SW 202 0,000 mm 15,2 C 16,7 C 3,2 km/h (1 Bft) 91,30 %
26.09.2023 22:35 23,1 C 16,7 C 18,9 C 55 % 91 % 65 % 1022,0 hPa 0,0 l/m 0,0 km/h (0 Bft) S-SW 202 0,000 mm 15,2 C 16,7 C 1,6 km/h (1 Bft) 100,00 %
26.09.2023 22:34 23,1 C 16,7 C 18,9 C 55 % 91 % 65 % 1022,0 hPa 0,0 l/m 1,6 km/h (1 Bft) S-SW 202 0,000 mm 15,2 C 16,7 C 3,2 km/h (1 Bft) 95,65 %
26.09.2023 22:33 23,1 C 16,7 C 18,9 C 55 % 91 % 65 % 1022,0 hPa 0,0 l/m 0,0 km/h (0 Bft) N 0 0,000 mm 15,2 C 16,7 C 0,0 km/h (0 Bft) 100,00 %
26.09.2023 22:32 23,1 C 16,7 C 18,9 C 55 % 91 % 65 % 1021,9 hPa 0,0 l/m 0,0 km/h (0 Bft) N 0 0,000 mm 15,2 C 16,7 C 0,0 km/h (0 Bft) 100,00 %
26.09.2023 22:31 23,1 C 16,7 C 18,9 C 55 % 90 % 65 % 1021,9 hPa 0,0 l/m 0,0 km/h (0 Bft) N 0 0,000 mm 15,0 C 16,7 C 0,0 km/h (0 Bft) 100,00 %
26.09.2023 22:30 23,1 C 16,7 C 18,9 C 55 % 90 % 65 % 1022,0 hPa 0,0 l/m 0,0 km/h (0 Bft) N 0 0,000 mm 15,0 C 16,7 C 0,0 km/h (0 Bft) 100,00 %
26.09.2023 22:29 23,1 C 16,7 C 18,9 C 55 % 90 % 65 % 1021,9 hPa 0,0 l/m 0,0 km/h (0 Bft) N 0 0,000 mm 15,0 C 16,7 C 0,0 km/h (0 Bft) 86,96 %
26.09.2023 22:28 23,1 C 16,8 C 18,9 C 55 % 90 % 65 % 1022,0 hPa 0,0 l/m 0,0 km/h (0 Bft) N 0 0,000 mm 15,1 C 16,8 C 0,0 km/h (0 Bft) 100,00 %
26.09.2023 22:27 23,1 C 16,8 C 18,9 C 55 % 90 % 65 % 1021,9 hPa 0,0 l/m 0,0 km/h (0 Bft) N 0 0,000 mm 15,1 C 16,8 C 0,0 km/h (0 Bft) 100,00 %
26.09.2023 22:26 23,1 C 16,8 C 18,9 C 55 % 90 % 65 % 1022,0 hPa 0,0 l/m 0,0 km/h (0 Bft) N 0 0,000 mm 15,1 C 16,8 C 0,0 km/h (0 Bft) 91,30 %
26.09.2023 22:25 23,1 C 16,8 C 18,9 C 55 % 90 % 65 % 1022,0 hPa 0,0 l/m 0,0 km/h (0 Bft) N 0 0,000 mm 15,1 C 16,8 C 0,0 km/h (0 Bft) 100,00 %
26.09.2023 22:24 23,1 C 16,8 C 18,9 C 55 % 90 % 65 % 1022,0 hPa 0,0 l/m 0,0 km/h (0 Bft) S-SW 202 0,000 mm 15,1 C 16,8 C 1,6 km/h (1 Bft) 95,65 %
26.09.2023 22:23 23,1 C 16,8 C 18,9 C 55 % 90 % 65 % 1021,8 hPa 0,0 l/m 1,6 km/h (1 Bft) S-SW 202 0,000 mm 15,1 C 16,8 C 3,2 km/h (1 Bft) 100,00 %
26.09.2023 22:22 23,1 C 16,9 C 18,9 C 55 % 90 % 65 % 1021,8 hPa 0,0 l/m 3,2 km/h (1 Bft) S-SW 202 0,000 mm 15,2 C 16,9 C 4,8 km/h (1 Bft) 91,30 %
26.09.2023 22:21 23,1 C 16,9 C 18,9 C 55 % 90 % 65 % 1021,9 hPa 0,0 l/m 1,6 km/h (1 Bft) S-SW 202 0,000 mm 15,2 C 16,9 C 3,2 km/h (1 Bft) 100,00 %
26.09.2023 22:20 23,1 C 16,9 C 19,4 C 55 % 90 % 65 % 1021,8 hPa 0,0 l/m 0,0 km/h (0 Bft) S-SW 202 0,000 mm 15,2 C 16,9 C 1,6 km/h (1 Bft) 95,65 %
26.09.2023 22:19 23,1 C 16,9 C 19,4 C 55 % 90 % 65 % 1021,8 hPa 0,0 l/m 1,6 km/h (1 Bft) S-SW 202 0,000 mm 15,2 C 16,9 C 3,2 km/h (1 Bft) 100,00 %
26.09.2023 22:18 23,1 C 16,9 C 19,4 C 55 % 90 % 65 % 1021,8 hPa 0,0 l/m 0,0 km/h (0 Bft) S-SW 202 0,000 mm 15,2 C 16,9 C 1,6 km/h (1 Bft) 91,30 %
26.09.2023 22:17 23,1 C 16,9 C 19,4 C 55 % 90 % 65 % 1021,8 hPa 0,0 l/m 0,0 km/h (0 Bft) S-SW 202 0,000 mm 15,2 C 16,9 C 1,6 km/h (1 Bft) 95,65 %
26.09.2023 22:16 23,1 C 16,9 C 19,4 C 55 % 90 % 64 % 1021,8 hPa 0,0 l/m 1,6 km/h (1 Bft) S-SW 202 0,000 mm 15,2 C 16,9 C 4,8 km/h (1 Bft) 95,65 %
26.09.2023 22:15 23,1 C 17,0 C 19,4 C 55 % 90 % 64 % 1021,8 hPa 0,0 l/m 3,2 km/h (1 Bft) S-SW 202 0,000 mm 15,3 C 17,0 C 3,2 km/h (1 Bft) 95,65 %
26.09.2023 22:14 23,1 C 17,0 C 19,4 C 55 % 90 % 64 % 1021,8 hPa 0,0 l/m 3,2 km/h (1 Bft) S-SW 202 0,000 mm 15,3 C 17,0 C 4,8 km/h (1 Bft) 91,30 %
26.09.2023 22:13 23,1 C 17,0 C 19,4 C 55 % 90 % 64 % 1021,8 hPa 0,0 l/m 1,6 km/h (1 Bft) S-SW 202 0,000 mm 15,3 C 17,0 C 3,2 km/h (1 Bft) 91,30 %
26.09.2023 22:12 23,1 C 17,1 C 19,4 C 55 % 90 % 64 % 1021,8 hPa 0,0 l/m 1,6 km/h (1 Bft) S-SW 202 0,000 mm 15,4 C 17,1 C 3,2 km/h (1 Bft) 100,00 %
26.09.2023 22:11 23,1 C 17,1 C 19,4 C 55 % 90 % 64 % 1021,8 hPa 0,0 l/m 1,6 km/h (1 Bft) S-SW 202 0,000 mm 15,4 C 17,1 C 3,2 km/h (1 Bft) 91,30 %
26.09.2023 22:10 23,1 C 17,1 C 19,4 C 55 % 90 % 64 % 1021,9 hPa 0,0 l/m 3,2 km/h (1 Bft) S-SW 202 0,000 mm 15,4 C 17,1 C 4,8 km/h (1 Bft) 95,65 %
26.09.2023 22:09 23,1 C 17,1 C 19,4 C 55 % 90 % 64 % 1021,8 hPa 0,0 l/m 3,2 km/h (1 Bft) S-SW 202 0,000 mm 15,4 C 17,1 C 4,8 km/h (1 Bft) 95,65 %
26.09.2023 22:08 23,1 C 17,1 C 19,4 C 55 % 90 % 64 % 1021,9 hPa 0,0 l/m 3,2 km/h (1 Bft) S-SW 202 0,000 mm 15,4 C 17,1 C 6,4 km/h (2 Bft) 91,30 %
26.09.2023 22:07 23,1 C 17,1 C 19,4 C 55 % 90 % 64 % 1021,8 hPa 0,0 l/m 3,2 km/h (1 Bft) S-SW 202 0,000 mm 15,4 C 17,1 C 4,8 km/h (1 Bft) 95,65 %
26.09.2023 22:06 23,1 C 17,2 C 19,4 C 55 % 89 % 64 % 1021,9 hPa 0,0 l/m 4,8 km/h (1 Bft) S-SW 202 0,000 mm 15,4 C 17,2 C 6,4 km/h (2 Bft) 91,30 %
26.09.2023 22:05 23,1 C 17,2 C 19,4 C 55 % 89 % 64 % 1021,8 hPa 0,0 l/m 3,2 km/h (1 Bft) S-SW 202 0,000 mm 15,4 C 17,2 C 4,8 km/h (1 Bft) 95,65 %
26.09.2023 22:04 23,2 C 17,2 C 19,4 C 55 % 89 % 64 % 1021,9 hPa 0,0 l/m 3,2 km/h (1 Bft) S-SW 202 0,000 mm 15,4 C 17,2 C 4,8 km/h (1 Bft) 91,30 %
26.09.2023 22:03 23,2 C 17,2 C 19,4 C 55 % 89 % 64 % 1021,9 hPa 0,0 l/m 3,2 km/h (1 Bft) S-SW 202 0,000 mm 15,4 C 17,2 C 4,8 km/h (1 Bft) 95,65 %
26.09.2023 22:02 23,2 C 17,2 C 19,4 C 55 % 89 % 64 % 1021,9 hPa 0,0 l/m 3,2 km/h (1 Bft) S-SW 202 0,000 mm 15,4 C 17,2 C 4,8 km/h (1 Bft) 91,30 %
26.09.2023 22:01 23,2 C 17,3 C 19,4 C 55 % 89 % 64 % 1021,9 hPa 0,0 l/m 1,6 km/h (1 Bft) S-SW 202 0,000 mm 15,5 C 17,3 C 4,8 km/h (1 Bft) 91,30 %
26.09.2023 22:00 23,2 C 17,3 C 19,4 C 55 % 89 % 64 % 1021,8 hPa 0,0 l/m 3,2 km/h (1 Bft) S-SW 202 0,000 mm 15,5 C 17,3 C 4,8 km/h (1 Bft) 95,65 %
26.09.2023 21:59 23,2 C 17,3 C 19,4 C 55 % 89 % 64 % 1021,8 hPa 0,0 l/m 1,6 km/h (1 Bft) S-SW 202 0,000 mm 15,5 C 17,3 C 3,2 km/h (1 Bft) 100,00 %
26.09.2023 21:58 23,2 C 17,3 C 19,4 C 55 % 89 % 64 % 1021,9 hPa 0,0 l/m 1,6 km/h (1 Bft) S-SW 202 0,000 mm 15,5 C 17,3 C 3,2 km/h (1 Bft) 91,30 %
26.09.2023 21:57 23,1 C 17,3 C 19,4 C 55 % 89 % 64 % 1021,8 hPa 0,0 l/m 1,6 km/h (1 Bft) S-SW 202 0,000 mm 15,5 C 17,3 C 1,6 km/h (1 Bft) 91,30 %
26.09.2023 21:56 23,2 C 17,4 C 19,4 C 55 % 89 % 64 % 1021,8 hPa 0,0 l/m 1,6 km/h (1 Bft) S-SW 202 0,000 mm 15,6 C 17,4 C 3,2 km/h (1 Bft) 91,30 %
26.09.2023 21:55 23,2 C 17,4 C 19,4 C 55 % 89 % 64 % 1021,9 hPa 0,0 l/m 1,6 km/h (1 Bft) S-SW 202 0,000 mm 15,6 C 17,4 C 3,2 km/h (1 Bft) 95,65 %
26.09.2023 21:54 23,2 C 17,4 C 19,4 C 55 % 89 % 64 % 1021,9 hPa 0,0 l/m 0,0 km/h (0 Bft) S-SW 202 0,000 mm 15,6 C 17,4 C 1,6 km/h (1 Bft) 91,30 %
26.09.2023 21:53 23,2 C 17,4 C 19,4 C 55 % 89 % 64 % 1021,8 hPa 0,0 l/m 1,6 km/h (1 Bft) S-SW 202 0,000 mm 15,6 C 17,4 C 3,2 km/h (1 Bft) 91,30 %
26.09.2023 21:52 23,2 C 17,5 C 19,4 C 55 % 89 % 64 % 1021,9 hPa 0,0 l/m 3,2 km/h (1 Bft) S-SW 202 0,000 mm 15,7 C 17,5 C 4,8 km/h (1 Bft) 95,65 %
26.09.2023 21:51 23,2 C 17,5 C 19,4 C 55 % 89 % 64 % 1021,9 hPa 0,0 l/m 1,6 km/h (1 Bft) S-SW 202 0,000 mm 15,7 C 17,5 C 3,2 km/h (1 Bft) 95,65 %
26.09.2023 21:50 23,2 C 17,6 C 19,4 C 55 % 89 % 64 % 1021,9 hPa 0,0 l/m 3,2 km/h (1 Bft) S-SW 202 0,000 mm 15,8 C 17,6 C 3,2 km/h (1 Bft) 95,65 %
26.09.2023 21:49 23,2 C 17,6 C 19,4 C 55 % 89 % 64 % 1021,8 hPa 0,0 l/m 3,2 km/h (1 Bft) S-SW 202 0,000 mm 15,8 C 17,6 C 3,2 km/h (1 Bft) 95,65 %
26.09.2023 21:48 23,2 C 17,6 C 19,4 C 55 % 89 % 64 % 1021,9 hPa 0,0 l/m 1,6 km/h (1 Bft) S-SW 202 0,000 mm 15,8 C 17,6 C 3,2 km/h (1 Bft) 100,00 %
26.09.2023 21:47 23,2 C 17,6 C 20,0 C 55 % 89 % 64 % 1021,9 hPa 0,0 l/m 1,6 km/h (1 Bft) S-SW 202 0,000 mm 15,8 C 17,6 C 3,2 km/h (1 Bft) 91,30 %
26.09.2023 21:46 23,2 C 17,6 C 20,0 C 55 % 89 % 64 % 1021,7 hPa 0,0 l/m 3,2 km/h (1 Bft) S-SW 202 0,000 mm 15,8 C 17,6 C 3,2 km/h (1 Bft) 95,65 %
26.09.2023 21:45 23,2 C 17,7 C 20,0 C 55 % 89 % 64 % 1021,7 hPa 0,0 l/m 1,6 km/h (1 Bft) S-SW 202 0,000 mm 15,9 C 17,7 C 4,8 km/h (1 Bft) 100,00 %
26.09.2023 21:44 23,2 C 17,7 C 20,0 C 55 % 89 % 64 % 1021,8 hPa 0,0 l/m 3,2 km/h (1 Bft) S-SW 202 0,000 mm 15,9 C 17,7 C 4,8 km/h (1 Bft) 100,00 %
26.09.2023 21:43 23,2 C 17,7 C 20,0 C 55 % 89 % 64 % 1021,9 hPa 0,0 l/m 3,2 km/h (1 Bft) S-SW 202 0,000 mm 15,9 C 17,7 C 3,2 km/h (1 Bft) 95,65 %
26.09.2023 21:42 23,2 C 17,7 C 20,0 C 55 % 89 % 64 % 1021,8 hPa 0,0 l/m 3,2 km/h (1 Bft) S-SW 202 0,000 mm 15,9 C 17,7 C 3,2 km/h (1 Bft) 100,00 %
26.09.2023 21:41 23,2 C 17,7 C 20,0 C 55 % 89 % 64 % 1021,8 hPa 0,0 l/m 3,2 km/h (1 Bft) S-SW 202 0,000 mm 15,9 C 17,7 C 4,8 km/h (1 Bft) 95,65 %
26.09.2023 21:40 23,2 C 17,8 C 20,0 C 55 % 89 % 64 % 1021,8 hPa 0,0 l/m 3,2 km/h (1 Bft) S-SW 202 0,000 mm 16,0 C 17,8 C 6,4 km/h (2 Bft) 95,65 %
26.09.2023 21:39 23,2 C 17,8 C 20,0 C 55 % 89 % 64 % 1021,8 hPa 0,0 l/m 3,2 km/h (1 Bft) S-SW 202 0,000 mm 16,0 C 17,8 C 4,8 km/h (1 Bft) 95,65 %
26.09.2023 21:38 23,2 C 17,8 C 20,0 C 55 % 88 % 64 % 1021,7 hPa 0,0 l/m 3,2 km/h (1 Bft) S-SW 202 0,000 mm 15,8 C 17,8 C 4,8 km/h (1 Bft) 95,65 %
26.09.2023 21:37 23,2 C 17,8 C 20,0 C 55 % 88 % 64 % 1021,8 hPa 0,0 l/m 3,2 km/h (1 Bft) S-SW 202 0,000 mm 15,8 C 17,8 C 3,2 km/h (1 Bft) 100,00 %
26.09.2023 21:36 23,2 C 17,8 C 20,0 C 55 % 88 % 64 % 1021,8 hPa 0,0 l/m 3,2 km/h (1 Bft) S-SW 202 0,000 mm 15,8 C 17,8 C 4,8 km/h (1 Bft) 91,30 %
26.09.2023 21:35 23,2 C 17,9 C 20,0 C 55 % 88 % 64 % 1021,8 hPa 0,0 l/m 3,2 km/h (1 Bft) S-SW 202 0,000 mm 15,9 C 17,9 C 3,2 km/h (1 Bft) 100,00 %
26.09.2023 21:34 23,2 C 17,9 C 20,0 C 55 % 88 % 64 % 1021,7 hPa 0,0 l/m 3,2 km/h (1 Bft) S-SW 202 0,000 mm 15,9 C 17,9 C 4,8 km/h (1 Bft) 95,65 %
26.09.2023 21:33 23,2 C 17,9 C 20,0 C 55 % 88 % 64 % 1021,8 hPa 0,0 l/m 3,2 km/h (1 Bft) S-SW 202 0,000 mm 15,9 C 17,9 C 4,8 km/h (1 Bft) 91,30 %
26.09.2023 21:32 23,2 C 17,9 C 20,0 C 55 % 88 % 64 % 1021,8 hPa 0,0 l/m 3,2 km/h (1 Bft) S-SW 202 0,000 mm 15,9 C 17,9 C 4,8 km/h (1 Bft) 91,30 %
26.09.2023 21:31 23,2 C 17,9 C 20,0 C 55 % 88 % 64 % 1021,7 hPa 0,0 l/m 1,6 km/h (1 Bft) S-SW 202 0,000 mm 15,9 C 17,9 C 3,2 km/h (1 Bft) 100,00 %
26.09.2023 21:30 23,2 C 17,9 C 20,0 C 55 % 88 % 64 % 1021,8 hPa 0,0 l/m 4,8 km/h (1 Bft) S-SW 202 0,000 mm 15,9 C 17,9 C 6,4 km/h (2 Bft) 91,30 %
26.09.2023 21:29 23,2 C 18,0 C 20,0 C 55 % 88 % 64 % 1021,8 hPa 0,0 l/m 4,8 km/h (1 Bft) S-SW 202 0,000 mm 16,0 C 18,0 C 6,4 km/h (2 Bft) 100,00 %
26.09.2023 21:28 23,2 C 18,0 C 20,0 C 55 % 88 % 63 % 1021,8 hPa 0,0 l/m 4,8 km/h (1 Bft) S-SW 202 0,000 mm 16,0 C 18,0 C 8,0 km/h (2 Bft) 95,65 %
26.09.2023 21:27 23,2 C 18,0 C 20,0 C 55 % 88 % 63 % 1021,7 hPa 0,0 l/m 4,8 km/h (1 Bft) S-SW 202 0,000 mm 16,0 C 18,0 C 6,4 km/h (2 Bft) 100,00 %
26.09.2023 21:26 23,2 C 18,0 C 20,0 C 55 % 88 % 63 % 1021,7 hPa 0,0 l/m 4,8 km/h (1 Bft) S-SW 202 0,000 mm 16,0 C 18,0 C 8,0 km/h (2 Bft) 91,30 %
26.09.2023 21:25 23,2 C 18,1 C 20,0 C 55 % 88 % 63 % 1021,7 hPa 0,0 l/m 3,2 km/h (1 Bft) S-SW 202 0,000 mm 16,1 C 18,1 C 4,8 km/h (1 Bft) 95,65 %
26.09.2023 21:24 23,2 C 18,1 C 20,0 C 55 % 88 % 63 % 1021,7 hPa 0,0 l/m 3,2 km/h (1 Bft) S-SW 202 0,000 mm 16,1 C 18,1 C 6,4 km/h (2 Bft) 95,65 %
26.09.2023 21:23 23,3 C 18,1 C 20,0 C 55 % 88 % 63 % 1021,7 hPa 0,0 l/m 1,6 km/h (1 Bft) S-SW 202 0,000 mm 16,1 C 18,1 C 6,4 km/h (2 Bft) 100,00 %
26.09.2023 21:22 23,2 C 18,1 C 20,0 C 55 % 88 % 63 % 1021,7 hPa 0,0 l/m 1,6 km/h (1 Bft) S-SW 202 0,000 mm 16,1 C 18,1 C 4,8 km/h (1 Bft) 95,65 %
26.09.2023 21:21 23,2 C 18,1 C 20,0 C 55 % 88 % 63 % 1021,7 hPa 0,0 l/m 4,8 km/h (1 Bft) S-SW 202 0,000 mm 16,1 C 18,1 C 6,4 km/h (2 Bft) 95,65 %
26.09.2023 21:20 23,2 C 18,1 C 20,0 C 55 % 88 % 63 % 1021,6 hPa 0,0 l/m 1,6 km/h (1 Bft) S-SW 202 0,000 mm 16,1 C 18,1 C 3,2 km/h (1 Bft) 100,00 %
26.09.2023 21:19 23,3 C 18,2 C 20,0 C 55 % 88 % 63 % 1021,7 hPa 0,0 l/m 4,8 km/h (1 Bft) S-SW 202 0,000 mm 16,2 C 18,2 C 4,8 km/h (1 Bft) 91,30 %
26.09.2023 21:18 23,2 C 18,2 C 20,0 C 55 % 88 % 63 % 1021,6 hPa 0,0 l/m 4,8 km/h (1 Bft) S-SW 202 0,000 mm 16,2 C 18,2 C 6,4 km/h (2 Bft) 100,00 %
26.09.2023 21:17 23,3 C 18,2 C 20,0 C 55 % 88 % 63 % 1021,7 hPa 0,0 l/m 4,8 km/h (1 Bft) S-SW 202 0,000 mm 16,2 C 18,2 C 6,4 km/h (2 Bft) 95,65 %
26.09.2023 21:16 23,3 C 18,2 C 20,0 C 55 % 88 % 63 % 1021,7 hPa 0,0 l/m 3,2 km/h (1 Bft) SW 225 0,000 mm 16,2 C 18,2 C 6,4 km/h (2 Bft) 100,00 %
26.09.2023 21:15 23,3 C 18,2 C 20,0 C 55 % 88 % 63 % 1021,6 hPa 0,0 l/m 4,8 km/h (1 Bft) S-SW 202 0,000 mm 16,2 C 18,2 C 6,4 km/h (2 Bft) 95,65 %
26.09.2023 21:14 23,3 C 18,3 C 20,6 C 55 % 88 % 63 % 1021,7 hPa 0,0 l/m 6,4 km/h (2 Bft) S-SW 202 0,000 mm 16,3 C 18,3 C 8,0 km/h (2 Bft) 95,65 %
26.09.2023 21:13 23,3 C 18,3 C 20,6 C 55 % 88 % 63 % 1021,6 hPa 0,0 l/m 4,8 km/h (1 Bft) S-SW 202 0,000 mm 16,3 C 18,3 C 6,4 km/h (2 Bft) 95,65 %
26.09.2023 21:12 23,3 C 18,3 C 20,6 C 55 % 88 % 63 % 1021,5 hPa 0,0 l/m 3,2 km/h (1 Bft) S-SW 202 0,000 mm 16,3 C 18,3 C 8,0 km/h (2 Bft) 95,65 %
26.09.2023 21:11 23,3 C 18,3 C 20,6 C 55 % 88 % 63 % 1021,6 hPa 0,0 l/m 3,2 km/h (1 Bft) S-SW 202 0,000 mm 16,3 C 18,3 C 4,8 km/h (1 Bft) 95,65 %
26.09.2023 21:10 23,3 C 18,3 C 20,6 C 55 % 88 % 63 % 1021,6 hPa 0,0 l/m 3,2 km/h (1 Bft) S-SW 202 0,000 mm 16,3 C 18,3 C 4,8 km/h (1 Bft) 100,00 %
26.09.2023 21:09 23,3 C 18,3 C 20,6 C 55 % 88 % 63 % 1021,5 hPa 0,0 l/m 3,2 km/h (1 Bft) S-SW 202 0,000 mm 16,3 C 18,3 C 4,8 km/h (1 Bft) 95,65 %
26.09.2023 21:08 23,3 C 18,3 C 20,6 C 55 % 88 % 63 % 1021,7 hPa 0,0 l/m 1,6 km/h (1 Bft) S-SW 202 0,000 mm 16,3 C 18,3 C 4,8 km/h (1 Bft) 100,00 %
26.09.2023 21:07 23,3 C 18,3 C 20,6 C 55 % 88 % 63 % 1021,7 hPa 0,0 l/m 4,8 km/h (1 Bft) S-SW 202 0,000 mm 16,3 C 18,3 C 8,0 km/h (2 Bft) 95,65 %
26.09.2023 21:06 23,3 C 18,4 C 20,6 C 55 % 88 % 63 % 1021,6 hPa 0,0 l/m 4,8 km/h (1 Bft) S-SW 202 0,000 mm 16,4 C 18,4 C 8,0 km/h (2 Bft) 95,65 %
26.09.2023 21:05 23,3 C 18,4 C 20,6 C 55 % 88 % 63 % 1021,5 hPa 0,0 l/m 4,8 km/h (1 Bft) S-SW 202 0,000 mm 16,4 C 18,4 C 6,4 km/h (2 Bft) 100,00 %
26.09.2023 21:04 23,3 C 18,4 C 20,6 C 55 % 88 % 63 % 1021,6 hPa 0,0 l/m 4,8 km/h (1 Bft) S-SW 202 0,000 mm 16,4 C 18,4 C 6,4 km/h (2 Bft) 91,30 %
26.09.2023 21:03 23,3 C 18,4 C 20,6 C 55 % 88 % 63 % 1021,6 hPa 0,0 l/m 4,8 km/h (1 Bft) S-SW 202 0,000 mm 16,4 C 18,4 C 6,4 km/h (2 Bft) 100,00 %
26.09.2023 21:02 23,3 C 18,5 C 20,6 C 55 % 87 % 63 % 1021,6 hPa 0,0 l/m 4,8 km/h (1 Bft) S-SW 202 0,000 mm 16,3 C 18,5 C 6,4 km/h (2 Bft) 95,65 %
26.09.2023 21:01 23,3 C 18,5 C 20,6 C 55 % 87 % 63 % 1021,6 hPa 0,0 l/m 4,8 km/h (1 Bft) S-SW 202 0,000 mm 16,3 C 18,5 C 8,0 km/h (2 Bft) 100,00 %
26.09.2023 21:00 23,3 C 18,5 C 20,6 C 55 % 87 % 63 % 1021,6 hPa 0,0 l/m 4,8 km/h (1 Bft) S-SW 202 0,000 mm 16,3 C 18,5 C 6,4 km/h (2 Bft) 95,65 %
26.09.2023 20:59 23,3 C 18,5 C 20,6 C 55 % 87 % 63 % 1021,5 hPa 0,0 l/m 4,8 km/h (1 Bft) S-SW 202 0,000 mm 16,3 C 18,5 C 8,0 km/h (2 Bft) 100,00 %
26.09.2023 20:58 23,3 C 18,6 C 20,6 C 55 % 87 % 63 % 1021,6 hPa 0,0 l/m 6,4 km/h (2 Bft) S-SW 202 0,000 mm 16,4 C 18,6 C 8,0 km/h (2 Bft) 95,65 %
26.09.2023 20:57 23,3 C 18,6 C 20,6 C 55 % 87 % 63 % 1021,5 hPa 0,0 l/m 4,8 km/h (1 Bft) S-SW 202 0,000 mm 16,4 C 18,6 C 6,4 km/h (2 Bft) 95,65 %
26.09.2023 20:56 23,3 C 18,6 C 20,6 C 55 % 87 % 63 % 1021,6 hPa 0,0 l/m 4,8 km/h (1 Bft) S-SW 202 0,000 mm 16,4 C 18,6 C 6,4 km/h (2 Bft) 95,65 %
26.09.2023 20:55 23,3 C 18,6 C 20,6 C 55 % 87 % 63 % 1021,5 hPa 0,0 l/m 4,8 km/h (1 Bft) S-SW 202 0,000 mm 16,4 C 18,6 C 6,4 km/h (2 Bft) 100,00 %
26.09.2023 20:54 23,3 C 18,7 C 20,6 C 55 % 87 % 63 % 1021,5 hPa 0,0 l/m 4,8 km/h (1 Bft) S-SW 202 0,000 mm 16,5 C 18,7 C 6,4 km/h (2 Bft) 95,65 %
26.09.2023 20:53 23,3 C 18,7 C 20,6 C 55 % 87 % 62 % 1021,6 hPa 0,0 l/m 6,4 km/h (2 Bft) S-SW 202 0,000 mm 16,5 C 18,7 C 9,7 km/h (2 Bft) 95,65 %
26.09.2023 20:52 23,3 C 18,7 C 20,6 C 55 % 87 % 62 % 1021,5 hPa 0,0 l/m 4,8 km/h (1 Bft) S-SW 202 0,000 mm 16,5 C 18,7 C 6,4 km/h (2 Bft) 95,65 %
26.09.2023 20:51 23,3 C 18,7 C 20,6 C 55 % 87 % 62 % 1021,5 hPa 0,0 l/m 4,8 km/h (1 Bft) S-SW 202 0,000 mm 16,5 C 18,7 C 8,0 km/h (2 Bft) 95,65 %
26.09.2023 20:50 23,3 C 18,8 C 20,6 C 55 % 87 % 63 % 1021,5 hPa 0,0 l/m 6,4 km/h (2 Bft) S-SW 202 0,000 mm 16,6 C 18,8 C 8,0 km/h (2 Bft) 91,30 %
26.09.2023 20:49 23,3 C 18,8 C 20,6 C 55 % 87 % 63 % 1021,5 hPa 0,0 l/m 4,8 km/h (1 Bft) S-SW 202 0,000 mm 16,6 C 18,8 C 6,4 km/h (2 Bft) 95,65 %
26.09.2023 20:48 23,3 C 18,8 C 20,6 C 55 % 87 % 62 % 1021,5 hPa 0,0 l/m 4,8 km/h (1 Bft) S-SW 202 0,000 mm 16,6 C 18,8 C 6,4 km/h (2 Bft) 95,65 %
26.09.2023 20:47 23,3 C 18,8 C 20,6 C 55 % 87 % 62 % 1021,5 hPa 0,0 l/m 4,8 km/h (1 Bft) S-SW 202 0,000 mm 16,6 C 18,8 C 8,0 km/h (2 Bft) 95,65 %
26.09.2023 20:46 23,3 C 18,8 C 20,6 C 55 % 87 % 62 % 1021,5 hPa 0,0 l/m 3,2 km/h (1 Bft) S-SW 202 0,000 mm 16,6 C 18,8 C 4,8 km/h (1 Bft) 95,65 %
26.09.2023 20:45 23,3 C 18,8 C 20,6 C 55 % 87 % 62 % 1021,5 hPa 0,0 l/m 4,8 km/h (1 Bft) S-SW 202 0,000 mm 16,6 C 18,8 C 6,4 km/h (2 Bft) 91,30 %
26.09.2023 20:44 23,3 C 18,9 C 21,1 C 55 % 87 % 62 % 1021,5 hPa 0,0 l/m 3,2 km/h (1 Bft) S-SW 202 0,000 mm 16,7 C 18,9 C 4,8 km/h (1 Bft) 95,65 %
26.09.2023 20:43 23,3 C 18,9 C 21,1 C 55 % 87 % 62 % 1021,4 hPa 0,0 l/m 3,2 km/h (1 Bft) S-SW 202 0,000 mm 16,7 C 18,9 C 6,4 km/h (2 Bft) 91,30 %
26.09.2023 20:42 23,3 C 18,9 C 21,1 C 55 % 87 % 62 % 1021,3 hPa 0,0 l/m 3,2 km/h (1 Bft) S-SW 202 0,000 mm 16,7 C 18,9 C 6,4 km/h (2 Bft) 95,65 %
26.09.2023 20:41 23,3 C 18,9 C 21,1 C 55 % 86 % 62 % 1021,4 hPa 0,0 l/m 3,2 km/h (1 Bft) S-SW 202 0,000 mm 16,5 C 18,9 C 4,8 km/h (1 Bft) 91,30 %
26.09.2023 20:40 23,3 C 18,9 C 21,1 C 55 % 86 % 62 % 1021,3 hPa 0,0 l/m 6,4 km/h (2 Bft) S-SW 202 0,000 mm 16,5 C 18,9 C 8,0 km/h (2 Bft) 100,00 %
26.09.2023 20:39 23,3 C 18,9 C 21,1 C 55 % 86 % 62 % 1021,3 hPa 0,0 l/m 4,8 km/h (1 Bft) S-SW 202 0,000 mm 16,5 C 18,9 C 8,0 km/h (2 Bft) 91,30 %
26.09.2023 20:38 23,3 C 19,0 C 21,1 C 55 % 86 % 62 % 1021,3 hPa 0,0 l/m 4,8 km/h (1 Bft) S-SW 202 0,000 mm 16,6 C 19,0 C 8,0 km/h (2 Bft) 95,65 %
26.09.2023 20:37 23,3 C 19,0 C 21,1 C 55 % 86 % 62 % 1021,3 hPa 0,0 l/m 4,8 km/h (1 Bft) SW 225 0,000 mm 16,6 C 19,0 C 6,4 km/h (2 Bft) 95,65 %
26.09.2023 20:36 23,3 C 19,0 C 21,1 C 55 % 86 % 62 % 1021,3 hPa 0,0 l/m 4,8 km/h (1 Bft) SW 225 0,000 mm 16,6 C 19,0 C 8,0 km/h (2 Bft) 91,30 %
26.09.2023 20:35 23,3 C 19,1 C 21,1 C 55 % 86 % 62 % 1021,3 hPa 0,0 l/m 4,8 km/h (1 Bft) S-SW 202 0,000 mm 16,7 C 19,1 C 6,4 km/h (2 Bft) 95,65 %
26.09.2023 20:34 23,3 C 19,1 C 21,1 C 55 % 86 % 62 % 1021,2 hPa 0,0 l/m 3,2 km/h (1 Bft) S-SW 202 0,000 mm 16,7 C 19,1 C 6,4 km/h (2 Bft) 86,96 %
26.09.2023 20:33 23,3 C 19,1 C 21,1 C 55 % 86 % 61 % 1021,3 hPa 0,0 l/m 4,8 km/h (1 Bft) S-SW 202 0,000 mm 16,7 C 19,1 C 8,0 km/h (2 Bft) 100,00 %
26.09.2023 20:32 23,3 C 19,1 C 21,1 C 55 % 86 % 62 % 1021,3 hPa 0,0 l/m 4,8 km/h (1 Bft) S-SW 202 0,000 mm 16,7 C 19,1 C 6,4 km/h (2 Bft) 91,30 %
26.09.2023 20:31 23,3 C 19,1 C 21,1 C 55 % 86 % 61 % 1021,1 hPa 0,0 l/m 6,4 km/h (2 Bft) S-SW 202 0,000 mm 16,7 C 19,1 C 8,0 km/h (2 Bft) 100,00 %
26.09.2023 20:30 23,3 C 19,2 C 21,1 C 55 % 86 % 61 % 1021,3 hPa 0,0 l/m 6,4 km/h (2 Bft) SW 225 0,000 mm 16,8 C 19,2 C 11,3 km/h (2 Bft) 95,65 %
26.09.2023 20:29 23,4 C 19,2 C 21,1 C 55 % 86 % 61 % 1021,1 hPa 0,0 l/m 6,4 km/h (2 Bft) SW 225 0,000 mm 16,8 C 19,2 C 9,7 km/h (2 Bft) 86,96 %
26.09.2023 20:28 23,4 C 19,2 C 21,1 C 55 % 86 % 61 % 1021,2 hPa 0,0 l/m 4,8 km/h (1 Bft) S-SW 202 0,000 mm 16,8 C 19,2 C 8,0 km/h (2 Bft) 100,00 %
26.09.2023 20:27 23,3 C 19,2 C 21,1 C 55 % 86 % 61 % 1021,2 hPa 0,0 l/m 6,4 km/h (2 Bft) S-SW 202 0,000 mm 16,8 C 19,2 C 8,0 km/h (2 Bft) 95,65 %
26.09.2023 20:26 23,4 C 19,2 C 21,1 C 55 % 86 % 61 % 1021,2 hPa 0,0 l/m 6,4 km/h (2 Bft) SW 225 0,000 mm 16,8 C 19,2 C 8,0 km/h (2 Bft) 100,00 %
26.09.2023 20:25 23,4 C 19,2 C 21,1 C 55 % 86 % 61 % 1021,1 hPa 0,0 l/m 3,2 km/h (1 Bft) SW 225 0,000 mm 16,8 C 19,2 C 4,8 km/h (1 Bft) 91,30 %
26.09.2023 20:24 23,4 C 19,2 C 21,1 C 55 % 85 % 61 % 1021,0 hPa 0,0 l/m 4,8 km/h (1 Bft) SW 225 0,000 mm 16,6 C 19,2 C 6,4 km/h (2 Bft) 100,00 %
26.09.2023 20:23 23,4 C 19,3 C 21,1 C 55 % 85 % 61 % 1021,1 hPa 0,0 l/m 3,2 km/h (1 Bft) SW 225 0,000 mm 16,7 C 19,3 C 6,4 km/h (2 Bft) 95,65 %
26.09.2023 20:22 23,4 C 19,3 C 21,1 C 55 % 85 % 61 % 1021,0 hPa 0,0 l/m 4,8 km/h (1 Bft) SW 225 0,000 mm 16,7 C 19,3 C 6,4 km/h (2 Bft) 95,65 %
26.09.2023 20:21 23,4 C 19,3 C 21,1 C 55 % 85 % 61 % 1021,1 hPa 0,0 l/m 4,8 km/h (1 Bft) SW 225 0,000 mm 16,7 C 19,3 C 6,4 km/h (2 Bft) 95,65 %
26.09.2023 20:20 23,4 C 19,3 C 21,1 C 55 % 85 % 61 % 1021,0 hPa 0,0 l/m 4,8 km/h (1 Bft) SW 225 0,000 mm 16,7 C 19,3 C 6,4 km/h (2 Bft) 95,65 %
26.09.2023 20:19 23,4 C 19,3 C 21,1 C 55 % 85 % 61 % 1021,0 hPa 0,0 l/m 4,8 km/h (1 Bft) SW 225 0,000 mm 16,7 C 19,3 C 6,4 km/h (2 Bft) 100,00 %
26.09.2023 20:18 23,4 C 19,4 C 21,1 C 55 % 85 % 61 % 1020,9 hPa 0,0 l/m 3,2 km/h (1 Bft) SW 225 0,000 mm 16,8 C 19,4 C 4,8 km/h (1 Bft) 86,96 %
26.09.2023 20:17 23,4 C 19,4 C 21,7 C 55 % 85 % 61 % 1020,9 hPa 0,0 l/m 3,2 km/h (1 Bft) SW 225 0,000 mm 16,8 C 19,4 C 6,4 km/h (2 Bft) 95,65 %
26.09.2023 20:16 23,4 C 19,4 C 21,7 C 55 % 85 % 61 % 1021,0 hPa 0,0 l/m 4,8 km/h (1 Bft) SW 225 0,000 mm 16,8 C 19,4 C 6,4 km/h (2 Bft) 91,30 %
26.09.2023 20:15 23,4 C 19,4 C 21,7 C 55 % 85 % 61 % 1021,0 hPa 0,0 l/m 4,8 km/h (1 Bft) SW 225 0,000 mm 16,8 C 19,4 C 6,4 km/h (2 Bft) 95,65 %
26.09.2023 20:14 23,4 C 19,4 C 21,7 C 55 % 85 % 61 % 1020,9 hPa 0,0 l/m 4,8 km/h (1 Bft) SW 225 0,000 mm 16,8 C 19,4 C 8,0 km/h (2 Bft) 91,30 %
26.09.2023 20:13 23,4 C 19,4 C 21,7 C 55 % 85 % 61 % 1020,9 hPa 0,0 l/m 4,8 km/h (1 Bft) SW 225 0,000 mm 16,8 C 19,4 C 6,4 km/h (2 Bft) 100,00 %
26.09.2023 20:12 23,4 C 19,4 C 21,7 C 55 % 85 % 60 % 1020,9 hPa 0,0 l/m 4,8 km/h (1 Bft) SW 225 0,000 mm 16,8 C 19,4 C 8,0 km/h (2 Bft) 95,65 %
26.09.2023 20:11 23,4 C 19,5 C 21,7 C 55 % 85 % 60 % 1020,9 hPa 0,0 l/m 4,8 km/h (1 Bft) SW 225 0,000 mm 16,9 C 19,5 C 8,0 km/h (2 Bft) 100,00 %
26.09.2023 20:10 23,4 C 19,5 C 21,7 C 55 % 85 % 60 % 1020,9 hPa 0,0 l/m 6,4 km/h (2 Bft) SW 225 0,000 mm 16,9 C 19,5 C 8,0 km/h (2 Bft) 100,00 %
26.09.2023 20:09 23,4 C 19,6 C 21,7 C 55 % 84 % 60 % 1020,9 hPa 0,0 l/m 4,8 km/h (1 Bft) SW 225 0,000 mm 16,8 C 19,6 C 8,0 km/h (2 Bft) 100,00 %
26.09.2023 20:08 23,4 C 19,6 C 21,7 C 55 % 84 % 60 % 1020,8 hPa 0,0 l/m 4,8 km/h (1 Bft) S-SW 202 0,000 mm 16,8 C 19,6 C 8,0 km/h (2 Bft) 95,65 %
26.09.2023 20:07 23,4 C 19,6 C 21,7 C 55 % 84 % 60 % 1020,8 hPa 0,0 l/m 4,8 km/h (1 Bft) S-SW 202 0,000 mm 16,8 C 19,6 C 8,0 km/h (2 Bft) 95,65 %
26.09.2023 20:06 23,4 C 19,6 C 21,7 C 55 % 84 % 60 % 1020,9 hPa 0,0 l/m 3,2 km/h (1 Bft) S-SW 202 0,000 mm 16,8 C 19,6 C 6,4 km/h (2 Bft) 100,00 %
26.09.2023 20:05 23,4 C 19,6 C 21,7 C 55 % 84 % 60 % 1020,8 hPa 0,0 l/m 4,8 km/h (1 Bft) S-SW 202 0,000 mm 16,8 C 19,6 C 6,4 km/h (2 Bft) 100,00 %
26.09.2023 20:04 23,4 C 19,7 C 21,7 C 55 % 84 % 60 % 1021,0 hPa 0,0 l/m 3,2 km/h (1 Bft) S-SW 202 0,000 mm 16,9 C 19,7 C 4,8 km/h (1 Bft) 100,00 %
26.09.2023 20:03 23,4 C 19,7 C 21,7 C 55 % 84 % 60 % 1020,9 hPa 0,0 l/m 4,8 km/h (1 Bft) S-SW 202 0,000 mm 16,9 C 19,7 C 8,0 km/h (2 Bft) 95,65 %
26.09.2023 20:02 23,4 C 19,7 C 21,7 C 55 % 84 % 60 % 1020,9 hPa 0,0 l/m 4,8 km/h (1 Bft) S-SW 202 0,000 mm 16,9 C 19,7 C 6,4 km/h (2 Bft) 100,00 %
26.09.2023 20:01 23,4 C 19,7 C 21,7 C 55 % 84 % 60 % 1020,8 hPa 0,0 l/m 4,8 km/h (1 Bft) S-SW 202 0,000 mm 16,9 C 19,7 C 6,4 km/h (2 Bft) 91,30 %
26.09.2023 20:00 23,4 C 19,7 C 21,7 C 55 % 84 % 60 % 1020,9 hPa 0,0 l/m 3,2 km/h (1 Bft) S-SW 202 0,000 mm 16,9 C 19,7 C 6,4 km/h (2 Bft) 95,65 %
26.09.2023 19:59 23,4 C 19,8 C 21,7 C 55 % 84 % 60 % 1020,8 hPa 0,0 l/m 3,2 km/h (1 Bft) S-SW 202 0,000 mm 17,0 C 19,8 C 4,8 km/h (1 Bft) 100,00 %
26.09.2023 19:58 23,4 C 19,8 C 21,7 C 55 % 84 % 60 % 1020,9 hPa 0,0 l/m 3,2 km/h (1 Bft) S-SW 202 0,000 mm 17,0 C 19,8 C 4,8 km/h (1 Bft) 100,00 %
26.09.2023 19:57 23,4 C 19,8 C 21,7 C 55 % 83 % 60 % 1020,8 hPa 0,0 l/m 4,8 km/h (1 Bft) S-SW 202 0,000 mm 16,8 C 19,8 C 6,4 km/h (2 Bft) 100,00 %
26.09.2023 19:56 23,4 C 19,8 C 21,7 C 55 % 83 % 60 % 1020,8 hPa 0,0 l/m 3,2 km/h (1 Bft) S-SW 202 0,000 mm 16,8 C 19,8 C 4,8 km/h (1 Bft) 100,00 %
26.09.2023 19:55 23,4 C 19,9 C 22,2 C 55 % 83 % 60 % 1020,8 hPa 0,0 l/m 3,2 km/h (1 Bft) S-SW 202 0,000 mm 16,9 C 19,9 C 4,8 km/h (1 Bft) 100,00 %
26.09.2023 19:54 23,4 C 19,9 C 22,2 C 55 % 83 % 60 % 1020,9 hPa 0,0 l/m 4,8 km/h (1 Bft) S-SW 202 0,000 mm 16,9 C 19,9 C 6,4 km/h (2 Bft) 95,65 %
26.09.2023 19:53 23,4 C 19,9 C 22,2 C 55 % 83 % 59 % 1020,8 hPa 0,0 l/m 3,2 km/h (1 Bft) S-SW 202 0,000 mm 16,9 C 19,9 C 6,4 km/h (2 Bft) 100,00 %
26.09.2023 19:52 23,4 C 19,9 C 22,2 C 55 % 83 % 59 % 1020,8 hPa 0,0 l/m 4,8 km/h (1 Bft) S-SW 202 0,000 mm 16,9 C 19,9 C 6,4 km/h (2 Bft) 100,00 %
26.09.2023 19:51 23,4 C 20,0 C 22,2 C 55 % 83 % 59 % 1020,8 hPa 0,0 l/m 4,8 km/h (1 Bft) S-SW 202 0,000 mm 17,0 C 20,0 C 6,4 km/h (2 Bft) 95,65 %
26.09.2023 19:50 23,5 C 20,1 C 22,2 C 55 % 83 % 59 % 1020,7 hPa 0,0 l/m 3,2 km/h (1 Bft) S-SW 202 0,000 mm 17,1 C 20,1 C 4,8 km/h (1 Bft) 95,65 %
26.09.2023 19:49 23,4 C 20,1 C 22,2 C 55 % 83 % 59 % 1020,7 hPa 0,0 l/m 3,2 km/h (1 Bft) S-SW 202 0,000 mm 17,1 C 20,1 C 6,4 km/h (2 Bft) 100,00 %
26.09.2023 19:48 23,4 C 20,1 C 22,2 C 55 % 82 % 59 % 1020,8 hPa 0,0 l/m 3,2 km/h (1 Bft) S-SW 202 0,000 mm 16,9 C 20,1 C 4,8 km/h (1 Bft) 100,00 %
26.09.2023 19:47 23,5 C 20,1 C 22,2 C 55 % 82 % 59 % 1020,8 hPa 0,0 l/m 3,2 km/h (1 Bft) S-SW 202 0,000 mm 16,9 C 20,1 C 6,4 km/h (2 Bft) 95,65 %
26.09.2023 19:46 23,4 C 20,2 C 22,2 C 55 % 82 % 59 % 1020,8 hPa 0,0 l/m 3,2 km/h (1 Bft) S-SW 202 0,000 mm 17,0 C 20,2 C 4,8 km/h (1 Bft) 100,00 %
26.09.2023 19:45 23,4 C 20,2 C 22,2 C 55 % 82 % 59 % 1020,7 hPa 0,0 l/m 3,2 km/h (1 Bft) S-SW 202 0,000 mm 17,0 C 20,2 C 6,4 km/h (2 Bft) 100,00 %
26.09.2023 19:44 23,5 C 20,2 C 22,2 C 55 % 82 % 59 % 1020,7 hPa 0,0 l/m 3,2 km/h (1 Bft) S-SW 202 0,000 mm 17,0 C 20,2 C 6,4 km/h (2 Bft) 100,00 %
26.09.2023 19:43 23,5 C 20,2 C 22,2 C 55 % 82 % 59 % 1020,7 hPa 0,0 l/m 3,2 km/h (1 Bft) S-SW 202 0,000 mm 17,0 C 20,2 C 4,8 km/h (1 Bft) 100,00 %
26.09.2023 19:42 23,5 C 20,3 C 22,2 C 55 % 82 % 59 % 1020,7 hPa 0,0 l/m 3,2 km/h (1 Bft) S-SW 202 0,000 mm 17,1 C 20,3 C 4,8 km/h (1 Bft) 95,65 %
26.09.2023 19:41 23,5 C 20,3 C 22,2 C 55 % 82 % 58 % 1020,7 hPa 0,0 l/m 3,2 km/h (1 Bft) S-SW 202 0,000 mm 17,1 C 20,3 C 4,8 km/h (1 Bft) 91,30 %
26.09.2023 19:40 23,5 C 20,3 C 22,2 C 55 % 82 % 58 % 1020,7 hPa 0,0 l/m 3,2 km/h (1 Bft) S-SW 202 0,000 mm 17,1 C 20,3 C 4,8 km/h (1 Bft) 91,30 %
26.09.2023 19:39 23,5 C 20,3 C 22,2 C 55 % 81 % 58 % 1020,7 hPa 0,0 l/m 3,2 km/h (1 Bft) S-SW 202 0,000 mm 16,9 C 20,3 C 4,8 km/h (1 Bft) 95,65 %
26.09.2023 19:38 23,5 C 20,4 C 22,2 C 55 % 81 % 58 % 1020,7 hPa 0,0 l/m 3,2 km/h (1 Bft) S-SW 202 0,000 mm 17,0 C 20,4 C 4,8 km/h (1 Bft) 100,00 %
26.09.2023 19:37 23,5 C 20,4 C 22,2 C 55 % 81 % 58 % 1020,7 hPa 0,0 l/m 4,8 km/h (1 Bft) S-SW 202 0,000 mm 17,0 C 20,4 C 6,4 km/h (2 Bft) 100,00 %
26.09.2023 19:36 23,5 C 20,4 C 22,2 C 55 % 81 % 58 % 1020,6 hPa 0,0 l/m 3,2 km/h (1 Bft) S-SW 202 0,000 mm 17,0 C 20,4 C 4,8 km/h (1 Bft) 100,00 %
26.09.2023 19:35 23,6 C 20,4 C 22,8 C 55 % 81 % 58 % 1020,7 hPa 0,0 l/m 3,2 km/h (1 Bft) S-SW 202 0,000 mm 17,0 C 20,4 C 3,2 km/h (1 Bft) 100,00 %
26.09.2023 19:34 23,6 C 20,4 C 22,8 C 55 % 81 % 58 % 1020,7 hPa 0,0 l/m 4,8 km/h (1 Bft) S-SW 202 0,000 mm 17,0 C 20,4 C 6,4 km/h (2 Bft) 100,00 %
26.09.2023 19:33 23,6 C 20,5 C 22,8 C 55 % 81 % 58 % 1020,7 hPa 0,0 l/m 3,2 km/h (1 Bft) S-SW 202 0,000 mm 17,1 C 20,5 C 4,8 km/h (1 Bft) 95,65 %
26.09.2023 19:32 23,5 C 20,5 C 22,8 C 55 % 81 % 58 % 1020,6 hPa 0,0 l/m 4,8 km/h (1 Bft) S-SW 202 0,000 mm 17,1 C 20,5 C 8,0 km/h (2 Bft) 95,65 %
26.09.2023 19:31 23,5 C 20,6 C 22,8 C 55 % 81 % 58 % 1020,6 hPa 0,0 l/m 3,2 km/h (1 Bft) S-SW 202 0,000 mm 17,2 C 20,6 C 3,2 km/h (1 Bft) 100,00 %
26.09.2023 19:30 23,6 C 20,6 C 22,8 C 55 % 80 % 58 % 1020,6 hPa 0,0 l/m 4,8 km/h (1 Bft) S-SW 202 0,000 mm 17,0 C 20,6 C 6,4 km/h (2 Bft) 100,00 %
26.09.2023 19:29 23,6 C 20,6 C 22,8 C 54 % 80 % 57 % 1020,6 hPa 0,0 l/m 3,2 km/h (1 Bft) S-SW 202 0,000 mm 17,0 C 20,6 C 6,4 km/h (2 Bft) 100,00 %
26.09.2023 19:28 23,6 C 20,7 C 22,8 C 55 % 80 % 57 % 1020,6 hPa 0,0 l/m 3,2 km/h (1 Bft) S-SW 202 0,000 mm 17,1 C 20,7 C 4,8 km/h (1 Bft) 100,00 %
26.09.2023 19:27 23,6 C 20,7 C 22,8 C 54 % 80 % 57 % 1020,6 hPa 0,0 l/m 3,2 km/h (1 Bft) S-SW 202 0,000 mm 17,1 C 20,7 C 3,2 km/h (1 Bft) 100,00 %
26.09.2023 19:26 23,6 C 20,7 C 22,8 C 54 % 80 % 57 % 1020,6 hPa 0,0 l/m 3,2 km/h (1 Bft) S-SW 202 0,000 mm 17,1 C 20,7 C 6,4 km/h (2 Bft) 95,65 %
26.09.2023 19:25 23,6 C 20,7 C 22,8 C 55 % 80 % 57 % 1020,6 hPa 0,0 l/m 3,2 km/h (1 Bft) S-SW 202 0,000 mm 17,1 C 20,7 C 4,8 km/h (1 Bft) 100,00 %
26.09.2023 19:24 23,6 C 20,8 C 22,8 C 55 % 80 % 57 % 1020,6 hPa 0,0 l/m 3,2 km/h (1 Bft) S-SW 202 0,000 mm 17,2 C 20,8 C 4,8 km/h (1 Bft) 100,00 %
26.09.2023 19:23 23,6 C 20,8 C 22,8 C 54 % 80 % 57 % 1020,6 hPa 0,0 l/m 1,6 km/h (1 Bft) S-SW 202 0,000 mm 17,2 C 20,8 C 3,2 km/h (1 Bft) 100,00 %
26.09.2023 19:22 23,6 C 20,8 C 22,8 C 54 % 80 % 57 % 1020,6 hPa 0,0 l/m 3,2 km/h (1 Bft) S-SW 202 0,000 mm 17,2 C 20,8 C 6,4 km/h (2 Bft) 100,00 %
26.09.2023 19:21 23,6 C 20,8 C 22,8 C 54 % 80 % 56 % 1020,6 hPa 0,0 l/m 1,6 km/h (1 Bft) S-SW 202 0,000 mm 17,2 C 20,8 C 3,2 km/h (1 Bft) 95,65 %
26.09.2023 19:20 23,6 C 20,8 C 22,8 C 54 % 80 % 56 % 1020,6 hPa 0,0 l/m 3,2 km/h (1 Bft) S-SW 202 0,000 mm 17,2 C 20,8 C 6,4 km/h (2 Bft) 95,65 %
26.09.2023 19:19 23,6 C 20,9 C 22,8 C 54 % 80 % 57 % 1020,6 hPa 0,0 l/m 3,2 km/h (1 Bft) S-SW 202 0,000 mm 17,3 C 20,9 C 6,4 km/h (2 Bft) 95,65 %
26.09.2023 19:18 23,6 C 20,9 C 22,8 C 54 % 79 % 57 % 1020,5 hPa 0,0 l/m 3,2 km/h (1 Bft) S-SW 202 0,000 mm 17,1 C 20,9 C 6,4 km/h (2 Bft) 100,00 %
26.09.2023 19:17 23,6 C 20,9 C 23,3 C 54 % 79 % 57 % 1020,6 hPa 0,0 l/m 4,8 km/h (1 Bft) S-SW 202 0,000 mm 17,1 C 20,9 C 8,0 km/h (2 Bft) 100,00 %
26.09.2023 19:16 23,6 C 20,9 C 23,3 C 54 % 79 % 56 % 1020,5 hPa 0,0 l/m 4,8 km/h (1 Bft) SW 225 0,000 mm 17,1 C 20,9 C 6,4 km/h (2 Bft) 95,65 %
26.09.2023 19:15 23,6 C 21,0 C 23,3 C 54 % 79 % 56 % 1020,6 hPa 0,0 l/m 3,2 km/h (1 Bft) SW 225 0,000 mm 17,2 C 21,0 C 6,4 km/h (2 Bft) 100,00 %
26.09.2023 19:14 23,6 C 21,1 C 23,3 C 54 % 79 % 56 % 1020,5 hPa 0,0 l/m 4,8 km/h (1 Bft) SW 225 0,000 mm 17,3 C 21,1 C 6,4 km/h (2 Bft) 95,65 %
26.09.2023 19:13 23,6 C 21,1 C 23,3 C 54 % 79 % 56 % 1020,6 hPa 0,0 l/m 3,2 km/h (1 Bft) SW 225 0,000 mm 17,3 C 21,1 C 6,4 km/h (2 Bft) 100,00 %
26.09.2023 19:12 23,6 C 21,1 C 23,3 C 54 % 78 % 56 % 1020,6 hPa 0,0 l/m 4,8 km/h (1 Bft) SW 225 0,000 mm 17,1 C 21,1 C 6,4 km/h (2 Bft) 95,65 %
26.09.2023 19:11 23,6 C 21,2 C 23,3 C 54 % 78 % 56 % 1020,5 hPa 0,0 l/m 4,8 km/h (1 Bft) SW 225 0,000 mm 17,2 C 21,2 C 6,4 km/h (2 Bft) 95,65 %
26.09.2023 19:10 23,6 C 21,2 C 23,3 C 54 % 78 % 56 % 1020,5 hPa 0,0 l/m 4,8 km/h (1 Bft) SW 225 0,000 mm 17,2 C 21,2 C 6,4 km/h (2 Bft) 95,65 %
26.09.2023 19:09 23,6 C 21,2 C 23,3 C 54 % 78 % 56 % 1020,4 hPa 0,0 l/m 4,8 km/h (1 Bft) SW 225 0,000 mm 17,2 C 21,2 C 6,4 km/h (2 Bft) 100,00 %
26.09.2023 19:08 23,6 C 21,3 C 23,3 C 54 % 78 % 56 % 1020,6 hPa 0,0 l/m 4,8 km/h (1 Bft) SW 225 0,000 mm 17,3 C 21,3 C 6,4 km/h (2 Bft) 100,00 %
26.09.2023 19:07 23,6 C 21,3 C 23,3 C 54 % 78 % 56 % 1020,5 hPa 0,0 l/m 3,2 km/h (1 Bft) SW 225 0,000 mm 17,3 C 21,3 C 4,8 km/h (1 Bft) 100,00 %
26.09.2023 19:06 23,6 C 21,3 C 23,3 C 54 % 78 % 55 % 1020,5 hPa 0,0 l/m 3,2 km/h (1 Bft) SW 225 0,000 mm 17,3 C 21,3 C 6,4 km/h (2 Bft) 95,65 %
26.09.2023 19:05 23,6 C 21,3 C 23,3 C 54 % 78 % 55 % 1020,5 hPa 0,0 l/m 3,2 km/h (1 Bft) SW 225 0,000 mm 17,3 C 21,3 C 4,8 km/h (1 Bft) 95,65 %
26.09.2023 19:04 23,6 C 21,4 C 23,3 C 54 % 77 % 55 % 1020,4 hPa 0,0 l/m 1,6 km/h (1 Bft) SW 225 0,000 mm 17,2 C 21,4 C 4,8 km/h (1 Bft) 100,00 %
26.09.2023 19:03 23,6 C 21,4 C 23,3 C 54 % 77 % 55 % 1020,4 hPa 0,0 l/m 4,8 km/h (1 Bft) SW 225 0,000 mm 17,2 C 21,4 C 6,4 km/h (2 Bft) 100,00 %
26.09.2023 19:02 23,7 C 21,4 C 23,3 C 54 % 77 % 55 % 1020,6 hPa 0,0 l/m 3,2 km/h (1 Bft) SW 225 0,000 mm 17,2 C 21,4 C 4,8 km/h (1 Bft) 95,65 %
26.09.2023 19:01 23,7 C 21,5 C 23,3 C 54 % 77 % 55 % 1020,5 hPa 0,0 l/m 3,2 km/h (1 Bft) SW 225 0,000 mm 17,3 C 21,5 C 4,8 km/h (1 Bft) 95,65 %
26.09.2023 19:00 23,6 C 21,5 C 23,9 C 54 % 77 % 55 % 1020,4 hPa 0,0 l/m 3,2 km/h (1 Bft) SW 225 0,000 mm 17,3 C 21,5 C 4,8 km/h (1 Bft) 100,00 %
_ Min-Zeit 06:52 06:45 06:30 12:40 16:36 16:39 18:05 - 21:54 - - - 06:45 06:45 22:25 17:07
Minimum _ 22,3 C 11,0 C 13,3 C 49 % 57 % 32 % 1018,8 hPa - 0,0 km/h (0 Bft) - - - 10,2 C 11,0 C 0,0 km/h (0 Bft) 26,09 %
_ Max-Zeit 13:23 15:52 15:23 23:42 08:47 08:57 10:38 19:00 16:38 - - 19:00 13:56 15:52 16:38 19:00
Maximum _ 26,9 C 25,4 C 30,0 C 56 % 97 % 73 % 1024,4 hPa 0,0 l/m 12,9 km/h
NO (3 Bft)
- - 0,000 mm 18,5 C 25,4 C 19,3 km/h
NO (3 Bft)
100,00 %
Durchschnitt _ 23,7 C 17,7 C 20,3 C 54 % 85 % 59 % 1022,2 hPa #0,0 l/m 2,6 km/h (1 Bft) S-SW - #0,000 mm 14,8 C 17,7 C 4,4 km/h (1 Bft) 96,95 %